[[[{"header":{"parameterUnit":"kt","parameterCategory":2,"dx":1,"dy":1,"la1":29.285339999999998,"la2":30.599998999999997,"lo1":-89.70041500000002,"lo2":-87.6738589999976,"nx":112,"ny":82,"refTime":"2022-09-21T06:00:00:Z","depth":0,"parameterNumber":1,"parameterNumberName":"U-component_of_WINDS"},"data":[1.7663,1.8637,1.8983,1.8998,1.8607,1.768,1.5582,1.582,1.6344,1.5704,1.6475,1.7543,1.8559,1.6801,1.5251,1.5459,1.4128,1.2712,0.0,1.1943,0.0,1.2803,1.3949,1.5488,1.7438,0.0,0.0,0.0,0.0,0.0,0.0,2.9424,2.9982,3.0656,3.0682,3.0682,3.0682,3.1576,3.2035,3.2035,3.4451,3.64,3.7987,3.947,4.1407,4.3635,4.3635,4.4081,4.4885,4.4885,4.4885,4.4885,4.4885,4.4885,4.4772,4.3793,4.3414,4.3414,4.3414,4.3414,4.3414,4.3414,4.3414,4.3414,4.3414,4.3414,4.3414,4.3414,4.3414,4.3414,4.3414,4.3414,4.3414,4.3414,4.3414,4.3414,4.3414,4.3414,4.3414,4.3414,4.3414,4.3414,4.3414,4.3414,4.33,4.3015,4.2977,4.3091,4.3376,4.3414,4.3414,4.3414,4.3414,4.3414,4.3414,4.3414,4.3414,4.3414,4.3414,4.3414,4.3414,4.3414,4.3414,4.3414,4.3414,4.3262,4.2977,4.2977,4.2825,4.2621,4.4059,4.4785,1.4172,1.4916,1.5288,1.4998,1.4691,1.3959,1.2114,1.2487,1.3033,1.2354,1.3786,1.5096,1.4926,1.415,1.3466,1.3047,1.2428,1.1604,0.0,1.1276,0.0,1.275,1.5205,1.7421,1.8922,0.0,0.0,0.0,2.4139,0.0,2.9177,2.9723,3.019,3.0656,3.0682,3.0682,3.0682,3.0682,3.0682,3.0774,3.2401,3.3998,3.5488,3.7067,3.9118,4.1355,4.1355,4.224,4.372,4.372,4.4166,4.4866,4.4601,4.4487,4.4149,4.1407,4.0425,4.0425,4.0425,4.0832,4.1598,4.228,4.254,4.254,4.254,4.254,4.254,4.254,4.254,4.254,4.254,4.254,4.254,4.254,4.254,4.254,4.254,4.254,4.254,4.254,4.254,4.254,4.254,4.2066,4.1781,4.2066,4.2123,4.2218,4.2503,4.254,4.254,4.254,4.254,4.254,4.254,4.254,4.254,4.254,4.254,4.254,4.254,4.254,4.254,4.254,4.254,4.2408,4.2123,4.2123,4.1971,4.1746,4.1746,4.1717,1.1273,1.0832,1.082,1.068,1.0275,1.0091,1.0789,1.148,1.1753,1.116,1.1905,1.2593,1.2097,1.1758,1.1204,1.0076,1.0165,0.0,0.0,1.0645,1.2116,1.2722,0.0,0.0,0.0,1.9976,0.0,0.0,2.3588,2.4555,2.9632,2.9917,3.019,3.0656,3.0656,3.0656,3.0682,3.0682,3.0682,3.0682,3.0656,3.0736,3.0828,3.0815,3.215,3.4498,3.4498,3.7036,4.1233,4.1233,4.2581,4.4564,4.3771,4.3451,4.2887,3.7914,3.6066,3.6066,3.6066,3.7378,3.9449,4.1604,4.2285,4.2285,4.2285,4.2304,4.2384,4.2384,4.2465,4.2465,4.2465,4.2465,4.2465,4.2465,4.2465,4.2465,4.2465,4.2465,4.2465,4.2465,4.2465,4.2465,4.2465,4.1156,4.0339,4.102,4.1153,4.1456,4.2351,4.2465,4.2465,4.2465,4.2465,4.2465,4.2465,4.2465,4.2465,4.2465,4.2465,4.2465,4.2465,4.2465,4.2465,4.2465,4.2465,4.2047,4.1153,4.1153,4.0794,4.0053,4.0053,4.0053,0.9843,1.0123,1.0365,0.9479,0.9478,0.9422,0.8577,0.8842,0.929,0.9615,1.0067,0.0,0.0,0.0,0.9688,0.9659,0.0,1.1904,0.9314,1.353,0.0,0.0,0.0,0.0,0.0,2.3497,2.5009,2.7931,2.6412,2.6502,2.9177,2.971,3.019,3.0656,3.0372,3.0359,3.0669,3.0682,3.0682,3.0669,3.0359,3.1026,3.2643,3.228,3.337,3.5692,3.5692,3.6374,3.7629,3.7629,3.7966,3.8554,3.835,3.7859,3.7153,3.5109,3.4352,3.4352,3.4352,3.4672,3.5311,3.5884,3.6043,3.6043,3.6043,3.7166,3.8456,3.8456,3.9562,4.0757,4.0757,4.0757,4.0757,4.0757,4.0757,4.0757,4.0757,4.0757,4.0757,4.0757,4.0757,4.0757,4.0757,4.0358,4.0129,4.0301,4.0338,4.0414,4.0719,4.0757,4.0757,4.0757,4.0757,4.0757,4.0757,4.0757,4.0757,4.0757,4.0757,4.0757,4.0757,4.0757,4.0757,4.0757,4.0757,4.0643,4.0338,4.0338,4.0282,4.0053,4.0053,4.0053,0.919,0.9453,0.9685,0.8623,0.8755,0.8808,0.739,0.7393,0.7713,0.7804,0.0,0.0,0.0,0.0,0.0,0.0,1.0403,0.0,0.0,0.0,1.5453,0.0,0.0,0.0,2.1517,2.3288,2.5635,2.8918,2.7269,2.7022,2.9069,2.9486,2.9723,3.006,2.9749,2.9736,3.006,3.006,3.006,3.006,2.9736,3.0336,3.16,3.1338,3.193,3.3195,3.3195,3.379,3.4689,3.4689,3.5277,3.5899,3.3418,3.2237,3.1701,3.125,3.1021,3.1021,3.1021,3.1567,3.2349,3.2349,3.3537,3.5029,3.5029,3.6523,3.825,3.825,3.9107,4.0053,4.0053,4.0053,4.0053,4.0053,4.0053,4.0053,4.0053,4.0053,4.0053,4.0053,4.0053,4.0053,4.0053,4.0053,4.0053,4.0053,4.0053,4.0053,4.0053,4.0053,4.0053,4.0053,4.0053,4.0053,4.0053,4.0053,4.0053,4.0053,4.0053,4.0053,4.0053,4.0053,4.0053,4.0053,4.0053,4.0053,4.0053,4.0053,4.0053,4.0053,4.0053,4.0053,0.9108,0.8922,0.8874,0.8013,0.8221,0.8312,0.7128,0.0,0.6962,0.6626,0.0,0.6486,0.6804,0.0,0.0,0.7081,0.0,0.0,0.917,1.1645,1.3621,1.3556,1.7545,2.0027,1.939,2.0908,2.3785,2.8308,2.6839,2.6676,2.8892,2.9069,2.9108,2.9174,2.9108,2.9108,2.9174,2.9174,2.9174,2.9174,2.9108,2.9069,2.9069,2.9004,2.8978,2.8978,2.8978,3.0132,3.2041,3.2041,3.3295,3.4596,2.946,2.7385,2.7385,2.7385,2.7385,2.7385,2.7385,2.864,3.0203,3.0203,3.2746,3.5825,3.5825,3.7312,3.8936,3.8936,3.9107,3.9335,3.9335,3.9335,3.9353,3.9656,3.9656,3.9732,3.9978,4.0053,4.0053,4.0053,4.0053,4.0053,4.0053,4.0053,4.0053,4.0053,4.0053,4.0053,4.0053,4.0053,4.0053,4.0053,4.0053,4.0053,4.0053,4.0053,4.0053,4.0053,4.0053,4.0053,4.0053,4.0053,4.0053,4.0053,4.0053,4.0053,4.0053,4.0053,4.0053,4.0053,4.0053,3.9996,0.8995,0.8769,0.8716,0.8216,0.8026,0.803,0.0,0.0,0.0,0.9373,0.9081,0.8762,0.9585,0.9467,0.0,0.9948,0.0,0.0,0.0,1.3095,0.0,1.4565,1.5412,1.6683,1.8472,1.9005,2.1043,2.5392,2.5697,2.6494,2.8313,2.8385,2.8606,2.9161,2.8632,2.8619,2.9174,2.9174,2.9174,2.9174,2.8619,2.8385,2.8372,2.7918,2.771,2.771,2.771,2.8042,2.8429,2.8429,2.8677,2.898,2.7874,2.7385,2.7385,2.7385,2.7385,2.7385,2.7385,2.77,2.8014,2.8014,2.8572,2.9209,2.9209,3.0686,3.2333,3.2333,3.36,3.4872,3.4872,3.4872,3.5341,3.7081,3.756,3.8021,3.9656,4.0053,4.0053,4.0053,4.0053,4.0053,4.0053,4.0053,4.0053,4.0053,4.0053,4.0053,4.0053,4.0053,4.0053,4.0053,4.0053,4.0053,4.0053,4.0053,4.0053,4.0053,4.0053,4.0053,4.0053,4.0053,4.0053,4.0053,4.0053,4.0053,4.0053,4.0053,4.0053,4.0053,4.0053,3.9692,0.7632,0.7933,0.8359,0.7875,0.7764,0.0,0.0,0.7694,0.7793,0.93,0.9021,0.8861,1.0242,1.0423,1.0561,1.0997,1.3193,1.4416,1.3001,1.393,1.4702,1.457,1.455,1.5076,1.6302,1.7447,1.8873,2.0894,2.3386,2.5669,2.7647,2.7801,2.7931,2.8301,2.7957,2.7944,2.8314,2.8314,2.8314,2.8314,2.7944,2.7801,2.7788,2.7515,2.7385,2.7385,2.7385,2.7385,2.7385,2.7385,2.7385,2.7385,2.7385,2.7385,2.7385,2.7385,2.7385,2.7385,2.7385,2.7385,2.7385,2.7385,2.7385,2.7618,2.864,2.9734,3.0751,3.1791,3.3616,3.528,3.528,3.6058,3.714,3.825,3.8498,3.8803,3.9808,4.0053,4.0053,4.0053,3.9711,3.9218,3.8874,3.914,3.9351,3.9351,3.9768,4.0053,4.0053,4.0053,4.0053,4.0053,4.0053,4.0053,4.0053,4.0053,4.0053,4.0053,4.0053,4.0053,4.0053,4.0053,4.0053,4.0053,3.956,3.9541,4.0053,3.9216,3.8798,3.8798,3.8798,3.8497,0.5907,0.6525,0.7311,0.683,0.7024,0.0,0.7463,0.751,0.7973,0.9307,0.9197,0.9362,1.0899,1.1293,1.1544,1.1827,1.3053,1.4049,1.4381,1.4414,1.4395,1.4247,1.424,1.424,1.424,1.5881,1.6805,1.6624,2.0373,2.3809,2.6607,2.7126,2.7385,2.7385,2.7385,2.7385,2.7385,2.7385,2.7385,2.7385,2.7385,2.7385,2.7385,2.7385,2.7385,2.7385,2.7385,2.7385,2.7385,2.7385,2.7385,2.7385,2.7385,2.7385,2.7385,2.7385,2.7385,2.7385,2.7385,2.7385,2.7385,2.7385,2.7385,2.77,2.9424,2.9895,3.0298,3.1966,3.3694,3.5045,3.5045,3.629,3.7678,3.8079,3.8479,3.8955,3.9353,3.9732,3.9713,3.8679,3.7862,3.7124,3.655,3.6903,3.7474,3.7858,3.853,3.9167,3.9484,3.9559,3.9559,3.9559,3.9559,3.9559,3.9559,3.9559,3.9559,3.9559,3.9559,3.9559,3.9559,3.9559,3.9559,3.9559,3.882,3.882,3.9559,3.8136,3.7491,3.7491,3.7491,3.7396,0.4515,0.4564,0.4639,0.4365,0.508,0.0,0.7466,0.8689,1.0123,1.2137,1.2704,1.2894,1.3333,1.3438,1.3562,1.3943,1.4242,1.4293,1.4414,1.4414,1.4227,1.3877,1.3844,1.3844,1.3844,1.4096,1.4255,1.4221,1.66,1.9878,2.4046,2.6266,2.7385,2.7385,2.7385,2.7385,2.7385,2.7385,2.7385,2.7385,2.7385,2.7385,2.7385,2.7385,2.7385,2.7385,2.7385,2.7385,2.7385,2.7385,2.7385,2.7385,2.7385,2.7385,2.7385,2.7385,2.7385,2.7385,2.7385,2.7385,2.7385,2.7385,2.7385,2.7467,2.77,2.7782,2.7782,2.8014,2.8259,2.8491,2.8491,2.8654,2.9276,3.1152,3.2983,3.4872,3.6849,3.8726,3.8586,3.3739,3.2666,3.2583,3.25,3.255,3.322,3.4983,3.5345,3.5923,3.7614,3.7757,3.7757,3.7757,3.7757,3.7757,3.7757,3.7757,3.7757,3.7757,3.7757,3.7757,3.7757,3.7757,3.7757,3.7757,3.7662,3.7662,3.7757,3.7586,3.7491,3.7491,3.7491,3.7092,0.2863,0.3431,0.3964,0.3723,0.0,0.0,0.7321,0.8745,1.0437,1.2381,1.2737,1.3007,1.3963,1.4141,1.424,1.4543,1.4293,1.4069,1.4069,1.4069,1.4023,1.3805,1.3792,1.3792,1.3792,1.3792,1.3792,1.3792,1.6003,1.8122,1.9962,2.2227,2.3986,2.5322,2.5405,2.6006,2.7385,2.7385,2.7385,2.7385,2.7385,2.7385,2.7385,2.7385,2.7385,2.7385,2.7385,2.7385,2.7385,2.7385,2.7385,2.7385,2.7385,2.7385,2.7346,2.7009,2.6879,2.6827,2.6502,2.6386,2.6386,2.6386,2.6386,2.6386,2.6386,2.6386,2.6386,2.6386,2.6386,2.6688,2.7906,2.9111,3.0226,3.1132,3.1971,3.2898,3.3803,3.4702,3.4836,3.3114,3.3621,3.3905,3.2365,3.246,3.2695,3.248,3.2833,3.3411,3.4121,3.4211,3.4211,3.4211,3.4211,3.4735,3.5796,3.5957,3.6387,3.742,3.7491,3.7491,3.7491,3.7491,3.7491,3.7491,3.7491,3.7244,3.6681,3.6276,3.6048,3.6048,3.6048,3.5859,0.1324,0.0,0.0,0.0,0.0,0.0,0.6063,0.7954,1.0037,1.1565,1.233,1.2961,1.4009,1.4207,1.4273,1.4491,1.4073,1.3792,1.3792,1.3792,1.3792,1.3792,1.3792,1.3792,1.3792,1.3792,1.3792,0.0,1.5413,1.66,1.7281,1.879,2.0709,2.2955,2.2955,2.414,2.643,2.6443,2.6785,2.7385,2.7385,2.7385,2.7385,2.7385,2.7385,2.7385,2.7385,2.7385,2.7372,2.7217,2.7152,2.7126,2.697,2.6918,2.6866,2.6358,2.6216,2.6151,2.5814,2.5684,2.5684,2.5684,2.5684,2.5684,2.5684,2.5684,2.5684,2.5684,2.5684,2.5966,2.7515,2.9044,3.0151,3.0151,3.0582,3.1027,3.1027,3.0271,2.9866,3.0679,3.1845,3.2162,3.0297,3.045,3.0511,2.9717,3.0071,3.0604,3.1184,3.1256,3.1457,3.1961,3.1961,3.2783,3.4719,3.486,3.5442,3.6738,3.6808,3.6808,3.6808,3.6808,3.6808,3.6808,3.6808,3.6504,3.581,3.5222,3.5004,3.5004,3.5004,3.5004,0.0,0.0,0.0,0.011,0.1024,0.2107,0.3057,0.6117,0.9017,0.9839,1.2017,1.3759,1.3798,1.3805,1.3811,1.3818,1.3805,1.3792,1.3792,1.3792,1.3792,1.3792,1.3792,1.3792,1.3792,1.3792,1.3792,1.3792,1.3878,1.4899,1.7196,1.7366,1.8452,2.0625,2.0709,2.1798,2.3963,2.4046,2.5157,2.7385,2.7385,2.7385,2.7385,2.7385,2.7385,2.7385,2.7385,2.7385,2.7333,2.6695,2.6462,2.641,2.5944,2.5736,2.5736,2.571,2.571,2.5697,2.5684,2.5684,2.5684,2.5684,2.5684,2.5684,2.5684,2.5684,2.5684,2.5684,2.5684,2.5684,2.5748,2.5825,2.5825,2.5825,2.7377,2.8833,2.8833,2.6406,2.4173,2.4146,2.4218,2.4205,2.4192,2.4205,2.4777,2.6466,2.6762,2.7465,2.9401,2.9608,3.028,3.2053,3.2256,3.2966,3.4815,3.5014,3.5014,3.508,3.508,3.508,3.508,3.508,3.508,3.508,3.508,3.5061,3.5042,3.5023,3.5004,3.5004,3.5004,3.5004,0.0,0.0,0.0,0.0,0.1307,0.2706,0.3072,0.5205,0.7287,0.7536,0.9748,1.1629,1.1629,1.1629,1.1629,1.1629,1.284,1.3792,1.3792,1.3792,1.3792,1.3792,1.3792,1.3792,1.3792,1.3792,1.3792,1.3792,1.3792,1.4135,1.4899,1.4985,1.532,1.6073,1.7604,2.0205,2.388,2.388,2.5074,2.7385,2.7385,2.7385,2.7385,2.7385,2.7385,2.7385,2.7385,2.6944,2.623,2.6035,2.5879,2.5944,2.5762,2.5684,2.5632,2.5305,2.5162,2.5097,2.4633,2.4503,2.4503,2.4503,2.4503,2.4503,2.4503,2.4503,2.4503,2.4503,2.4503,2.4503,2.4503,2.4503,2.4503,2.4503,2.5063,2.556,2.556,2.568,2.573,2.573,2.6774,2.7251,2.5943,2.573,2.5532,2.4892,2.4821,2.5034,2.5716,2.5787,2.5999,2.6619,2.6675,2.7446,2.9268,3.0642,3.1883,3.3114,3.4304,3.5004,3.5004,3.5004,3.5004,3.5004,3.5004,3.5004,3.5004,3.5004,3.5004,3.5004,3.5004,3.5004,0.0,0.0,0.0,0.0,0.1014,0.1983,0.1987,0.3724,0.5365,0.5365,0.7397,0.9285,0.9285,0.9285,0.9285,0.9285,1.0407,1.1618,1.2496,1.2582,1.2926,1.3706,1.3792,1.3792,1.3792,1.3792,1.3792,1.3792,1.3792,1.3792,1.3792,1.3792,1.3792,1.3792,1.5242,1.7434,2.027,2.1119,2.3061,2.6183,2.6183,2.6607,2.7372,2.7165,2.7074,2.7061,2.6866,2.636,2.5658,2.5451,2.536,2.5334,2.5126,2.5048,2.4996,2.4607,2.4537,2.4485,2.4035,2.3918,2.3918,2.3918,2.3918,2.3918,2.3918,2.3918,2.3918,2.3918,2.3918,2.3918,2.3918,2.3918,2.3918,2.3918,2.3918,2.3918,2.3918,2.4821,2.566,2.566,2.6704,2.7111,2.5872,2.566,2.5248,2.4049,2.3918,2.3918,2.3918,2.3918,2.4192,2.4821,2.4892,2.566,2.7546,2.9406,3.1034,3.2204,3.34,3.4304,3.4938,3.437,3.4304,3.4938,3.5004,3.472,3.4048,3.4048,3.4048,3.4048,3.4048,3.4048,0.0,0.0,0.0,0.0,0.0,0.0,0.0,0.1743,0.3307,0.3307,0.5212,0.6766,0.6679,0.6766,0.6852,0.6852,0.6939,0.7807,0.998,1.033,1.1107,1.3362,1.362,1.3706,1.3792,1.3792,1.3792,1.3792,1.3792,1.3792,1.3792,1.3792,1.3792,1.3792,1.3792,1.3792,1.3792,1.6089,1.9447,2.3752,2.3729,2.4826,2.7023,2.6483,2.6133,2.599,2.5595,2.5427,2.5388,2.497,2.4811,2.4745,2.4126,2.3918,2.3918,2.3918,2.3918,2.3918,2.3918,2.3918,2.3918,2.3918,2.3918,2.3918,2.3918,2.3918,2.3918,2.3918,2.3918,2.3918,2.3918,2.3918,2.3918,2.3918,2.3918,2.3918,2.3918,2.3918,2.3918,2.3918,2.3918,2.3918,2.3918,2.3918,2.3918,2.3918,2.3918,2.3892,2.3866,2.3892,2.4536,2.6253,2.6493,2.7266,2.9129,3.0898,3.1984,3.1984,3.2069,3.2894,3.4598,3.3042,3.3024,3.4674,3.4674,3.3835,3.221,3.2333,3.2333,3.2333,3.2395,3.2456,0.0,0.0,0.0,0.0,0.0,0.0,0.0,0.0437,0.0873,0.0873,0.2786,0.3827,0.2091,0.322,0.4346,0.4346,0.5816,0.7198,0.7807,0.7894,0.8762,1.102,1.137,1.1974,1.362,1.3792,1.3792,1.3792,1.3792,1.3792,1.3792,1.3792,1.3792,1.3792,1.3792,1.3792,1.3792,1.6089,1.8638,2.1105,2.0947,2.12,2.1757,2.3079,2.2658,2.0865,2.1738,2.2183,2.2245,2.3597,2.4126,2.4113,2.397,2.3918,2.3918,2.3918,2.3918,2.3918,2.3918,2.3918,2.3918,2.3918,2.3918,2.3918,2.3918,2.3918,2.3918,2.3918,2.3918,2.3918,2.3918,2.3918,2.3918,2.3918,2.3918,2.3918,2.3918,2.3918,2.3918,2.3918,2.3918,2.3918,2.3918,2.3918,2.3918,2.3918,2.3918,2.3763,2.3404,2.3659,2.3963,2.4019,2.4353,2.4821,2.5305,2.7055,2.8089,2.8089,2.9406,3.0256,3.0173,3.0867,3.1277,3.1367,3.0265,2.9418,2.898,3.0113,3.0693,3.0755,3.1944,3.2456,-0.0163,0.0,0.0,0.0,0.0,0.0,0.0,0.0,0.0,0.0,0.1047,0.1569,0.0262,0.1047,0.2004,0.2004,0.3046,0.4259,0.5299,0.5472,0.6336,0.8676,0.8935,0.9453,1.0665,1.171,1.2324,1.2324,1.327,1.3792,1.3792,1.368,1.3615,1.3615,1.349,1.3418,1.3418,1.4746,1.5965,1.7043,1.7867,1.8796,1.982,2.0639,2.0137,1.8639,2.0282,2.1479,2.2358,2.3462,2.3918,2.3918,2.3918,2.3918,2.3918,2.3918,2.3918,2.3918,2.3918,2.3918,2.3918,2.3918,2.3918,2.3918,2.3918,2.3918,2.3918,2.3918,2.3918,2.3918,2.3918,2.3918,2.3918,2.3918,2.3918,2.3776,2.3269,2.3165,2.3165,2.3165,2.3165,2.3165,2.3165,2.3165,2.3165,2.3165,2.3165,2.3048,2.2737,2.297,2.3048,2.2724,2.297,2.3165,2.3165,2.4878,2.5959,2.5959,2.6962,2.7785,2.8228,2.8277,2.8599,2.9107,2.7512,2.7014,2.7751,2.8587,2.9391,3.0071,3.0963,3.1338,-0.0615,-0.0183,0.0,0.0,0.0,0.0,0.0,0.0,0.0,0.0,0.0,0.0,0.0,0.0,0.0,0.0,0.0,0.0698,0.2785,0.3046,0.3914,0.6246,0.6509,0.6673,0.6999,0.8815,1.0014,0.999,1.2048,1.3248,1.3248,1.3367,1.3327,1.3327,1.3159,1.3027,1.3027,1.3027,1.3007,1.2961,1.4923,1.6871,1.878,1.8261,1.7748,1.7407,1.937,2.119,2.2743,2.3031,2.3247,2.3547,2.3547,2.369,2.3918,2.3918,2.3918,2.3918,2.3918,2.3918,2.3892,2.3827,2.3802,2.3789,2.3711,2.3685,2.3685,2.3685,2.3685,2.3685,2.3685,2.3685,2.3685,2.3685,2.3685,2.3412,2.2358,2.2138,2.2138,2.2138,2.2138,2.2138,2.2138,2.2138,2.2138,2.2138,2.2138,2.2112,2.2034,2.2099,2.2112,2.2034,2.2099,2.2138,2.2138,2.3728,2.4713,2.4713,2.4713,2.5372,2.6846,2.5592,2.5482,2.6783,2.535,2.533,2.6681,2.6914,2.7668,2.9008,2.9425,2.9615,-0.208,-0.1101,0.0,0.0,0.0,0.0,0.0,0.0,0.0,0.0,0.0,0.0,0.0,0.0,0.0,0.0,0.0,0.0175,0.0524,0.0611,0.1483,0.3827,0.4086,0.4835,0.6783,0.7364,0.7562,0.7588,0.9458,1.0602,1.0602,1.222,1.31,1.31,1.3053,1.3027,1.3027,1.3027,1.2902,1.2736,1.3121,1.3378,1.3518,1.346,1.3334,1.3358,1.5343,1.6373,1.6817,1.8438,2.0038,2.1479,2.1479,2.2515,2.3918,2.3918,2.3918,2.3918,2.3918,2.3918,2.384,2.3443,2.3287,2.3196,2.2646,2.2503,2.2503,2.2503,2.2503,2.2503,2.2503,2.2503,2.2503,2.2503,2.2503,2.2384,2.219,2.2138,2.2138,2.2138,2.2138,2.2138,2.2138,2.2138,2.2138,2.2138,2.2138,2.197,2.1568,2.1853,2.1957,2.1568,2.1932,2.2138,2.2138,2.247,2.267,2.267,2.267,2.2576,2.2467,2.3432,2.3253,2.1858,2.1531,2.1544,2.1835,2.3124,2.3888,2.4171,2.678,2.8033,-0.3792,-0.3251,-0.2492,-0.1576,-0.0665,0.0,0.0,0.0,-0.0346,-0.1421,-0.0754,0.0,0.0,0.0,0.0,0.0,0.0,0.0,0.0,0.0,0.0422,0.1518,0.1686,0.2098,0.3237,0.4472,0.5191,0.5136,0.7161,0.8377,0.8377,1.0138,1.1199,1.1199,1.2103,1.2657,1.2657,1.2657,1.2584,1.2444,1.2444,1.2371,1.2245,1.2245,1.284,1.38,1.4764,1.5714,1.6752,1.7702,1.8658,1.9443,1.9443,2.0038,2.0995,2.1997,2.2188,2.2098,2.3182,2.3282,2.2983,2.2711,2.262,2.2568,2.2228,2.2138,2.2138,2.2138,2.2138,2.2138,2.2138,2.2138,2.2138,2.2138,2.1763,2.1334,2.1334,2.1334,2.1334,2.1334,2.1334,2.1334,2.1334,2.1334,2.1334,2.1334,2.1334,2.123,2.1021,2.1166,2.123,2.1021,2.1242,2.1334,2.1334,2.1334,2.1334,2.1334,2.1334,2.1218,2.1008,2.1718,2.1645,2.0652,2.0591,2.1007,2.1822,2.2581,2.3364,2.4202,2.6564,2.7628,-0.5466,-0.5293,-0.493,-0.3533,-0.2225,-0.1244,-0.1255,-0.127,-0.1516,-0.2714,-0.1769,-0.0569,-0.008,0.0,0.0,0.0,0.0,0.0,0.0,0.0,0.0,0.0,0.0,0.0,0.0,0.1703,0.2748,0.2734,0.49,0.6182,0.6182,0.7812,0.8745,0.8745,1.059,1.1555,1.1555,1.2013,1.2245,1.2245,1.2245,1.2245,1.2245,1.2245,1.3058,1.454,1.454,1.5426,1.6826,1.6826,1.6992,1.7348,1.7348,1.7583,1.8075,1.9567,1.9895,1.9781,2.1328,2.147,2.1087,2.1386,2.1428,2.1468,2.1749,2.1841,2.1841,2.1841,2.1841,2.1841,2.1841,2.1841,2.1841,2.1841,2.1242,2.0591,2.0591,2.0591,2.0591,2.0591,2.0591,2.0591,2.0591,2.0591,2.0591,2.0591,2.0591,2.0591,2.0591,2.0591,2.0591,2.0591,2.0591,2.0591,2.0591,2.0591,2.0591,2.0591,2.0591,2.0591,2.0591,2.0591,2.0591,2.0591,2.0591,2.1239,2.2414,2.2414,2.3078,2.4277,2.5844,2.6605,-0.6781,-0.6031,-0.5287,-0.5334,-0.5276,-0.5204,-0.5423,-0.5312,-0.4678,-0.2923,-0.273,-0.2283,-0.0326,0.0,0.0,0.0,0.0,0.0,0.0,0.0,0.0,0.0,0.0,0.0,0.0,0.0159,0.0314,0.0308,0.2301,0.345,0.345,0.5264,0.632,0.632,0.8358,0.9415,0.9415,1.1323,1.2245,1.2245,1.2245,1.2245,1.2245,1.2245,1.2321,1.254,1.254,1.2615,1.2765,1.2765,1.3613,1.4898,1.4898,1.5819,1.7205,1.741,1.7448,1.7418,1.7622,1.7602,1.7769,1.8832,1.9151,1.9329,2.0453,2.0747,2.0747,2.0747,2.0747,2.0747,2.0747,2.0747,2.0747,2.0747,2.0669,2.0591,2.0591,2.0591,2.0591,2.0591,2.0591,2.0591,2.0591,2.0591,2.0591,2.0591,2.0591,2.0591,2.0591,2.0591,2.0591,2.0591,2.0591,2.0591,2.0591,2.0591,2.0591,2.0591,2.0591,2.0591,2.0591,2.0591,2.0591,2.0591,2.0591,2.0714,2.0823,2.0823,2.0885,2.1069,2.2656,2.3349,-0.7646,-0.778,-0.7627,-0.6654,-0.682,-0.6902,-0.5772,-0.7513,-0.8739,-0.6859,-0.5608,-0.459,-0.3767,-0.2685,-0.1851,-0.1877,-0.0853,0.0,0.0,0.0,0.0,0.0,0.0,0.0,0.0,0.0,0.0,0.0,0.0763,0.122,0.122,0.3196,0.4787,0.5996,0.8046,0.9722,1.1021,1.1862,1.2245,1.2245,1.2245,1.2245,1.2245,1.2245,1.2245,1.2245,1.2245,1.2139,1.1887,1.1709,1.2057,1.2569,1.2569,1.2972,1.3743,1.4905,1.5164,1.5168,1.7368,1.7923,1.792,1.9395,1.9914,2.0002,2.0471,2.0591,2.0591,2.0591,2.0591,2.0591,2.0591,2.0591,2.0591,2.0591,2.0591,2.0591,2.0591,2.0591,2.0591,2.0591,2.0591,2.0591,2.0591,2.0591,2.0591,2.0591,2.0591,2.0591,2.0591,2.0591,2.0591,2.0591,2.0591,2.0591,2.0591,2.0591,2.0591,2.0591,2.0591,1.9702,1.7619,1.8513,1.9084,1.9084,2.0085,2.0591,2.0591,2.0591,2.0591,2.0652,2.2232,2.2943,-0.8119,-0.878,-0.9122,-0.7921,-0.8189,-0.8383,-0.7184,-0.9132,-1.0874,-1.0038,-0.8231,-0.665,-0.6033,-0.4739,-0.3805,-0.3825,-0.26,-0.1483,-0.0988,-0.0915,-0.0687,-0.0076,0.0,0.0,0.0,0.0,0.0,0.0,0.0,0.0,0.0,0.1373,0.2817,0.4179,0.6227,0.8353,1.0406,1.1021,1.163,1.2245,1.2245,1.2245,1.2245,1.2245,1.2245,1.2239,1.2152,1.192,1.1623,1.1399,1.1227,1.1155,1.1155,1.1102,1.1227,1.2565,1.2883,1.2943,1.5483,1.6126,1.6116,1.7806,1.8688,1.9195,1.9715,2.0209,2.0591,2.0591,2.0591,2.0591,2.0591,2.0591,2.0345,1.9319,1.9888,2.0468,1.9962,2.0283,2.0455,1.9962,2.027,2.027,1.9257,1.9517,1.9715,1.9195,1.9134,1.9134,1.9134,1.9134,1.9134,1.9134,1.9134,1.9134,1.9134,1.9134,1.9134,1.9134,1.9134,1.8066,1.5665,1.6681,1.7317,1.7317,1.8501,1.9134,1.9134,1.9579,1.9838,1.99,2.1517,2.2232,-0.8282,-0.8629,-0.9124,-0.9124,-0.95,-1.0077,-1.0673,-1.0352,-1.0254,-1.1407,-1.01,-0.8126,-0.601,-0.5386,-0.534,-0.5552,-0.5574,-0.5031,-0.3341,-0.3047,-0.2287,-0.0229,0.0,0.0,0.0,0.0,0.0,0.0,0.0,0.0,0.0,0.0,0.0076,0.0076,0.2057,0.4108,0.6072,0.8122,1.018,1.2245,1.2245,1.2245,1.2245,1.2245,1.2245,1.2225,1.1854,1.1649,1.1623,1.1399,1.1115,1.0871,1.0871,1.0753,1.0494,1.0494,1.0559,1.0559,1.0552,1.0552,1.0867,1.256,1.4204,1.5917,1.7578,1.927,2.0591,2.0591,2.0591,2.0591,2.0591,2.0591,1.9764,1.6419,1.8191,2.0147,1.8463,1.9406,2.0085,1.84,1.9455,1.9517,1.6168,1.7005,1.7505,1.5854,1.5602,1.5602,1.5602,1.5602,1.5602,1.5602,1.5602,1.5602,1.5602,1.5602,1.5602,1.5602,1.5602,1.5602,1.5539,1.5539,1.5602,1.5602,1.5602,1.5602,1.5602,1.7255,1.8089,1.8151,1.9838,2.0652,-0.9666,-0.9658,-0.9764,-1.0236,-0.9982,-0.9843,-1.0494,-1.0878,-1.1092,-1.1142,-1.0785,-1.0269,-0.9632,-0.8628,-0.7953,-0.8002,-0.6816,-0.5695,-0.5149,-0.509,-0.4862,-0.4179,-0.4104,-0.4104,-0.4104,-0.4104,-0.3574,-0.2209,-0.2133,-0.1525,-0.0076,0.0,0.0687,0.2057,0.2743,0.4032,0.5996,0.6677,0.8046,1.0105,0.8651,0.8731,1.0099,0.9924,1.0593,1.1847,1.1544,1.1313,1.1128,1.1036,1.0825,1.0627,1.0627,1.0567,1.0487,1.0487,1.0487,1.0674,1.1808,1.2249,1.2496,1.4204,1.5088,1.5665,1.6168,1.6743,1.717,1.717,1.8004,1.8587,1.7431,1.717,1.6858,1.5791,1.6357,1.6983,1.6492,1.6743,1.6983,1.643,1.6806,1.6795,1.5728,1.598,1.6178,1.5602,1.5539,1.5539,1.5539,1.5539,1.5539,1.5539,1.5539,1.5539,1.5539,1.5539,1.5539,1.5539,1.3396,1.2072,1.2072,1.3197,1.3823,1.3823,1.4962,1.5539,1.5539,1.6116,1.6367,1.6367,1.6931,1.7754,-1.0809,-1.0849,-1.0846,-1.0816,-1.0806,-1.1079,-1.2146,-1.2217,-1.2065,-1.1973,-1.2256,-1.2348,-1.1688,-1.079,-1.0079,-1.0089,-0.9098,-0.8068,-0.7346,-0.7211,-0.6904,-0.6148,-0.5996,-0.5996,-0.5996,-0.5996,-0.5542,-0.4334,-0.3502,-0.2514,-0.122,-0.0458,0.061,0.1906,0.1906,0.2893,0.4938,0.4941,0.5569,0.6871,0.5541,0.5987,0.7974,0.7777,0.8375,0.9517,0.9905,0.9987,0.9898,1.0474,1.0653,1.0487,1.0487,1.0487,1.0487,1.0487,1.0487,1.0681,1.168,1.2057,1.2249,1.3269,1.4086,1.4583,1.4583,1.5025,1.5539,1.5539,1.6304,1.6555,1.4222,1.5044,1.6168,1.4899,1.6032,1.7108,1.5854,1.6043,1.6105,1.4836,1.5088,1.5161,1.3832,1.4149,1.4403,1.3714,1.3642,1.3642,1.3642,1.3642,1.3642,1.3642,1.3642,1.3642,1.3642,1.3642,1.3642,1.3642,1.1688,1.0487,1.0487,1.1495,1.2057,1.2057,1.3078,1.3642,1.3642,1.4267,1.4583,1.4646,1.5917,1.7067,-1.1751,-1.214,-1.2272,-1.1233,-1.2009,-1.3466,-1.501,-1.4078,-1.2999,-1.3547,-1.4059,-1.3916,-1.2401,-1.1948,-1.1812,-1.1847,-1.2188,-1.1712,-0.9662,-0.936,-0.8674,-0.6768,-0.6464,-0.6461,-0.645,-0.645,-0.6375,-0.6299,-0.4561,-0.3426,-0.3123,-0.1296,-0.0153,0.0,0.0,0.0914,0.2887,0.2887,0.2893,0.2897,0.2897,0.3886,0.5789,0.5779,0.5842,0.6046,0.739,0.7978,0.8097,0.9538,1.0094,1.0159,1.0223,1.0288,1.0294,1.0423,1.0487,1.0487,1.0487,1.0487,1.0487,1.0487,1.1552,1.287,1.287,1.395,1.5161,1.5161,1.5161,1.4466,1.131,1.3977,1.6754,1.357,1.6472,1.901,1.5854,1.643,1.6618,1.3443,1.414,1.4213,1.1053,1.1808,1.2305,1.0738,1.0487,1.0487,1.0487,1.0487,1.0487,1.0487,1.0487,1.0487,1.0487,1.0487,1.0416,1.0159,1.0094,1.0159,1.0288,1.0288,1.0352,1.0487,1.0487,1.0487,1.0487,1.2057,1.287,1.2934,1.6053,1.7578,-1.315,-1.3104,-1.3177,-1.3801,-1.458,-1.499,-1.4099,-1.3382,-1.2679,-1.2276,-1.2389,-1.2665,-1.2634,-1.298,-1.3332,-1.3562,-1.4075,-1.3875,-1.2055,-1.1856,-1.1617,-1.1148,-1.107,-1.0994,-1.0807,-1.0789,-1.0105,-0.8504,-0.7971,-0.6385,-0.3275,-0.2666,-0.1677,-0.0076,0.0,0.0227,0.0742,0.0742,0.073,0.0708,0.0708,0.1839,0.3811,0.3458,0.4246,0.5746,0.5851,0.5913,0.5975,0.6327,0.6502,0.6635,0.7934,0.8392,0.8586,0.9965,1.0487,1.0487,1.0487,1.0487,1.0487,1.0487,1.0738,1.1117,1.1117,1.1367,1.1695,1.1695,1.1695,1.1503,1.0674,1.1374,1.2072,1.131,1.2008,1.264,1.188,1.2008,1.2008,1.1246,1.1439,1.1439,1.061,1.0803,1.0925,1.0552,1.0487,1.0487,1.0487,1.0487,1.0487,1.0487,1.0487,1.0487,1.0487,1.0487,0.9372,0.6635,0.6502,0.7089,0.8327,0.8392,0.9043,1.0487,1.0487,1.0487,1.0487,1.0867,1.1117,1.1117,1.188,1.2959,-1.4422,-1.4686,-1.5179,-1.5784,-1.6211,-1.6319,-1.564,-1.4686,-1.3854,-1.3442,-1.3486,-1.3524,-1.3458,-1.4377,-1.4995,-1.4586,-1.4443,-1.4106,-1.3274,-1.2621,-1.2236,-1.2451,-1.2471,-1.2458,-1.2438,-1.2318,-1.1787,-1.0638,-0.9641,-0.8202,-0.6006,-0.4941,-0.3559,-0.15,-0.1425,-0.0964,0.0,-0.0785,-0.0771,0.0,0.0,0.0615,0.1706,0.1479,0.2002,0.3066,0.3737,0.3971,0.4033,0.488,0.527,0.5335,0.6242,0.6635,0.6765,0.774,0.8586,0.9372,1.0223,1.0487,1.0487,1.0487,1.0487,1.0487,1.0487,1.0487,1.0487,1.0487,1.0487,1.0487,1.0487,1.1053,1.168,1.168,1.2256,1.2632,1.1808,1.168,1.1431,1.0681,1.0487,1.0487,1.0487,1.0487,1.0487,1.0487,1.0487,1.0487,1.0487,1.0487,1.0487,1.0487,0.9765,0.9243,0.9243,0.8521,0.7283,0.54,0.527,0.5659,0.657,0.6635,0.7089,0.8064,0.8069,0.8069,0.8069,0.885,0.9243,0.9307,1.0911,1.2121,-1.5367,-1.6196,-1.7101,-1.701,-1.6997,-1.7114,-1.7542,-1.6467,-1.5367,-1.5367,-1.5367,-1.5133,-1.4473,-1.5594,-1.6412,-1.5673,-1.4544,-1.3899,-1.4071,-1.3269,-1.2607,-1.2655,-1.2731,-1.2682,-1.2577,-1.2385,-1.2245,-1.2245,-1.0633,-0.9491,-0.9189,-0.7413,-0.5538,-0.3525,-0.3436,-0.2592,-0.0839,-0.198,-0.1803,-0.0393,-0.0131,0.0,0.0,0.0,0.0,0.0066,0.1501,0.2151,0.2282,0.3778,0.4429,0.4491,0.4751,0.4815,0.4877,0.514,0.6178,0.7611,0.9178,0.983,1.0159,1.0416,1.0487,1.0487,1.0487,1.0487,1.0487,1.0487,1.0487,1.0487,1.0487,1.1552,1.2624,1.2624,1.3705,1.4403,1.2934,1.2624,1.2185,1.0803,1.0487,1.0487,1.0487,1.0487,1.0416,1.0094,1.0094,0.9965,0.9701,0.9701,0.9701,0.9701,0.8327,0.7417,0.7417,0.6048,0.501,0.4491,0.4429,0.4429,0.4429,0.4686,0.4945,0.527,0.527,0.527,0.527,0.67,0.7417,0.7477,1.0428,1.197,-1.5367,-1.6196,-1.701,-1.6579,-1.6449,-1.6488,-1.6566,-1.5959,-1.5367,-1.5367,-1.5367,-1.5326,-1.5212,-1.5843,-1.6789,-1.8079,-1.6732,-1.5584,-1.5612,-1.6312,-1.6145,-1.4591,-1.4777,-1.4337,-1.2476,-1.2272,-1.2245,-1.2245,-1.1938,-1.1021,-0.9264,-0.8634,-0.7422,-0.5281,-0.5028,-0.4785,-0.4419,-0.3151,-0.242,-0.2151,-0.0654,0.0,0.0,0.0,0.0,0.0,0.0262,0.0393,0.0393,0.0654,0.0785,0.0915,0.2413,0.293,0.3125,0.4686,0.54,0.5659,0.5983,0.6959,0.8457,0.9965,1.0487,1.0487,1.0487,1.0487,1.0487,1.0487,1.0487,1.0487,1.0487,1.0674,1.0867,1.0867,1.106,1.1182,1.0925,1.0867,1.0803,1.0552,1.0487,1.0487,1.0487,1.0487,0.9959,0.8392,0.8193,0.7676,0.6242,0.6048,0.6048,0.6048,0.5789,0.5659,0.5659,0.54,0.3973,0.0981,0.0785,0.0785,0.0785,0.2152,0.3646,0.5205,0.527,0.527,0.527,0.5529,0.5659,0.5659,0.6174,0.7209,-1.5972,-1.6491,-1.7062,-1.6803,-1.6738,-1.6738,-1.6738,-1.6296,-1.5881,-1.5881,-1.5587,-1.5367,-1.5367,-1.5894,-1.6684,-1.7725,-1.7681,-1.7434,-1.7136,-1.7434,-1.7433,-1.6633,-1.6748,-1.6121,-1.42,-1.3898,-1.3279,-1.2013,-1.1926,-1.148,-1.0367,-1.0173,-0.9196,-0.7035,-0.6879,-0.6774,-0.6635,-0.5789,-0.488,-0.3971,-0.3195,-0.2349,-0.1371,-0.1371,-0.085,0.0,0.0,0.0,0.0,0.0,0.0,0.0066,0.085,0.1176,0.1241,0.2088,0.2999,0.3773,0.3773,0.4945,0.657,0.7417,0.8263,0.9043,0.9043,0.8392,0.7676,0.7676,0.8327,0.8785,0.787,0.9043,1.0223,0.9243,0.9765,1.0487,1.0487,1.0487,1.0487,1.0487,1.0487,1.0487,1.0487,1.0487,1.0223,0.9372,0.8392,0.7481,0.67,0.5789,0.527,0.527,0.4358,0.3773,0.3773,0.208,0.0325,-0.1241,-0.1371,-0.1371,-0.1371,0.0261,0.1567,0.2414,0.2414,0.2414,0.2414,0.3323,0.3773,0.3773,0.4815,0.5659,-1.6751,0.0,-1.7296,-1.7491,-1.7413,-1.7361,0.0,-1.7372,-1.7042,-1.7372,-1.7049,-1.6589,-1.6223,-1.6584,-1.7104,-1.7656,-1.834,-1.8849,-1.8915,-1.8624,-1.8388,-1.8171,-1.8273,-1.7665,-1.59,-1.568,-1.484,-1.2915,-1.2399,-1.208,-1.1914,-1.1422,-1.0458,-0.8821,-0.8762,-0.8644,-0.8392,-0.7999,-0.7153,-0.5854,-0.5464,-0.4491,-0.3125,-0.2735,-0.1827,-0.0589,-0.0197,0.0,0.0,0.0,0.0,0.0,0.0,0.0,0.0,0.0,0.085,0.1956,0.1956,0.3125,0.4618,0.4618,0.5789,0.7153,0.7153,0.657,0.5854,0.5854,0.7089,0.8133,0.683,0.8457,1.0159,0.8715,0.9501,1.0487,1.0487,1.0487,1.0487,1.0487,1.0487,1.0487,1.0487,1.0487,1.0359,0.9894,0.8327,0.7024,0.6566,0.5075,0.4038,0.4038,0.2739,0.1956,0.1956,-0.1172,-0.3191,-0.3191,-0.3191,-0.3191,-0.3191,-0.1892,-0.1242,-0.1242,-0.1242,-0.1242,-0.1242,0.0521,0.1367,0.1367,0.3191,0.4231,0.0,-1.7814,-1.7969,-1.8569,-1.8296,-1.8161,-1.9517,-1.9329,0.0,-2.0414,-2.0613,-2.0186,-1.8859,-1.8654,-1.8877,-1.9539,-1.9193,-1.945,-2.1106,-2.092,-2.0045,-1.8582,-1.8893,-1.8424,-1.6469,-1.6724,-1.6683,-1.6068,-1.4544,-1.3652,-1.362,-1.1915,-1.0817,-1.073,-1.0463,-1.0314,-1.0288,-0.8656,-0.774,-0.7546,-0.5983,-0.5205,-0.501,-0.3321,-0.2476,-0.2281,-0.0654,0.0,0.0,0.0,0.0,0.0,0.0,0.0,0.0,0.0,0.0066,0.0197,0.0197,0.1306,0.2735,0.2735,0.3971,0.54,0.54,0.6437,0.7611,0.7611,0.8914,1.0288,1.0159,1.0288,1.0487,1.0359,1.0416,1.0487,1.0487,1.0487,1.0487,1.0487,1.0487,1.0487,1.0487,1.0487,0.9894,0.8198,0.6506,0.4815,0.3125,0.1437,0.0393,0.0393,0.0262,0.0197,0.0197,-0.3062,-0.5075,-0.5075,-0.5075,-0.5075,-0.5075,-0.4945,-0.488,-0.488,-0.488,-0.488,-0.488,-0.3058,-0.2149,-0.2149,-0.0392,0.1242,-1.7853,-1.8176,-1.8556,-1.8763,-1.9413,-1.9987,-2.0031,-2.0561,-2.1109,-2.1016,-2.097,-2.073,-1.986,-1.9222,-1.9212,-2.0362,-1.9946,-2.0436,-2.3226,-2.261,-2.2097,-2.2762,-2.1789,-2.0295,-1.8306,-1.8007,-1.7468,-1.617,-1.5502,-1.4593,-1.3361,-1.2643,-1.2183,-1.2183,-1.1116,-1.0487,-1.0487,-0.983,-0.9436,-0.9436,-0.885,-0.7934,-0.683,-0.6113,-0.5205,-0.4166,-0.3518,-0.2608,0.0,-0.1566,-0.098,0.0,0.0,0.0,0.0,0.0,0.0,0.0,0.0,0.0393,0.098,0.098,0.1438,0.2153,0.3258,0.3258,0.2936,0.2936,0.5013,0.6959,0.5854,0.7999,1.0223,0.9043,0.9701,1.0487,1.0487,1.0487,1.0487,1.0487,1.0487,1.0487,1.0487,1.0487,1.0288,0.9566,0.7089,0.501,0.4293,0.1763,-0.0393,-0.1436,-0.1566,-0.2023,-0.3195,-0.5468,-0.683,-0.683,-0.683,-0.683,-0.683,-0.5789,-0.527,-0.527,-0.527,-0.527,-0.527,-0.4556,-0.4231,-0.4166,-0.2413,-0.1239,-1.8923,-1.9492,-2.0014,-2.072,-2.1557,-2.2107,-2.1704,-2.2322,-2.2819,-2.2378,-2.2274,-2.2102,-2.1446,-2.0837,-2.0729,-2.17,-2.1399,-2.1967,-2.4575,-2.402,-2.3798,-2.502,-2.3965,-2.2396,-2.062,-1.9812,-1.8871,-1.749,-1.6899,-1.6048,-1.4728,-1.3633,-1.2998,-1.2998,-1.1367,-1.0487,-1.0487,-1.0487,-1.0487,-1.0487,-1.0487,-0.983,-0.8586,-0.8064,-0.7153,-0.6048,-0.5464,-0.4556,-0.3386,-0.3386,-0.2737,-0.1634,-0.1634,-0.1307,-0.0785,-0.0785,-0.0458,0.0,0.0,0.0,0.0,0.0,0.0,0.0196,0.1371,0.0522,-0.0589,0.0523,0.2934,0.5075,0.4358,0.6894,0.9436,0.8785,0.9566,1.0487,1.0487,1.0487,1.0487,1.0487,1.0487,1.0487,1.0487,1.0487,1.0288,0.9701,0.7153,0.501,0.4491,0.137,-0.1241,-0.2411,-0.306,-0.4358,-0.67,-0.7999,-0.8838,-0.9413,-0.9407,-0.9664,-1.0235,-0.9126,-0.8226,-0.7716,-0.7716,-0.7462,-0.6894,-0.6894,-0.6635,-0.6048,-0.4751,-0.3581,-2.1234,-2.1967,-2.2533,-2.4742,-2.4889,-2.4629,-2.4971,-2.4701,-2.4451,-2.4971,-2.5086,-2.4773,-2.3892,-2.3741,-2.3722,-2.3741,-2.3741,-2.4032,-2.4964,-2.5066,-2.4929,-2.4575,-2.4986,-2.4678,-2.3109,-2.2,-2.119,-2.063,-1.9022,-1.8089,-1.8089,-1.4899,-1.3061,-1.3061,-1.1431,-1.0552,-1.0552,-1.0552,-1.0552,-1.0552,-1.0487,-1.0487,-1.0423,-0.8656,-0.7805,-0.774,-0.6048,-0.527,-0.527,-0.527,-0.527,-0.527,-0.527,-0.4166,-0.254,-0.254,-0.1501,0.0,0.0,0.0,0.0,0.0,-0.0066,-0.0066,0.0,-0.1176,-0.1824,0.1562,0.3773,0.5594,0.7283,0.7805,0.8263,1.0094,1.0487,1.0487,1.0487,1.0487,1.0487,1.0487,1.0487,1.0487,1.0487,1.0487,0.983,0.8064,0.6307,0.4553,0.2735,-0.0456,-0.254,-0.2605,-0.4231,-0.67,-1.0223,-1.0552,-1.1239,-1.2934,-1.3061,-1.3823,-1.5476,-1.5539,-1.4773,-1.3061,-1.3061,-1.2185,-1.0552,-1.0487,-0.9566,-0.7805,-0.7805,-0.5918,-2.1004,-2.2025,-2.3053,-2.4809,-2.6005,-2.6378,-2.5307,-2.5373,-2.5563,-2.5162,-2.4564,-2.426,-2.4602,-2.4119,-2.393,-2.4564,-2.4659,-2.5179,-2.6513,-2.629,-2.6367,-2.7239,-2.6117,-2.5109,-2.4619,-2.33,-2.1954,-2.0727,-2.0147,-1.9331,-1.8151,-1.713,-1.6043,-1.4836,-1.4339,-1.346,-1.2312,-1.2249,-1.2249,-1.2249,-1.1053,-1.0487,-1.0487,-0.9959,-0.9701,-0.9636,-0.9178,-0.8198,-0.7024,-0.7024,-0.6311,-0.527,-0.527,-0.4945,-0.4426,-0.4426,-0.3321,-0.1762,-0.1762,-0.1762,-0.1762,-0.1762,-0.2673,-0.3453,-0.2152,-0.2151,-0.2086,0.0131,0.1112,0.222,0.5205,0.7805,0.983,1.0352,1.0487,1.0487,1.0487,1.0487,1.0487,1.0487,1.0487,1.0487,1.0487,0.9436,0.8392,0.787,0.527,0.2732,0.0974,-0.1171,-0.3449,-0.5983,-0.787,-0.9875,-1.2121,-1.2249,-1.3006,-1.471,-1.4773,-1.5025,-1.5539,-1.5539,-1.5287,-1.4836,-1.3633,-1.2743,-1.2249,-1.1053,-1.0223,-0.9701,-0.9701,-0.8457,-2.2237,-2.3339,-2.4381,-2.6564,-2.7859,-2.8077,-2.6397,-2.611,-2.6025,-2.5257,-2.4355,-2.4082,-2.5304,-2.4849,-2.4545,-2.5399,-2.5247,-2.5608,-2.7189,-2.7092,-2.7389,-2.89,-2.7909,-2.6873,-2.6288,-2.4797,-2.3184,-2.1653,-2.0946,-2.0147,-1.9146,-1.8463,-1.7641,-1.6555,-1.5917,-1.5035,-1.4014,-1.4014,-1.3697,-1.2998,-1.1993,-1.1182,-1.0487,-1.0487,-1.0487,-1.0487,-1.0487,-0.9894,-0.885,-0.885,-0.8263,-0.7352,-0.7352,-0.6894,-0.6242,-0.6242,-0.514,-0.3581,-0.3581,-0.3581,-0.3581,-0.3581,-0.527,-0.7024,-0.514,-0.4166,-0.3256,-0.1502,-0.0523,0.0458,0.261,0.5792,0.8785,1.0159,1.0487,1.0487,1.0487,1.0487,1.0487,1.0487,1.0487,1.0288,0.9572,0.8521,0.7283,0.5918,0.3316,0.091,-0.078,-0.312,-0.54,-0.7546,-0.9436,-1.0925,-1.1929,-1.2624,-1.376,-1.5476,-1.6168,-1.6869,-1.7556,-1.7556,-1.692,-1.5602,-1.452,-1.3379,-1.1993,-1.0989,-1.0487,-1.0487,-1.0487,-0.9894,-2.4266,-2.5239,-2.6053,-2.9141,-2.9955,-2.9462,-2.7795,-2.6791,-2.6025,-2.5257,-2.4355,-2.4279,-2.6077,-2.5743,-2.5466,-2.6383,-2.5895,-2.5893,-2.7321,-2.7606,-2.8212,-2.9784,-2.9955,-2.9369,-2.7975,-2.6389,-2.4916,-2.3484,-2.1774,-2.0823,-2.0823,-1.9208,-1.8214,-1.8089,-1.6743,-1.5917,-1.5791,-1.5791,-1.5025,-1.3506,-1.3316,-1.244,-1.0932,-1.0803,-1.0803,-1.0932,-1.0803,-1.0738,-1.0738,-1.0738,-1.0738,-1.0738,-1.0738,-0.9817,-0.8446,-0.8317,-0.7149,-0.572,-0.5526,-0.5464,-0.5464,-0.5464,-0.774,-1.0159,-0.8327,-0.657,-0.4877,-0.306,-0.1306,0.0066,0.0196,0.274,0.6113,0.9436,1.0352,1.0487,1.0487,1.0487,1.0487,1.0487,1.0352,0.9701,0.8064,0.7481,0.6178,0.2995,0.0975,-0.0844,-0.2538,-0.5724,-0.787,-0.7999,-0.9507,-1.0552,-1.0738,-1.2121,-1.376,-1.5476,-1.7005,-1.8587,-2.027,-2.0345,-1.901,-1.6043,-1.5728,-1.4022,-1.0932,-1.0681,-1.0487,-1.0487,-1.0487,-1.0487,-2.4235,-2.4928,-2.6053,-2.9141,-2.9955,-2.9462,-2.7795,-2.6791,-2.6025,-2.5257,-2.4355,-2.458,-2.7422,-2.6847,-2.663,-2.8509,-2.836,-2.8057,-2.8417,-2.9025,-2.95,-2.9917,-2.9955,-2.9785,-2.9482,-2.8033,-2.6972,-2.6605,-2.4008,-2.2414,-2.2414,-2.092,-1.9455,-1.8151,-1.9022,-1.8886,-1.7578,-1.7505,-1.7328,-1.7005,-1.5665,-1.4836,-1.4403,-1.307,-1.3197,-1.4403,-1.307,-1.2496,-1.2496,-1.2496,-1.2496,-1.2496,-1.2496,-1.3061,-1.3742,-1.2416,-1.0741,-0.9003,-0.7666,-0.7218,-0.7218,-0.7218,-0.872,-1.0159,-0.8327,-0.657,-0.4877,-0.306,-0.1306,0.0327,0.1632,0.3581,0.5789,0.787,0.9436,1.0487,1.0487,1.0487,1.0487,1.0487,0.9307,0.8263,0.787,0.5464,0.3386,0.267,-0.0065,-0.2602,-0.4426,-0.6502,-0.8327,-0.9765,-1.0288,-1.1053,-1.2368,-1.2807,-1.376,-1.5476,-1.5917,-1.6869,-1.8525,-1.8649,-1.8898,-1.9517,-1.692,-1.5224,-1.4466,-1.1816,-1.0487,-1.0487,-1.0487,-1.0487,-2.5648,-2.6162,-2.6989,-2.9312,-2.9955,-2.9632,-2.836,-2.7126,-2.6139,-2.5722,-2.4593,-2.4443,-2.6913,-2.6758,-2.675,-2.8252,-2.8281,-2.8284,-2.8737,-2.9101,-2.9518,-2.9917,-2.9955,-2.9955,-2.9955,-2.8493,-2.7628,-2.7628,-2.5432,-2.4083,-2.4083,-2.1896,-2.0209,-1.9331,-2.0147,-2.0147,-1.9282,-1.927,-1.8898,-1.8089,-1.7192,-1.6367,-1.5539,-1.4646,-1.471,-1.5476,-1.4646,-1.4204,-1.4204,-1.4204,-1.4204,-1.4204,-1.4204,-1.4267,-1.4204,-1.3379,-1.1914,-1.0255,-0.9366,-0.9108,-0.9108,-0.9108,-0.9701,-1.0159,-0.8327,-0.657,-0.4877,-0.306,-0.1306,0.0196,0.1111,0.2607,0.4361,0.6178,0.7934,0.9436,1.0288,1.0487,1.0487,1.0487,0.9701,0.8521,0.683,0.5075,0.3256,0.1566,-0.1628,-0.4166,-0.514,-0.67,-0.8133,-0.9108,-0.9965,-1.086,-1.1744,-1.256,-1.3379,-1.4267,-1.5088,-1.5917,-1.6817,-1.6869,-1.7255,-1.8191,-1.6419,-1.5161,-1.433,-1.2568,-1.1303,-1.0487,-1.0487,-1.0487,-2.7246,-2.7628,-2.7975,-2.9539,-2.9955,-2.9746,-2.893,-2.7677,-2.6702,-2.6781,-2.5505,-2.5055,-2.7357,-2.7404,-2.749,-2.8801,-2.8856,-2.8839,-2.9346,-2.9404,-2.9537,-2.9917,-2.9955,-2.9955,-2.9955,-2.8779,-2.8033,-2.8033,-2.6564,-2.5582,-2.5287,-2.2549,-2.0885,-2.0591,-2.0591,-2.0591,-2.0591,-2.0591,-1.99,-1.8525,-1.8525,-1.7754,-1.6419,-1.6105,-1.6168,-1.6419,-1.6105,-1.598,-1.598,-1.598,-1.598,-1.598,-1.598,-1.5151,-1.3887,-1.357,-1.2376,-1.0867,-1.061,-1.0487,-1.0487,-1.0487,-1.0487,-1.0159,-0.8327,-0.657,-0.4877,-0.306,-0.1306,0.0,0.0,0.1502,0.3386,0.488,0.6765,0.8656,1.0159,1.0487,1.0487,1.0487,1.0223,0.9108,0.6178,0.5205,0.3776,0.085,-0.2541,-0.4751,-0.4751,-0.5979,-0.7015,-0.7283,-0.8979,-1.003,-1.003,-1.1609,-1.256,-1.256,-1.3896,-1.4782,-1.5088,-1.5088,-1.5224,-1.5539,-1.5278,-1.4583,-1.3443,-1.287,-1.1993,-1.0925,-1.061,-1.0487,-2.7378,-2.7628,-2.7975,-2.9539,-2.9955,-2.9746,-2.893,-2.8569,-2.8542,-2.9011,-2.7954,-2.8345,-3.3121,-3.1961,-3.1424,-3.4916,-3.4436,-3.3247,-3.2126,-3.1963,-3.1452,-3.0069,-2.9955,-2.9955,-2.9955,-2.9728,-2.9615,-2.9615,-2.8205,-2.6681,-2.5346,-2.3604,-2.2004,-2.0652,-2.0591,-2.0591,-2.0591,-2.0591,-2.0468,-2.027,-2.027,-2.0147,-1.9888,-1.8389,-1.8513,-1.9826,-1.8389,-1.7766,-1.7766,-1.7766,-1.7766,-1.7766,-1.7766,-1.7578,-1.7255,-1.5728,-1.414,-1.2496,-1.0989,-1.0487,-1.0487,-1.0487,-1.0487,-1.0159,-0.8327,-0.657,-0.4877,-0.306,-0.1306,0.0,0.0,0.2414,0.4945,0.5205,0.774,1.0223,1.0423,1.0487,1.0487,1.0487,0.9243,0.7999,0.7546,0.488,0.2735,0.2281,-0.0716,-0.2865,-0.2865,-0.3116,-0.3824,-0.5396,-0.7089,-0.8133,-0.8133,-0.9824,-1.0803,-1.0803,-1.1053,-1.1808,-1.3316,-1.3379,-1.4077,-1.5539,-1.414,-1.395,-1.5214,-1.2256,-1.1495,-1.2624,-1.1182,-1.0487,-2.8564,-2.8894,-2.9084,-2.9785,-2.9955,-2.986,-2.9499,-2.9063,-2.8842,-2.9057,-2.8827,-2.9305,-3.1596,-3.1398,-3.1468,-3.3213,-3.2645,-3.1738,-3.1134,-3.1035,-3.0751,-3.005,-2.9955,-2.9955,-2.9955,-2.9955,-2.9955,-2.9955,-2.7686,-2.5978,-2.5287,-2.2958,-2.13,-2.0652,-2.0591,-2.0591,-2.0591,-2.0591,-2.0591,-2.0591,-2.0591,-2.0591,-2.0591,-1.9838,-1.99,-2.0591,-1.9838,-1.9529,-1.9529,-1.9529,-1.9529,-1.9529,-1.9529,-1.8327,-1.6555,-1.5791,-1.3896,-1.1495,-1.0738,-1.0487,-1.0487,-1.0487,-1.0487,-0.9965,-0.7218,-0.5854,-0.4686,-0.1892,-0.0589,0.0,0.0,0.1828,0.3971,0.501,0.7153,0.9243,1.0288,1.0487,1.0487,1.0487,0.983,0.8979,0.7934,0.6502,0.514,0.4166,0.1948,0.1037,0.2976,0.1552,-0.0388,-0.2141,-0.3826,-0.5256,-0.6242,-0.7934,-0.8979,-0.8979,-0.9959,-1.0803,-1.156,-1.1616,-1.2376,-1.4077,-1.3379,-1.3379,-1.414,-1.2632,-1.1808,-1.156,-1.0867,-1.0989,-2.8818,-2.9273,-2.9368,-2.9804,-2.9955,-2.9955,-2.9955,-2.948,-2.9153,-2.9536,-2.9616,-2.9851,-3.0602,-3.0974,-3.1325,-3.1795,-3.1445,-3.0985,-3.0619,-3.0561,-3.0448,-3.0012,-2.9955,-2.9955,-2.9955,-2.9955,-2.9955,-2.9955,-2.7048,-2.5464,-2.5877,-2.2549,-2.0762,-2.1178,-2.0823,-2.0591,-2.0591,-2.0591,-2.0591,-2.0591,-2.0591,-2.0591,-2.0591,-2.0591,-2.0591,-2.0591,-2.0591,-2.0591,-2.0591,-2.0591,-2.0591,-2.0591,-2.016,-1.8128,-1.5476,-1.5098,-1.3014,-1.0487,-1.0487,-1.0487,-1.0487,-1.0487,-1.0487,-0.983,-0.6307,-0.527,-0.4491,-0.0981,0.0,0.0,0.0,0.1633,0.3581,0.4945,0.6894,0.885,1.0223,1.0867,1.1117,1.1117,1.1503,1.136,0.9985,0.9395,0.8617,0.7384,0.5304,0.4975,0.8012,0.5756,0.3239,0.1492,-0.0194,-0.1943,-0.3766,-0.5454,-0.6821,-0.774,-0.9043,-1.003,-1.0487,-1.0487,-1.1117,-1.2376,-1.2368,-1.2624,-1.2998,-1.2998,-1.2624,-1.1816,-1.1816,-1.244,-2.7113,-2.7549,-2.7928,-2.95,-2.9955,-2.9955,-2.9955,-2.9917,-3.0292,-3.1591,-3.085,-3.0736,-3.3482,-3.2899,-3.2547,-3.4175,-3.4361,-3.3883,-3.2507,-3.2323,-3.1736,-3.0145,-2.9955,-2.9955,-2.9955,-2.9955,-2.9955,-2.9955,-2.7048,-2.5919,-2.7379,-2.3138,-2.13,-2.2762,-2.1348,-2.0591,-2.0591,-2.0591,-2.0591,-2.0591,-2.0591,-2.0591,-2.0591,-2.0591,-2.0591,-2.0591,-2.0591,-2.0591,-2.0591,-2.0591,-2.0591,-2.0468,-1.8836,-1.713,-1.535,-1.376,-1.1993,-1.0487,-1.0487,-1.0487,-1.0487,-1.0487,-1.0487,-0.983,-0.6307,-0.527,-0.4491,-0.0981,0.0,0.0,0.0,0.2545,0.514,0.5205,0.787,1.0352,1.0487,1.1744,1.287,1.287,1.4204,1.5287,1.5151,1.3699,1.2527,1.2464,0.9596,0.8141,0.996,0.8628,0.683,0.5137,0.3371,0.1554,-0.013,-0.1813,-0.4212,-0.7541,-0.787,-0.872,-1.0423,-1.0487,-1.0552,-1.061,-1.061,-1.1431,-1.2998,-1.2998,-1.3823,-1.5287,-1.5287,-1.535,-2.7392,-2.7833,-2.7814,-2.9481,-2.9955,-2.9955,-2.9955,-2.9955,-3.0068,-3.0612,-3.1004,-3.1596,-3.2622,-3.2423,-3.2262,-3.2892,-3.2215,-3.1428,-3.0924,-3.0808,-3.0599,-3.0031,-2.9955,-2.9955,-2.9955,-2.9955,-2.9955,-2.9955,-2.7975,-2.6564,-2.6095,-2.3544,-2.1882,-2.147,-2.0885,-2.0591,-2.0591,-2.0591,-2.0591,-2.0591,-2.0591,-2.0591,-2.0591,-2.0591,-2.0591,-2.0591,-2.0591,-2.0591,-2.0591,-2.0591,-2.0591,-2.0529,-1.9962,-1.8004,-1.5476,-1.4899,-1.2887,-1.0487,-1.0487,-1.0487,-1.0487,-1.0487,-1.0487,-0.983,-0.6307,-0.527,-0.4491,-0.0981,0.0,0.0262,0.1371,0.3453,0.5529,0.6635,0.9535,1.2121,1.2121,1.3451,1.4646,1.4646,1.5161,1.5539,1.5539,1.5006,1.4546,1.4546,1.5306,1.6149,1.6729,1.4465,1.1692,0.881,0.7889,0.6404,0.3637,0.0713,-0.1426,-0.2723,-0.4871,-0.6959,-0.8656,-0.8715,-0.9307,-1.0487,-1.0487,-1.0803,-1.1431,-1.1431,-1.2249,-1.395,-1.395,-1.5088,-2.5999,-2.6842,-2.734,-2.8724,-2.9481,-2.9955,-2.9955,-2.9955,-2.9955,-2.9955,-3.0668,-3.1339,-3.1339,-3.1339,-3.1339,-3.1339,-3.0575,-2.9955,-2.9955,-2.9955,-2.9955,-2.9955,-2.9955,-2.9955,-2.9955,-2.9955,-2.9955,-2.9955,-2.7975,-2.6564,-2.6095,-2.3604,-2.1943,-2.1409,-2.0885,-2.0591,-2.0591,-2.0591,-2.0591,-2.0591,-2.0591,-2.0591,-2.0591,-2.0591,-2.0591,-2.0591,-2.0591,-2.0591,-2.0591,-2.0591,-2.0591,-2.0468,-1.9319,-1.7556,-1.5413,-1.4276,-1.2448,-1.0487,-1.0487,-1.0487,-1.0487,-1.0487,-1.0094,-0.9043,-0.6113,-0.4815,-0.3711,-0.0785,0.0393,0.1111,0.2216,0.4293,0.6376,0.7481,1.0434,1.2998,1.2998,1.5195,1.7024,1.6482,1.7284,1.7896,1.7358,1.7709,1.8071,1.8071,2.0325,2.1846,2.1259,1.8322,1.5239,1.2393,1.2075,1.0664,0.7264,0.4791,0.2718,0.0972,-0.1882,-0.422,-0.5968,-0.7149,-0.8327,-0.9566,-1.0159,-1.0487,-1.0487,-1.1053,-1.1929,-1.3061,-1.3633,-1.5413,-2.286,-2.4401,-2.6405,-2.7227,-2.8667,-2.9917,-2.9917,-2.9936,-2.9955,-2.9955,-2.9955,-2.9955,-2.9955,-2.9955,-2.9955,-2.9955,-2.9955,-2.9955,-2.9955,-2.9955,-2.9955,-2.9955,-2.9955,-2.9955,-2.9955,-2.9955,-2.9898,-2.9898,-2.703,-2.5995,-2.7379,-2.3138,-2.1361,-2.2823,-2.1422,-2.0591,-2.0591,-2.0591,-2.0591,-2.0591,-2.0591,-2.0591,-2.0591,-2.0591,-2.0591,-2.0591,-2.0591,-2.0591,-2.0591,-2.0591,-2.0591,-2.027,-1.692,-1.5602,-1.5161,-1.1752,-1.0487,-1.0487,-1.0487,-1.0487,-1.0487,-1.0423,-0.9243,-0.7477,-0.5724,-0.3906,-0.2151,-0.0393,0.1241,0.254,0.267,0.5266,0.787,0.7934,1.0627,1.3188,1.3252,1.7032,2.0032,1.8564,2.0819,2.2535,2.1007,2.2004,2.2989,2.2989,2.4381,2.4809,2.3201,2.0148,1.7557,1.5907,1.5718,1.4249,1.0734,1.035,0.8141,0.3106,0.1102,-0.0583,-0.233,-0.5709,-0.7606,-0.7676,-0.9501,-1.0423,-1.0487,-1.2121,-1.2998,-1.3061,-1.471,-1.6367,-2.516,-2.5237,-2.5048,-2.7734,-2.874,-2.9082,-2.9082,-2.9537,-2.9955,-2.9955,-2.9955,-2.9955,-2.9955,-2.9955,-2.9955,-2.9955,-2.9955,-2.9955,-2.9955,-2.9955,-2.9955,-2.9955,-2.9955,-2.9955,-2.9955,-2.9955,-2.9482,-2.8321,-2.7437,-2.6154,-2.429,-2.3003,-2.1943,-2.1239,-2.0823,-2.0591,-2.0591,-2.0591,-2.0591,-2.0591,-2.0591,-2.0591,-2.0591,-2.0591,-2.0591,-2.0591,-2.0591,-2.0591,-2.0591,-2.0591,-2.0591,-2.0393,-1.8202,-1.6618,-1.5161,-1.1752,-1.0487,-1.0487,-1.0487,-1.0487,-1.0288,-0.8979,-0.8193,-0.7218,-0.4166,-0.293,-0.1889,0.0978,0.2151,0.3125,0.5659,0.7984,0.9908,1.126,1.4195,1.6983,1.8098,2.0386,2.2432,2.3169,2.4008,2.45,2.4038,2.4337,2.4619,2.4619,2.6914,2.8439,2.7876,2.6105,2.341,1.9516,1.9098,1.7726,1.4375,1.1756,0.9697,0.8269,0.5444,0.2984,0.1229,-0.0972,-0.3371,-0.5892,-0.7661,-0.9178,-1.0487,-1.0996,-1.1808,-1.3061,-1.3506,-1.4646,-2.3099,-2.3271,-2.3254,-2.5599,-2.617,-2.6626,-2.8395,-2.8569,-2.8702,-2.9746,-2.9955,-2.9955,-2.9955,-2.9955,-2.9955,-2.9955,-2.9955,-2.9955,-2.9955,-2.9955,-2.9955,-2.9955,-2.8798,-2.7975,-2.7975,-2.7975,-2.7628,-2.6681,-2.602,-2.484,-2.3064,-2.2293,-2.1531,-2.0652,-2.0591,-2.0591,-2.0591,-2.0591,-2.0591,-2.0591,-2.0591,-2.0591,-2.0591,-2.0591,-2.0591,-2.0591,-2.0591,-2.0591,-2.0591,-2.0591,-2.0221,-1.9393,-1.7692,-1.598,-1.414,-1.1503,-1.0487,-1.0487,-1.0487,-1.003,-0.9178,-0.8133,-0.6765,-0.5205,-0.3125,-0.1562,0.0,0.1954,0.3581,0.5205,0.7218,0.9593,1.1707,1.2799,1.6137,1.9332,2.0203,2.275,2.4959,2.5228,2.5802,2.6196,2.6146,2.6179,2.6897,2.8727,3.0029,3.0817,3.0719,2.8896,2.653,2.3693,2.287,2.1118,1.7873,1.5701,1.3933,1.2584,0.9254,0.6868,0.5816,0.2718,-0.0259,-0.2976,-0.4729,-0.6489,-0.8327,-0.8327,-0.8833,-0.9774,-0.9774,-0.9883,-1.8274,-1.9619,-2.1394,-2.2176,-2.2351,-2.3222,0.0,-2.669,-2.6348,-2.8645,-2.9271,-2.9423,-2.9537,-2.9708,-2.9822,-2.9822,-2.9898,-2.9955,-2.9955,-2.9785,-2.9728,-2.9898,-2.7495,-2.5684,-2.5523,-2.57,-2.5582,-2.505,-2.3903,-2.3064,-2.2702,-2.1361,-2.0591,-2.0591,-2.0591,-2.0591,-2.0591,-2.0591,-2.0591,-2.0591,-2.0591,-2.0591,-2.0591,-2.0591,-2.0591,-2.0591,-2.0591,-2.0591,-2.0591,-2.0393,-1.9468,-1.7891,-1.599,-1.4204,-1.256,-1.1053,-1.0487,-1.0487,-1.0288,-0.9108,-0.774,-0.7283,-0.5072,-0.2475,-0.2084,0.013,0.2605,0.2995,0.5526,0.8123,0.8317,1.094,1.357,1.357,1.723,2.0753,2.0935,2.4481,2.7263,2.6271,2.7147,2.8094,2.818,2.827,2.9785,3.404,3.3329,3.2369,3.2533,2.9935,2.813,2.813,2.6564,2.435,2.1469,2.0739,1.916,1.6283,1.2838,1.0862,1.0862,0.607,0.2588,0.0906,-0.097,-0.2851,-0.468,-0.468,-0.468,-0.468,-0.4874,-0.3632,0.0,0.0,0.0,0.0,0.0,0.0,0.0,-2.1944,-2.2514,-2.3735,-2.5086,-2.6196,-2.6861,-2.8076,-2.8968,-2.8968,-2.9518,-2.9955,-2.9955,-2.8855,-2.8493,-2.9785,-2.9369,-2.855,-2.728,-2.8263,-2.7477,-2.3649,-2.4262,-2.3739,-2.1178,-2.0762,-2.0591,-2.0591,-2.0591,-2.0591,-2.0591,-2.0591,-2.0591,-2.0591,-2.0591,-2.0591,-2.0591,-2.0591,-2.0591,-2.0591,-2.0591,-2.0591,-2.0529,-1.9146,-1.84,-1.7766,-1.471,-1.2504,-1.0925,-1.061,-1.0487,-1.0288,-0.8785,-0.8069,-0.7283,-0.4491,-0.306,-0.2019,0.0716,0.2019,0.3125,0.5983,0.8242,1.0165,1.1651,1.452,1.7067,1.7067,1.9812,2.2794,2.4052,2.602,2.8245,3.0329,3.102,3.1556,3.2682,3.292,3.3997,3.7173,3.544,3.4222,3.5388,3.2962,3.1188,3.1188,2.8743,2.6897,2.628,2.2661,2.0129,1.9529,1.6367,1.4511,1.4511,1.0842,0.7992,0.6283,0.3158,0.0711,-0.1033,-0.1033,-0.1033,-0.1033,-0.2393,0.0129,0.0,0.0,0.0,0.0,0.0,0.0,0.0,0.0,0.0,0.0,0.0,-2.2836,-2.3836,0.0,-2.7201,-2.7932,-2.9084,-2.9955,-2.9955,-2.9255,-2.8188,-2.6664,-2.5785,-2.4959,-2.4202,-2.484,-2.4306,-2.1943,-2.2489,-2.2261,-2.0714,-2.0591,-2.0591,-2.0591,-2.0591,-2.0591,-2.0591,-2.0591,-2.0591,-2.0591,-2.0591,-2.0591,-2.0591,-2.0591,-2.0591,-2.0591,-2.0591,-2.0591,-2.0468,-1.8773,-1.7067,-1.5287,-1.2759,-1.1239,-1.0352,-0.9501,-0.9114,-0.8914,-0.7153,-0.5918,-0.4747,-0.2145,-0.0715,0.0455,0.3124,0.4491,0.572,0.8306,1.0293,1.209,1.3815,1.6178,1.8089,1.8089,2.1185,2.4321,2.5109,2.7106,2.9407,3.1652,3.2059,3.2731,3.4914,3.5911,3.6865,3.8284,3.6636,3.5523,3.6275,3.4467,3.254,3.099,2.9859,2.8807,2.7629,2.4999,2.3581,2.3976,2.0238,1.7997,1.7997,1.4726,1.167,0.9074,0.7287,0.5169,0.2653,0.2653,0.3037,0.393,0.4751,0.6994,0.0,0.0,0.0,0.0,0.0,0.0,0.0,0.0,0.0,0.0,0.0,0.0,0.0,0.0,0.0,-2.5989,-2.7736,-2.8899,-2.9008,-2.9026,-2.7593,-2.3828,-2.2247,-2.1361,-2.1069,-2.13,-2.1252,-2.0652,-2.0885,-2.0946,-2.0652,-2.0591,-2.0591,-2.0591,-2.0591,-2.0591,-2.0591,-2.0591,-2.0591,-2.0591,-2.0591,0.0,-2.0591,-2.027,-2.0085,-2.0085,-1.9764,-1.9641,-1.9517,-1.814,-1.5791,-1.287,-1.1182,-1.0288,-0.9765,-0.7934,-0.7283,-0.7024,-0.4939,-0.3251,-0.1691,0.0325,0.195,0.3386,0.5205,0.67,0.0,1.0229,1.2154,1.3887,1.5602,1.7317,1.8637,1.8948,2.2204,2.5346,2.5641,2.79,3.0443,3.2149,3.2478,3.3416,3.6275,3.7538,3.8193,3.8194,3.7033,3.6206,3.6458,3.522,3.3331,3.0816,3.1151,3.0794,2.8875,2.7543,2.7135,2.7983,2.3667,2.0949,2.0666,1.7671,1.4525,1.1421,1.088,0.9468,0.7076,0.7076,0.779,0.9347,1.1369,1.2776,0.0,0.0,0.0,0.0,0.0,0.0,0.0,0.0,0.0,0.0,0.0,0.0,0.0,0.0,0.0,0.0,-2.3759,-2.5269,-2.572,-2.5802,-2.5566,-2.5109,-2.4872,-2.4202,-2.2823,-2.3903,-2.3574,-2.0823,-2.1882,-2.2051,-2.0714,-2.0591,0.0,0.0,0.0,-2.0591,-2.0591,-2.0591,-2.0591,-2.0591,-2.0591,-2.0591,-2.0529,-1.9022,-1.8338,-1.8264,-1.6806,-1.6105,-1.6105,-1.5917,-1.471,-1.287,-1.1182,-0.9507,-0.787,-0.6178,-0.5529,-0.5072,-0.1752,0.0,0.0,0.3574,0.4812,0.527,0.6959,0.7611,0.8446,1.1779,1.3941,1.5665,1.7328,1.9022,2.0626,2.2037,2.3844,2.5641,2.703,2.874,3.0705,3.347,3.3955,3.4838,3.7756,3.7605,3.7087,3.7087,3.6186,3.5842,3.6729,3.56,3.4597,3.4196,3.4004,0.0,3.3471,3.0208,2.8554,2.9445,2.5737,2.2882,2.1482,1.8994,1.6846,1.5136,1.2997,1.2399,1.354,1.354,1.3904,1.4625,1.1882,1.2576,0.0,0.0,0.0,0.0,0.0,0.0,0.0,0.0,0.0,0.0,0.0,0.0,0.0,0.0,0.0,0.0,-2.1838,-2.2321,-1.9073,-1.9735,-2.0607,-2.0725,-2.1827,-2.2307,-2.1653,-2.22,-2.2018,-2.0714,-2.1239,-2.13,-2.0652,-2.0591,-2.0591,-2.0591,-2.0591,-2.0591,-2.0591,-1.9653,-1.9146,-1.9146,-1.8128,-1.7681,-1.7619,-1.6931,-1.6618,-1.6555,-1.5854,-1.5539,-1.5476,-1.4457,-1.3697,-1.2671,0.0,0.0,0.0,0.0,-0.3963,-0.1687,0.1817,0.3053,0.3442,0.5915,0.67,0.7213,0.9985,1.0819,1.1516,1.4962,1.6492,1.738,1.9084,2.0736,2.2111,2.2762,2.5485,2.7811,2.7668,3.0142,3.2765,3.4008,3.4914,0.0,3.8109,3.8759,3.8986,3.8975,3.8571,3.8455,3.8898,3.78,3.6285,3.4498,3.4624,3.4258,3.2962,3.1754,0.0,0.0,0.0,2.7963,2.6377,2.4527,0.0,0.0,0.0,1.5207,1.4934,1.3006,0.0,0.0,1.4795,1.5025,0.0,0.0,0.0,0.0,0.0,0.0,0.0,0.0,0.0,0.0,0.0,0.0,0.0,0.0,0.0,0.0,-1.8333,-1.8453,-1.4023,-1.5007,-1.6314,-1.666,-1.8094,-1.9038,-1.9038,-1.9172,-1.9195,-1.9195,-1.9195,-1.9195,-1.9195,-1.9195,-1.9195,-1.9195,-1.9195,-1.9195,-1.9195,-1.8015,-1.738,-1.738,-1.6105,-1.5539,-1.5539,-1.5098,-1.4836,-1.4836,-1.4339,-1.4149,-1.4022,-1.2289,-1.1587,-1.1132,-0.6356,-0.4223,-0.3769,-0.331,-0.1167,0.1882,0.4874,0.5918,0.6307,0.8505,0.9214,0.9792,1.2799,1.3697,1.433,1.7255,1.8377,1.9109,2.0797,2.2414,2.3769,2.4615,2.7026,2.9163,2.9389,3.1627,3.3847,3.4648,3.6515,3.8215,3.8928,3.9866,4.0518,4.0503,3.9942,3.9641,3.9895,3.8825,3.724,3.5051,3.5594,3.5435,3.3858,3.3256,3.3468,3.4697,3.28,3.1259,3.0437,2.8734,2.6409,2.3463,2.036,1.8033,0.0,0.0,0.0,0.0,0.0,0.0,0.0,0.0,0.0,0.0,0.0,0.0,0.0,0.0,0.0,0.0,0.0,0.0,0.0,0.0,0.0,0.0,0.0,0.0,-1.2547,-1.3296,-1.4106,-1.4627,-1.4928,-1.5129,-1.5129,-1.5469,-1.5728,-1.5728,-1.5728,-1.5728,-1.5728,-1.5728,-1.5728,-1.5728,-1.5728,-1.5728,-1.5728,-1.5665,-1.5602,-1.5602,-1.5602,-1.5539,-1.5476,-1.3823,-1.3125,-1.2998,-1.1367,-1.0681,-1.0545,-0.8715,-0.7934,-0.7606,-0.4015,-0.1619,0.0065,0.1684,0.35,0.5335,0.7089,0.7676,0.8252,1.1715,1.287,1.3188,1.4962,1.5476,1.5854,1.7578,1.9147,2.0692,2.2446,2.4023,2.5962,2.8861,2.8574,2.8839,3.3103,3.3004,3.2949,3.5755,3.9374,4.1689,4.0707,4.0591,4.0624,4.0633,3.8676,0.0,3.8622,3.7705,3.6972,3.6851,3.7801,3.8386,3.8287,3.4811,3.3682,3.6142,3.2716,3.1015,3.1937,2.967,2.7308,2.5076,2.2763,2.1036,1.9865,0.0,0.0,0.0,0.0,0.0,0.0,0.0,0.0,0.0,0.0,0.0,0.0,0.0,0.0,0.0,0.0,0.0,0.0,0.0,0.0,0.0,0.0,0.0,0.0,-1.0069,-1.1687,-1.2318,-1.3596,-1.4474,-1.4474,-1.4717,-1.4919,-1.4919,-1.5275,-1.5539,-1.5539,-1.5539,-1.5539,-1.5539,-1.5539,-1.5539,-1.5539,-1.4457,-1.3887,-1.3887,-1.2759,-1.1538,-1.0364,-0.9792,-0.895,-0.7845,-0.7278,-0.7024,-0.6959,-0.6376,-0.4253,-0.1223,0.1102,0.2939,0.4336,0.4884,0.6829,0.9201,0.9751,1.0736,1.2175,1.4746,1.5881,1.6751,1.9515,2.0309,2.0687,2.2357,2.3214,2.3962,2.5495,2.7067,2.8729,3.0677,3.2293,3.3772,3.5208,3.6599,3.7864,3.8637,4.0621,4.1539,3.9575,4.1288,4.2368,4.0618,4.1159,4.1873,4.2222,4.117,4.0091,3.9359,3.9543,3.9427,3.8535,3.7289,3.6899,3.7735,3.5609,3.4535,3.4922,3.3183,3.189,3.1161,3.0394,2.7341,2.1941,0.0,0.0,0.0,0.0,0.0,0.0,0.0,0.0,0.0,0.0,0.0,0.0,0.0,0.0,0.0,0.0,0.0,0.0,0.0,0.0,0.0,0.0,0.0,0.0,0.0,0.0,-0.8709,-1.0036,0.0,-1.0837,-1.1098,-1.1263,-1.124,-1.1619,-1.1882,-1.1883,-1.1906,-1.1883,-1.1868,-1.1876,-1.1876,-1.1876,-1.0798,-1.0222,-1.0229,-0.9161,-0.7999,-0.6894,-0.6894,-0.5915,-0.4282,-0.4434,-0.4089,-0.3381,-0.1194,0.1468,0.4313,0.5861,0.6997,0.7965,0.904,1.0764,1.2553,1.3184,1.4176,1.5413,1.676,1.7933,1.9283,2.2045,2.2875,2.3128,2.4219,2.5504,2.679,2.8123,2.9869,3.1711,3.3106,3.4938,3.652,3.749,3.9055,4.0651,4.1876,4.2867,4.2629,3.986,4.1839,4.3012,4.0847,4.1989,4.3308,4.4046,4.2959,4.1878,4.1135,4.104,4.0542,3.9255,3.9181,3.8983,3.8559,3.7631,3.6842,3.6378,3.547,3.4371,3.3118,3.2323,2.899,0.0,0.0,0.0,0.0,0.0,0.0,0.0,0.0,0.0,0.0,0.0,0.0,0.0,0.0,0.0,0.0,0.0,0.0,0.0,0.0,0.0,0.0,0.0,0.0,0.0,0.0,0.0,-0.3996,-0.4409,0.0,0.0,0.0,0.0,-0.5125,-0.5109,-0.5139,-0.5116,-0.5093,-0.5056,-0.5084,-0.5036,-0.5043,-0.5049,-0.5049,-0.5049,-0.5049,-0.5049,-0.492,-0.4788,-0.4788,-0.3747,-0.1992,-0.2376,-0.1541,0.0491,0.6436,0.8842,0.8861,0.9951,1.0375,1.078,1.3848,1.505,1.5385,1.7213,1.7907,1.792,1.7839,1.9084,2.0825,2.252,2.3051,0.0,0.0,2.581,2.8911,3.0107,3.2324,3.4622,3.6177,3.6469,3.7139,4.0009,4.0435,4.1308,4.4883,4.5582,4.4489,4.0961,0.0,4.2129,4.0741,4.0849,4.1817,4.3828,4.3057,4.2312,4.2267,4.2267,4.1785,4.0615,4.0519,3.9988,3.8784,3.8635,3.8009,3.6636,3.644,3.4743,3.1265,2.9079,0.0,0.0,0.0,0.0,0.0,0.0,0.0,0.0,0.0,0.0,0.0,0.0,0.0,0.0,0.0,0.0,0.0,0.0,0.0,0.0,0.0,0.0,0.0,0.0,0.0,0.0,-0.0728,-0.0951,-0.1086,-0.152,-0.1935,0.0,0.0,0.0,0.0,0.0,0.0,-0.364,-0.3215,-0.2824,-0.2656,-0.2433,-0.2192,-0.194,-0.1941,-0.1941,-0.1941,-0.1941,-0.0726,0.1569,0.1569,0.3072,0.5714,0.5608,0.5825,0.6603,1.1078,1.249,1.1868,1.1581,1.156,1.2055,1.4392,1.6186,1.7706,1.9724,2.0977,2.1423,2.0237,2.0961,2.214,2.145,0.0,0.0,0.0,0.0,2.7758,3.1051,3.314,3.5191,3.8611,3.9376,4.0054,4.2622,4.314,4.2797,4.1866,4.1674,3.9435,3.2379,3.3079,0.0,3.4386,3.7286,4.0427,4.3044,4.4314,4.4583,4.3732,4.3643,4.3122,4.1832,4.1739,4.1599,4.1271,4.042,3.9794,3.9426,3.7541,3.5201,3.2448,0.0,0.0,0.0,0.0,0.0,0.0,0.0,0.0,0.0,0.0,0.0,0.0,0.0,0.0,0.0,0.0,0.0,0.0,0.0,0.0,0.0,0.0,0.0,0.0,0.0,0.0,0.0,0.1288,0.1719,0.2182,0.1752,0.1344,0.0,0.0,0.0,0.0,0.0,0.0,0.0,0.0,0.0,0.0901,0.1525,0.2081,0.2547,0.2809,0.308,0.3296,0.3296,0.4236,0.5936,0.5936,0.7625,1.0575,1.0068,1.0973,1.3024,1.487,1.5254,1.449,0.0,0.0,0.0,0.0,1.6391,1.7622,1.9591,2.1003,2.1702,2.0273,0.0,0.0,0.0,0.0,0.0,0.0,0.0,2.9478,3.2162,3.5364,3.8402,4.0654,4.1652,4.2577,4.4424,4.2164,3.9391,3.7966,3.7134,3.4656,2.8366,2.9018,0.0,0.0,0.0,3.9392,4.2405,4.4991,4.6305,4.5651,4.5171,4.4393,4.314,4.3049,4.275,4.2221,4.1579,4.069,3.9632,3.7078,3.4077,0.0,0.0,0.0,0.0,0.0,0.0,0.0,0.0,0.0,0.0,0.0,0.0,0.0,0.0,0.0,0.0,0.0,0.0,0.0,0.0,0.0,0.0,0.0,0.0,0.0,0.0,0.0,0.0,0.0,0.4243,0.5253,0.0,0.0,0.0,0.0,0.0,0.0,0.0,0.0,0.0,0.0,0.0,0.0,0.0,0.6477,0.7043,0.7673,0.8273,0.8727,0.8927,0.9108,0.9276,0.9276,1.0901,1.3711,1.272,0.0,1.926,1.7928,0.0,0.0,0.0,0.0,0.0,0.0,0.0,0.0,0.0,0.0,0.0,0.0,0.0,0.0,0.0,0.0,0.0,0.0,0.0,0.0,0.0,0.0,4.1054,4.1367,4.2443,4.3577,4.3999,3.8857,3.3971,3.3454,3.2275,3.0066,0.0,0.0,0.0,0.0,0.0,0.0,4.1576,4.518,4.7449,4.7449,4.65,4.5484,4.4422,4.4334,4.3865,4.275,4.1882,4.0464,3.8306,3.5724,0.0,0.0,0.0,0.0,0.0,0.0,0.0,0.0,0.0,0.0,0.0,0.0,0.0,0.0,0.0,0.0,0.0,0.0,0.0,0.0,0.0,0.0,0.0,0.0,0.0,0.0,0.0,0.0,0.0,0.0,0.0,0.0,0.0,0.0,0.0,0.0,0.0,0.0,0.0,0.0,0.0,0.0,0.0,0.0,0.0,0.0,0.0,0.0,0.0,0.0,1.0715,1.1904,1.3031,1.3031,1.4352,1.6601,1.6694,1.958,2.3785,1.9644,0.0,0.0,0.0,0.0,0.0,0.0,0.0,0.0,0.0,0.0,0.0,0.0,0.0,0.0,0.0,0.0,0.0,0.0,0.0,0.0,0.0,0.0,3.5094,3.6934,3.8686,3.9212,3.6473,0.0,0.0,0.0,0.0,0.0,0.0,0.0,0.0,0.0,0.0,0.0,3.958,4.4409,4.7449,4.7449,4.65,4.578,4.5612,4.5569,4.5456,4.5257,4.0388,3.7338,0.0,0.0,0.0,0.0,0.0,0.0,0.0,0.0,0.0,0.0,0.0,0.0,0.0,0.0,0.0,0.0,0.0,0.0,0.0,0.0,0.0,0.0,0.0,0.0,0.0,0.0,0.0,0.0,0.0,0.0,0.0,0.0,0.0,0.0,0.0,0.0,0.0,0.0,0.0,0.0,0.0,0.0,0.0,0.0,0.0,0.0,0.0,0.0,0.0,0.0,0.0,0.0,0.0,0.0,0.0,0.0,0.0,0.0,1.8354,1.8533,0.0,0.0,0.0,0.0,0.0,0.0,0.0,0.0,0.0,0.0,0.0,0.0,0.0,0.0,0.0,0.0,0.0,0.0,0.0,0.0,0.0,0.0,0.0,0.0,0.0,0.0,0.0,0.0,0.0,0.0,0.0,0.0,0.0,0.0,0.0,0.0,0.0,0.0,0.0,0.0,3.8761,4.4985,4.8807,4.8307,4.729,4.6429,4.5906,4.5864,4.5144,4.3474,3.9843,0.0,0.0,0.0,0.0,0.0,0.0,0.0,0.0,0.0,0.0,0.0,0.0,0.0,0.0,0.0,0.0,0.0,0.0,0.0,0.0,0.0,0.0,0.0,0.0,0.0,0.0,0.0,0.0,0.0,0.0,0.0,0.0,0.0,0.0,0.0,0.0,0.0,0.0,0.0,0.0,0.0,0.0,0.0,0.0,0.0,0.0,0.0,0.0,0.0,0.0,0.0,0.0,0.0,0.0,0.0,0.0,0.0,0.0,0.0,1.8537,1.6658,0.0,0.0,0.0,0.0,0.0,0.0,0.0,0.0,0.0,0.0,0.0,0.0,0.0,0.0,0.0,0.0,0.0,0.0,0.0,0.0,0.0,0.0,0.0,0.0,0.0,0.0,0.0,0.0,0.0,0.0,0.0,0.0,0.0,0.0,0.0,0.0,0.0,0.0,0.0,0.0,3.897,4.5936,5.0252,4.9395,4.8383,4.7449,4.6593,4.6511,4.5015,4.1525,3.8912,0.0,0.0,0.0,0.0,0.0,0.0,0.0,0.0,0.0,0.0,0.0,0.0,0.0,0.0,0.0,0.0,0.0,0.0,0.0,0.0,0.0,0.0,0.0,0.0,0.0,0.0,0.0,0.0,0.0,0.0,0.0,0.0,0.0,0.0,0.0,0.0,0.0,0.0,0.0,0.0,0.0,0.0,0.0,0.0,0.0,0.0,0.0,0.0,0.0,0.0,0.0,0.0,0.0,0.0,0.0,0.0,0.0,0.0,0.0,0.0,0.0,0.0,0.0,0.0,0.0,0.0,0.0,0.0,0.0,0.0,0.0,0.0,0.0,0.0,0.0,0.0,0.0,0.0,0.0,0.0,0.0,0.0,0.0,0.0,0.0,0.0,0.0,0.0,0.0,0.0,0.0,0.0,0.0,0.0,0.0,0.0,0.0,0.0,0.0,0.0,0.0,4.0434,4.6582,5.053,5.0393,4.9469,4.8801,4.8725,4.8694,4.6852,4.254,0.0,0.0,0.0,0.0,0.0,0.0,0.0,0.0,0.0,0.0,0.0,0.0,0.0,0.0,0.0,0.0,0.0,0.0,0.0,0.0,0.0,0.0,0.0,0.0,0.0,0.0,0.0,0.0,0.0,0.0,0.0,0.0,0.0,0.0,0.0,0.0,0.0,0.0,0.0,0.0,0.0,0.0,0.0,0.0,0.0,0.0,0.0,0.0,0.0,0.0,0.0,0.0,0.0,0.0,0.0,0.0,0.0,0.0,0.0,0.0,0.0,0.0,0.0,0.0,0.0,0.0,0.0,0.0,0.0,0.0,0.0,0.0,0.0,0.0,0.0,0.0,0.0,0.0,0.0,0.0,0.0,0.0,0.0,0.0,0.0,0.0,0.0,0.0,0.0,0.0,0.0,0.0,0.0,0.0,0.0,0.0,0.0,0.0,0.0,0.0,0.0,0.0,4.0756,4.7173,5.1151,5.06,5.0181,4.9682,4.9063,4.8988,4.6257,3.986,0.0,0.0,0.0,0.0,0.0,0.0,0.0,0.0,0.0,0.0,0.0,0.0,0.0,0.0,0.0,0.0,0.0,0.0,0.0,0.0,0.0,0.0,0.0,0.0,0.0,0.0,0.0,0.0,0.0,0.0,0.0,0.0,0.0,0.0,0.0,0.0,0.0,0.0,0.0,0.0,0.0,0.0,0.0,0.0,0.0,0.0,0.0,0.0,0.0,0.0,0.0,0.0,0.0,0.0,0.0,0.0,0.0,0.0,0.0,0.0,0.0,0.0,0.0,0.0,0.0,0.0,0.0,0.0,0.0,0.0,0.0,0.0,0.0,0.0,0.0,0.0,0.0,0.0,0.0,0.0,0.0,0.0,0.0,0.0,0.0,0.0,0.0,0.0,0.0,0.0,0.0,0.0,0.0,0.0,0.0,0.0,0.0,0.0,0.0,0.0,0.0,0.0,4.144,4.7708,5.1653,5.1015,5.0946,5.0638,4.9903,4.9451,4.6165,3.9054,0.0,0.0,0.0,0.0,0.0,0.0,0.0,0.0,0.0,0.0,0.0,0.0,0.0,0.0,0.0,0.0,0.0,0.0,0.0,0.0,0.0,0.0,0.0,0.0,0.0,0.0,0.0,0.0,0.0,0.0,0.0,0.0,0.0,0.0,0.0,0.0,0.0,0.0,0.0,0.0,0.0,0.0,0.0,0.0,0.0,0.0,0.0,0.0,0.0,0.0,0.0,0.0,0.0,0.0,0.0,0.0,0.0,0.0,0.0,0.0,0.0,0.0,0.0,0.0,0.0,0.0,0.0,0.0,0.0,0.0,0.0,0.0,0.0,0.0,0.0,0.0,0.0,0.0,0.0,0.0,0.0,0.0,0.0,0.0,0.0,0.0,0.0,0.0,0.0,0.0,0.0,0.0,0.0,0.0,0.0,0.0,0.0,0.0,0.0,0.0,0.0,0.0,4.2803,4.8332,5.1883,5.1883,5.1883,5.1883,5.1883,5.0569,4.7283,0.0,0.0,0.0,0.0,0.0,0.0,0.0,0.0,0.0,0.0,0.0,0.0,0.0,0.0,0.0,0.0,0.0,0.0,0.0,0.0,0.0,0.0,0.0,0.0,0.0,0.0,0.0,0.0,0.0,0.0,0.0,0.0,0.0,0.0,0.0,0.0,0.0,0.0,0.0,0.0,0.0,0.0,0.0,0.0,0.0,0.0,0.0,0.0,0.0,0.0,0.0,0.0,0.0,0.0,0.0,0.0,0.0,0.0,0.0,0.0,0.0,0.0,0.0,0.0,0.0,0.0,0.0,0.0,0.0,0.0,0.0,0.0,0.0,0.0,0.0,0.0,0.0,0.0,0.0,0.0,0.0,0.0,0.0,0.0,0.0,0.0,0.0,0.0,0.0,0.0,0.0,0.0,0.0,0.0,0.0,0.0,0.0,0.0,0.0,0.0,0.0,0.0,0.0,4.2778,4.6971,5.0143,5.1751,5.1883,5.1883,5.1883,5.1489,4.8365,4.1618,0.0,0.0,0.0,0.0,0.0,0.0,0.0,0.0,0.0,0.0,0.0,0.0,0.0,0.0,0.0,0.0,0.0,0.0,0.0,0.0,0.0,0.0,0.0,0.0,0.0,0.0,0.0,0.0,0.0,0.0,0.0,0.0,0.0,0.0,0.0,0.0,0.0,0.0,0.0,0.0,0.0,0.0,0.0,0.0,0.0,0.0,0.0,0.0,0.0,0.0,0.0,0.0,0.0,0.0,0.0,0.0,0.0,0.0,0.0,0.0,0.0,0.0,0.0,0.0,0.0,0.0,0.0,0.0,0.0,0.0,0.0,0.0,0.0,0.0,0.0,0.0,0.0,0.0,0.0,0.0,0.0,0.0,0.0,0.0,0.0,0.0,0.0,0.0,0.0,0.0,0.0,0.0,0.0,0.0,0.0,0.0,0.0,0.0,0.0,0.0,0.0,0.0,0.0,4.7579,5.0312,0.0,5.1883,5.1883,5.1883,5.139,4.8497,4.2381,0.0,0.0,0.0,0.0,0.0,0.0,0.0,0.0,0.0,0.0,0.0,0.0,0.0,0.0,0.0,0.0,0.0,0.0,0.0,0.0,0.0,0.0,0.0,0.0,0.0,0.0,0.0,0.0,0.0,0.0,0.0,0.0,0.0,0.0,0.0,0.0,0.0,0.0,0.0,0.0,0.0,0.0,0.0,0.0,0.0,0.0,0.0,0.0,0.0,0.0,0.0,0.0,0.0,0.0,0.0,0.0,0.0,0.0,0.0,0.0,0.0,0.0,0.0,0.0,0.0,0.0,0.0,0.0,0.0,0.0,0.0,0.0,0.0,0.0,0.0,0.0,0.0,0.0,0.0,0.0,0.0,0.0,0.0,0.0,0.0,0.0,0.0,0.0,0.0,0.0,0.0,0.0,0.0,0.0,0.0,0.0,0.0,0.0,0.0,0.0,0.0,0.0,0.0,4.9476,5.1718,5.1883,5.1883,5.1883,5.1883,5.0667,4.8006,4.3603,3.7952,0.0,0.0,0.0,0.0,0.0,0.0,0.0,0.0,0.0,0.0,0.0,0.0,0.0,0.0,0.0,0.0,0.0,0.0,0.0,0.0,0.0,0.0,0.0,0.0,0.0,0.0,0.0,0.0,0.0,0.0,0.0,0.0,0.0,0.0,0.0,0.0,0.0,0.0,0.0,0.0,0.0,0.0,0.0,0.0,0.0,0.0,0.0,0.0,0.0,0.0,0.0,0.0,0.0,0.0,0.0,0.0,0.0,0.0,0.0,0.0,0.0,0.0,0.0,0.0,0.0,0.0,0.0,0.0,0.0,0.0,0.0,0.0,0.0,0.0,0.0,0.0,0.0,0.0,0.0,0.0,0.0,0.0,0.0,0.0,0.0,0.0,0.0,0.0,0.0,0.0,0.0,0.0,0.0,0.0,0.0,0.0,0.0,0.0,0.0,0.0,0.0,0.0,4.8087,4.9938,5.1718,5.1883,5.1883,5.1883,5.1587,4.9089,4.3702,3.8863,0.0,0.0,0.0,0.0,0.0,0.0,0.0,0.0,0.0,0.0,0.0,0.0,0.0,0.0,0.0,0.0,0.0,0.0,0.0,0.0,0.0,0.0,0.0,0.0,0.0,0.0,0.0,0.0,0.0,0.0,0.0,0.0,0.0,0.0,0.0,0.0,0.0,0.0,0.0,0.0,0.0,0.0,0.0,0.0,0.0,0.0,0.0,0.0,0.0,0.0,0.0,0.0,0.0,0.0,0.0,0.0,0.0,0.0,0.0,0.0,0.0,0.0,0.0,0.0,0.0,0.0,0.0,0.0,0.0,0.0,0.0,0.0,0.0,0.0,0.0,0.0,0.0,0.0,0.0,0.0,0.0,0.0,0.0,0.0,0.0,0.0,0.0,0.0,0.0,0.0,0.0,0.0,0.0,0.0,0.0,0.0,0.0,0.0,0.0,0.0,0.0,0.0,4.5819,4.883,5.1586,5.1883,5.1883,5.1883,5.1883,4.945,4.3702,3.9958,0.0,0.0,0.0,0.0,0.0,0.0,0.0,0.0,0.0,0.0,0.0,0.0,0.0,0.0,0.0,0.0,0.0,0.0,0.0,0.0,0.0,0.0,0.0,0.0,0.0,0.0,0.0,0.0,0.0,0.0,0.0,0.0,0.0,0.0,0.0,0.0,0.0,0.0,0.0,0.0,0.0,0.0,0.0,0.0,0.0,0.0,0.0,0.0,0.0,0.0,0.0,0.0,0.0,0.0,0.0,0.0,0.0,0.0,0.0,0.0,0.0,0.0,0.0,0.0,0.0,0.0,0.0,0.0,0.0,0.0,0.0,0.0,0.0,0.0,0.0,0.0,0.0,0.0,0.0,0.0,0.0,0.0,0.0,0.0,0.0,0.0,0.0,0.0,0.0,0.0,0.0,0.0,0.0,0.0,0.0,0.0,0.0,0.0,0.0,0.0,0.0,0.0,0.0,4.8417,5.157,5.2105,5.2206,5.2111,5.2078,4.9603,4.3833,0.0,0.0,0.0,0.0,0.0,0.0,0.0,0.0,0.0,0.0,0.0,0.0,0.0,0.0,0.0,0.0,0.0,0.0,0.0,0.0,0.0,0.0,0.0,0.0,0.0,0.0,0.0,0.0,0.0,0.0,0.0,0.0,0.0,0.0,0.0,0.0,0.0,0.0,0.0,0.0,0.0,0.0,0.0,0.0,0.0,0.0,0.0,0.0,0.0,0.0,0.0,0.0,0.0,0.0,0.0,0.0,0.0,0.0,0.0,0.0,0.0,0.0,0.0,0.0,0.0,0.0,0.0,0.0,0.0,0.0,0.0,0.0,0.0,0.0,0.0,0.0,0.0,0.0,0.0,0.0,0.0,0.0,0.0,0.0,0.0,0.0,0.0,0.0,0.0,0.0,0.0,0.0,0.0,0.0,0.0,0.0,0.0,0.0,0.0,0.0,0.0,0.0,0.0,0.0,4.9029,5.1642,5.3084,5.3634,5.2952,5.2891,5.0345,4.4372,0.0,0.0,0.0,0.0,0.0,0.0,0.0,0.0,0.0,0.0,0.0,0.0,0.0,0.0]}],[{"header":{"parameterUnit":"kt","parameterCategory":2,"dx":1,"dy":1,"la1":29.285339999999998,"la2":30.599998999999997,"lo1":-89.70041500000002,"lo2":-87.6738589999976,"nx":112,"ny":82,"refTime":"2022-09-21T06:00:00:Z","depth":0,"parameterNumber":2,"parameterNumberName":"V-component_of_WINDS"},"data":[7.3926,7.5448,7.5088,6.5447,6.3069,6.0413,5.0181,4.8152,4.7977,4.643,4.6686,4.8036,5.0818,4.6004,4.176,4.2331,3.8816,3.4927,0.0,3.2702,0.0,3.5056,4.0369,4.514,4.8236,0.0,0.0,0.0,0.0,0.0,0.0,8.0842,8.2376,8.4514,8.4586,8.4586,8.4586,8.4175,8.4001,8.4001,8.2916,8.1996,8.1232,8.0479,7.9543,7.8517,7.8517,7.8311,7.794,7.794,7.794,7.794,7.794,7.794,7.7742,7.5852,7.5195,7.5195,7.5195,7.5195,7.5195,7.5195,7.5195,7.5195,7.5195,7.5195,7.5195,7.5195,7.5195,7.5195,7.5195,7.5195,7.5195,7.5195,7.5195,7.5195,7.5195,7.5195,7.5195,7.5195,7.5195,7.5195,7.5195,7.5195,7.4997,7.4504,7.4439,7.4636,7.5129,7.5195,7.5195,7.5195,7.5195,7.5195,7.5195,7.5195,7.5195,7.5195,7.5195,7.5195,7.5195,7.5195,7.5195,7.5195,7.5195,7.4932,7.4439,7.4439,7.4175,7.3636,7.2607,7.0638,6.8133,6.9799,6.968,5.8786,5.6552,5.4467,4.4627,4.2668,4.2465,4.0886,4.2905,4.4792,4.4288,4.1986,3.9812,3.8712,3.7277,3.5191,0.0,3.3339,0.0,3.6767,4.4474,5.0417,5.2342,0.0,0.0,0.0,6.6322,0.0,8.0164,8.1662,8.2947,8.4514,8.4586,8.4586,8.4586,8.4586,8.4586,8.4552,8.3861,8.3103,8.2354,8.1572,8.0651,7.9655,7.9655,7.9233,7.8469,7.8469,7.8262,7.7907,7.7446,7.7249,7.7049,7.528,7.4648,7.4648,7.4648,7.4426,7.4088,7.3788,7.3682,7.3682,7.3682,7.3682,7.3682,7.3682,7.3682,7.3682,7.3682,7.3682,7.3682,7.3682,7.3682,7.3682,7.3682,7.3682,7.3682,7.3682,7.3682,7.3682,7.3682,7.286,7.2367,7.286,7.2959,7.3123,7.3617,7.3682,7.3682,7.3682,7.3682,7.3682,7.3682,7.3682,7.3682,7.3682,7.3682,7.3682,7.3682,7.3682,7.3682,7.3682,7.3682,7.3452,7.2959,7.2959,7.2696,7.2124,7.2124,7.0646,6.3935,6.143,5.9465,5.0788,4.7575,4.5517,4.1718,4.1927,4.2561,4.111,4.311,4.4652,4.3254,4.1692,3.9561,3.6486,3.7446,0.0,0.0,3.6522,3.9172,4.0971,0.0,0.0,0.0,5.507,0.0,0.0,6.5027,6.7463,8.1413,8.2198,8.2947,8.4514,8.4514,8.4514,8.4586,8.4586,8.4586,8.4586,8.4514,8.4445,8.4412,8.4376,8.3754,8.2774,8.2774,8.1503,7.9419,7.9419,7.8834,7.7774,7.6391,7.5831,7.5802,7.6251,7.6471,7.6471,7.6471,7.5796,7.4782,7.391,7.361,7.361,7.361,7.3643,7.3597,7.3597,7.3551,7.3551,7.3551,7.3551,7.3551,7.3551,7.3551,7.3551,7.3551,7.3551,7.3551,7.3551,7.3551,7.3551,7.3551,7.1106,6.9693,7.1228,7.1459,7.1985,7.3353,7.3551,7.3551,7.3551,7.3551,7.3551,7.3551,7.3551,7.3551,7.3551,7.3551,7.3551,7.3551,7.3551,7.3551,7.3551,7.3551,7.2827,7.1459,7.1459,7.0657,6.92,6.92,6.92,5.5822,5.7044,5.8042,5.0833,5.0524,5.0226,4.3119,3.9883,3.8883,4.0835,3.8925,0.0,0.0,0.0,3.5687,3.6049,0.0,4.0188,3.6178,4.2747,0.0,0.0,0.0,0.0,0.0,6.7759,6.8712,7.6739,7.2565,7.2815,8.0164,8.1627,8.2947,8.4514,8.3446,8.3411,8.455,8.4586,8.4586,8.455,8.3411,8.2435,8.1563,8.04,7.9336,7.8319,7.8319,7.8004,7.7364,7.7364,7.72,7.6907,7.65,7.5727,7.4721,7.3816,7.3459,7.3459,7.3459,7.3309,7.3003,7.2766,7.2687,7.2687,7.2687,7.2162,7.1569,7.1569,7.1007,7.0416,7.0416,7.0416,7.0416,7.0416,7.0416,7.0416,7.0416,7.0416,7.0416,7.0416,7.0416,7.0416,7.0416,6.9726,6.9331,6.9803,6.9868,7.0,7.035,7.0416,7.0416,7.0416,7.0416,7.0416,7.0416,7.0416,7.0416,7.0416,7.0416,7.0416,7.0416,7.0416,7.0416,7.0416,7.0416,7.0219,6.9868,6.9868,6.9594,6.92,6.92,6.92,5.212,5.3269,5.4577,4.8596,4.9652,4.9951,4.1643,3.8709,3.791,3.8357,0.0,0.0,0.0,0.0,0.0,0.0,4.2716,0.0,0.0,0.0,5.9218,0.0,0.0,0.0,7.5349,7.2751,7.3406,7.945,7.492,7.4242,7.9597,8.0738,8.1662,8.259,8.1734,8.1698,8.259,8.259,8.259,8.259,8.1698,8.0869,8.0221,7.9303,7.8535,7.7967,7.7967,7.7711,7.7231,7.7231,7.6964,7.655,7.6175,7.5486,7.4683,7.3843,7.3528,7.3528,7.3528,7.3254,7.287,7.287,7.2331,7.1621,7.1621,7.0913,7.0083,7.0083,6.9652,6.92,6.92,6.92,6.92,6.92,6.92,6.92,6.92,6.92,6.92,6.92,6.92,6.92,6.92,6.92,6.92,6.92,6.92,6.92,6.92,6.92,6.92,6.92,6.92,6.92,6.92,6.92,6.92,6.92,6.92,6.92,6.92,6.92,6.92,6.92,6.92,6.92,6.92,6.92,6.92,6.92,6.92,6.92,5.1325,5.0278,5.0325,4.5735,4.6624,4.6839,3.9916,0.0,3.9483,3.7576,0.0,3.7022,3.9086,0.0,0.0,3.9654,0.0,0.0,5.1352,6.0972,6.7703,6.5895,7.4149,7.8857,7.6002,7.3825,7.4584,7.9388,7.4752,7.4044,7.9379,7.9597,7.9704,7.9883,7.9704,7.9704,7.9883,7.9883,7.9883,7.9883,7.9704,7.9597,7.9597,7.9419,7.9348,7.9348,7.9348,7.8754,7.7833,7.7833,7.7263,7.6356,7.5513,7.5241,7.5241,7.5241,7.5241,7.5241,7.5241,7.461,7.3826,7.3826,7.2693,7.1268,7.1268,7.0544,6.9704,6.9704,6.9652,6.9524,6.9524,6.9524,6.9557,6.9384,6.9384,6.9341,6.9244,6.92,6.92,6.92,6.92,6.92,6.92,6.92,6.92,6.92,6.92,6.92,6.92,6.92,6.92,6.92,6.92,6.92,6.92,6.92,6.92,6.92,6.92,6.92,6.92,6.92,6.92,6.92,6.92,6.92,6.92,6.92,6.92,6.92,6.92,6.9101,5.0689,4.9419,4.9119,4.6895,4.581,4.554,0.0,0.0,0.0,5.282,5.1175,4.969,5.4016,5.369,0.0,5.642,0.0,0.0,0.0,7.3329,0.0,8.0046,8.1665,8.2461,8.1223,8.071,7.9927,7.8734,7.8795,7.861,7.8054,7.7988,7.8594,7.9847,7.8666,7.863,7.9883,7.9883,7.9883,7.9883,7.863,7.7988,7.7952,7.6703,7.6133,7.6133,7.6133,7.6011,7.5786,7.5786,7.5692,7.5496,7.5304,7.5241,7.5241,7.5241,7.5241,7.5241,7.5241,7.5085,7.4928,7.4928,7.4676,7.4389,7.4389,7.3627,7.2836,7.2836,7.226,7.1697,7.1697,7.1697,7.1467,7.0666,7.0455,7.0208,6.9384,6.92,6.92,6.92,6.92,6.92,6.92,6.92,6.92,6.92,6.92,6.92,6.92,6.92,6.92,6.92,6.92,6.92,6.92,6.92,6.92,6.92,6.92,6.92,6.92,6.92,6.92,6.92,6.92,6.92,6.92,6.92,6.92,6.92,6.92,6.8576,4.8185,4.7405,4.7409,4.495,4.4314,0.0,0.0,4.3633,4.4194,5.2409,5.0839,5.0251,5.7717,5.9112,5.9897,6.2365,6.9489,7.4163,7.2805,7.9003,8.3377,8.2629,8.2517,8.2345,8.1957,8.1643,8.0545,7.8318,7.8323,7.7845,7.6479,7.6382,7.6739,7.7493,7.681,7.6775,7.7529,7.7529,7.7529,7.7529,7.6775,7.6382,7.6347,7.5597,7.5241,7.5241,7.5241,7.5241,7.5241,7.5241,7.5241,7.5241,7.5241,7.5241,7.5241,7.5241,7.5241,7.5241,7.5241,7.5241,7.5241,7.5241,7.5241,7.5115,7.461,7.4058,7.3559,7.3115,7.2295,7.154,7.154,7.1151,7.0592,7.0083,6.9991,6.9822,6.9298,6.92,6.92,6.92,6.8608,6.7928,6.7163,6.7623,6.8159,6.8159,6.8707,6.92,6.92,6.92,6.92,6.92,6.92,6.92,6.92,6.92,6.92,6.92,6.92,6.92,6.92,6.92,6.92,6.92,6.852,6.8487,6.92,6.7754,6.7031,6.7031,6.7031,6.6679,4.5634,4.5703,4.616,4.3123,4.313,0.0,4.4597,4.3703,4.4933,5.2446,5.2157,5.3092,6.1418,6.4047,6.5468,6.7076,7.403,7.9676,8.1043,8.123,8.1118,8.0797,8.076,8.076,8.076,8.0298,7.9489,7.8208,7.7042,7.609,7.5399,7.5294,7.5241,7.5241,7.5241,7.5241,7.5241,7.5241,7.5241,7.5241,7.5241,7.5241,7.5241,7.5241,7.5241,7.5241,7.5241,7.5241,7.5241,7.5241,7.5241,7.5241,7.5241,7.5241,7.5241,7.5241,7.5241,7.5241,7.5241,7.5241,7.5241,7.5241,7.5241,7.5085,7.4222,7.3993,7.3829,7.308,7.2258,7.1655,7.1655,7.1032,7.0306,7.0133,6.9957,6.9737,6.9557,6.9341,6.9133,6.8891,6.7956,6.6802,6.5601,6.6404,6.7086,6.6913,6.7929,6.8527,6.8389,6.8346,6.8346,6.8346,6.8346,6.8346,6.8346,6.8346,6.8346,6.8346,6.8346,6.8346,6.8346,6.8346,6.8346,6.8346,6.7238,6.7238,6.8346,6.6054,6.4936,6.4936,6.4936,6.4772,4.4838,4.5826,4.6581,4.4815,4.3326,0.0,5.3123,5.486,5.7777,6.8833,7.2048,7.3595,7.6101,7.6699,7.741,7.9077,8.0258,8.1059,8.123,8.123,8.0685,7.9205,7.9018,7.9018,7.9018,7.8935,7.8829,7.8642,7.8097,7.721,7.5975,7.5478,7.5241,7.5241,7.5241,7.5241,7.5241,7.5241,7.5241,7.5241,7.5241,7.5241,7.5241,7.5241,7.5241,7.5241,7.5241,7.5241,7.5241,7.5241,7.5241,7.5241,7.5241,7.5241,7.5241,7.5241,7.5241,7.5241,7.5241,7.5241,7.5241,7.5241,7.5241,7.5211,7.5085,7.5055,7.5055,7.4928,7.4836,7.4707,7.4707,7.4645,7.4321,7.339,7.2585,7.1697,7.0787,6.9864,6.89,6.7854,6.7535,6.7364,6.7193,6.7296,6.7179,6.6493,6.6473,6.6335,6.5479,6.5397,6.5397,6.5397,6.5397,6.5397,6.5397,6.5397,6.5397,6.5397,6.5397,6.5397,6.5397,6.5397,6.5397,6.5397,6.5232,6.5232,6.5397,6.5101,6.4936,6.4936,6.4936,6.4246,4.0941,4.2992,4.531,4.3654,0.0,0.0,5.3795,5.6004,5.9572,7.0216,7.2235,7.3768,7.919,8.0199,8.076,8.248,8.1059,7.9788,7.9788,7.9788,7.9526,7.8793,7.8719,7.8719,7.8719,7.8719,7.8719,7.8719,7.8221,7.7719,7.7188,7.6567,7.6074,7.568,7.5652,7.5528,7.5241,7.5241,7.5241,7.5241,7.5241,7.5241,7.5241,7.5241,7.5241,7.5241,7.5241,7.5241,7.5241,7.5241,7.5241,7.5241,7.5241,7.5241,7.5134,7.4206,7.3849,7.3707,7.2815,7.2494,7.2494,7.2494,7.2494,7.2494,7.2494,7.2494,7.2494,7.2494,7.2494,7.2342,7.1759,7.1156,7.0565,7.0129,6.975,6.936,6.8924,6.8475,6.7639,6.5875,6.5105,6.4615,6.4211,6.4928,6.5575,6.5682,6.6396,6.683,6.6428,6.6424,6.6424,6.6424,6.6424,6.6195,6.5756,6.5712,6.5475,6.4977,6.4936,6.4936,6.4936,6.4936,6.4936,6.4936,6.4936,6.4509,6.3694,6.2832,6.2438,6.2438,6.2438,6.2109,3.7905,0.0,0.0,0.0,0.0,0.0,5.7083,5.9418,6.2488,7.1009,7.2229,7.3506,7.9451,8.0573,8.0947,8.2181,8.0327,7.8719,7.8719,7.8719,7.8719,7.8719,7.8719,7.8719,7.8719,7.8719,7.8719,0.0,7.8379,7.8097,7.7949,7.7521,7.6952,7.6272,7.6272,7.5985,7.5421,7.5456,7.5376,7.5241,7.5241,7.5241,7.5241,7.5241,7.5241,7.5241,7.5241,7.5241,7.5205,7.4777,7.4599,7.4527,7.4099,7.3956,7.3814,7.2665,7.2273,7.2094,7.0924,7.0567,7.0567,7.0567,7.0567,7.0567,7.0567,7.0567,7.0567,7.0567,7.0567,7.0383,6.9629,6.884,6.8321,6.8321,6.8088,6.7886,6.7886,6.7395,6.6495,6.4866,6.4047,6.3463,6.2987,6.384,6.4693,6.502,6.5985,6.6576,6.6307,6.6273,6.6136,6.5894,6.5894,6.5573,6.4785,6.4709,6.4435,6.3793,6.3753,6.3753,6.3753,6.3753,6.3753,6.3753,6.3753,6.3227,6.2181,6.1161,6.0629,6.0629,6.0629,6.0629,0.0,0.0,0.0,5.057,5.2155,5.5162,6.6674,6.9055,7.0268,7.5368,7.7511,7.8532,7.8756,7.8793,7.8831,7.8868,7.8793,7.8719,7.8719,7.8719,7.8719,7.8719,7.8719,7.8719,7.8719,7.8719,7.8719,7.8719,7.8704,7.8478,7.7968,7.793,7.7602,7.6974,7.6952,7.6651,7.6002,7.5975,7.5735,7.5241,7.5241,7.5241,7.5241,7.5241,7.5241,7.5241,7.5241,7.5241,7.5098,7.3593,7.2951,7.2808,7.1281,7.071,7.071,7.0639,7.0639,7.0603,7.0567,7.0567,7.0567,7.0567,7.0567,7.0567,7.0567,7.0567,7.0567,7.0567,7.0567,7.0567,7.0503,7.0475,7.0475,7.0475,6.9724,6.897,6.897,6.725,6.5743,6.5672,6.5646,6.561,6.5575,6.561,6.5397,6.469,6.4609,6.4314,6.341,6.3314,6.2953,6.2069,6.1964,6.1675,6.0913,6.0799,6.0799,6.0761,6.0761,6.0761,6.0761,6.0761,6.0761,6.0761,6.0761,6.0728,6.0695,6.0662,6.0629,6.0629,6.0629,6.0629,4.0092,4.4913,5.0494,5.6113,5.9896,6.3573,6.8649,7.2175,7.4818,7.651,7.7982,7.899,7.899,7.899,7.899,7.899,7.8841,7.8719,7.8719,7.8719,7.8719,7.8719,7.8719,7.8719,7.8719,7.8719,7.8719,7.8719,7.8719,7.8658,7.8478,7.8462,7.8358,7.813,7.7799,7.7086,7.6028,7.6028,7.5762,7.5241,7.5241,7.5241,7.5241,7.5241,7.5241,7.5241,7.5241,7.4028,7.2066,7.153,7.1345,7.1281,7.0781,7.0567,7.0424,6.9291,6.8899,6.872,6.7677,6.7321,6.7321,6.7321,6.7321,6.7321,6.7321,6.7321,6.7321,6.7321,6.7321,6.7321,6.7321,6.7321,6.7321,6.7321,6.7033,6.6804,6.6804,6.5822,6.4905,6.4905,6.444,6.4199,6.482,6.4905,6.5024,6.5271,6.5298,6.5217,6.4869,6.4841,6.4757,6.4463,6.4399,6.4074,6.3305,6.2651,6.2071,6.1467,6.0941,6.0629,6.0629,6.0629,6.0629,6.0629,6.0629,6.0629,6.0629,6.0629,6.0629,6.0629,6.0629,6.0629,4.2749,4.7419,5.2772,6.1428,6.6394,6.9905,7.2829,7.5802,7.7949,7.7949,7.8621,7.9185,7.9185,7.9185,7.9185,7.9185,7.9046,7.8915,7.8896,7.8883,7.8827,7.8734,7.8719,7.8719,7.8719,7.8719,7.8719,7.8719,7.8719,7.8719,7.8719,7.8719,7.8719,7.8719,7.8412,7.7837,7.699,7.6801,7.632,7.5507,7.5507,7.5399,7.5205,7.4634,7.4384,7.4349,7.3814,7.2422,7.0496,6.9925,6.9675,6.9604,6.9033,6.8819,6.8676,6.7606,6.7187,6.7044,6.6036,6.5715,6.5715,6.5715,6.5715,6.5715,6.5715,6.5715,6.5715,6.5715,6.5715,6.5715,6.5715,6.5715,6.5715,6.5715,6.5715,6.5715,6.5715,6.5298,6.4933,6.4933,6.4469,6.4258,6.4848,6.4933,6.5135,6.5627,6.5715,6.5715,6.5715,6.5715,6.5575,6.5298,6.5271,6.4933,6.4114,6.3241,6.2415,6.1863,6.1355,6.0941,6.0667,6.0904,6.0941,6.0667,6.0629,6.0136,5.9121,5.9121,5.9121,5.9121,5.9121,5.9121,4.5179,4.8254,5.2127,6.6744,7.1641,7.4147,7.8969,7.9899,7.9735,7.9735,7.9519,7.9326,7.9333,7.9326,7.9318,7.9318,7.9311,7.9268,7.9139,7.9132,7.9027,7.8793,7.8749,7.8734,7.8719,7.8719,7.8719,7.8719,7.8719,7.8719,7.8719,7.8719,7.8719,7.8719,7.8719,7.8719,7.8719,7.8204,7.728,7.5909,7.5836,7.5564,7.5008,7.3508,7.2787,7.2636,7.1044,7.0337,7.023,6.8605,6.7936,6.7757,6.6286,6.5715,6.5715,6.5715,6.5715,6.5715,6.5715,6.5715,6.5715,6.5715,6.5715,6.5715,6.5715,6.5715,6.5715,6.5715,6.5715,6.5715,6.5715,6.5715,6.5715,6.5715,6.5715,6.5715,6.5715,6.5715,6.5715,6.5715,6.5715,6.5715,6.5715,6.5715,6.5715,6.5715,6.5715,6.5644,6.5573,6.5644,6.5406,6.4572,6.4556,6.4234,6.3368,6.2483,6.1934,6.1934,6.1933,6.1541,6.0687,6.1333,6.13,6.0513,6.0513,5.9199,5.6499,5.6428,5.6428,5.6428,5.6393,5.6357,5.1557,5.9492,6.606,7.3729,7.688,7.8475,7.9804,8.003,7.9989,7.9989,7.9793,7.9674,7.9852,7.9739,7.9609,7.9609,7.9439,7.9288,7.9268,7.926,7.9207,7.9039,7.9028,7.8939,7.8749,7.8719,7.8719,7.8719,7.8719,7.8719,7.8719,7.8719,7.8719,7.8719,7.8719,7.8719,7.8719,7.8204,7.6894,7.4834,7.3656,7.303,7.2866,7.21,7.1318,7.0438,6.8423,6.7521,6.7461,6.6637,6.6286,6.625,6.5858,6.5715,6.5715,6.5715,6.5715,6.5715,6.5715,6.5715,6.5715,6.5715,6.5715,6.5715,6.5715,6.5715,6.5715,6.5715,6.5715,6.5715,6.5715,6.5715,6.5715,6.5715,6.5715,6.5715,6.5715,6.5715,6.5715,6.5715,6.5715,6.5715,6.5715,6.5715,6.5715,6.5715,6.5715,6.5287,6.4084,6.5002,6.5173,6.3816,6.4704,6.5298,6.5072,6.4322,6.3836,6.3836,6.3241,6.2206,6.085,6.0416,5.9605,5.8225,5.8762,5.8682,5.7967,5.7387,5.7122,5.7088,5.6606,5.6357,4.9925,5.9682,6.9515,7.6842,7.9386,8.007,8.007,8.007,8.007,8.007,7.9987,7.9902,8.0069,7.9987,7.9855,7.9855,7.9746,7.9614,7.9513,7.9502,7.9399,7.9216,7.9187,7.9127,7.9011,7.894,7.8923,7.8923,7.877,7.8719,7.8719,7.8083,7.7709,7.7709,7.6998,7.6587,7.6587,7.6304,7.5515,7.4189,7.3018,7.2353,7.2079,7.1098,6.9939,6.8663,6.7125,6.6353,6.6102,6.5799,6.5715,6.5715,6.5715,6.5715,6.5715,6.5715,6.5715,6.5715,6.5715,6.5715,6.5715,6.5715,6.5715,6.5715,6.5715,6.5715,6.5715,6.5715,6.5715,6.5715,6.5715,6.5715,6.5715,6.5715,6.5715,6.5323,6.3931,6.3646,6.3646,6.3646,6.3646,6.3646,6.3646,6.3646,6.3646,6.3646,6.3646,6.3325,6.2469,6.3111,6.3325,6.2433,6.3111,6.3646,6.3646,6.2955,6.2477,6.2477,6.2009,6.1144,5.9851,5.9786,5.9127,5.7903,5.7038,5.6477,5.6119,5.5655,5.5277,5.4954,5.4587,5.4416,4.6959,5.6037,6.7579,7.7336,7.9918,8.007,8.007,8.007,8.007,8.007,8.007,8.007,8.007,8.007,8.007,8.007,8.007,7.9991,7.9755,7.9746,7.967,7.9368,7.9385,7.9258,7.9001,7.8895,7.8714,7.8525,7.8275,7.8119,7.8119,7.6789,7.6063,7.6063,7.4628,7.388,7.388,7.388,7.3768,7.3506,7.294,7.2358,7.1651,7.0295,6.8938,6.7614,6.6999,6.6446,6.6051,6.5951,6.5875,6.5809,6.5809,6.5757,6.5715,6.5715,6.5715,6.5715,6.5715,6.5715,6.5644,6.5465,6.5394,6.5358,6.5144,6.5073,6.5073,6.5073,6.5073,6.5073,6.5073,6.5073,6.5073,6.5073,6.5073,6.4324,6.1637,6.103,6.103,6.103,6.103,6.103,6.103,6.103,6.103,6.103,6.103,6.0959,6.0745,6.0923,6.0959,6.0745,6.0923,6.103,6.103,6.043,6.0033,6.0033,6.0033,5.9593,5.8568,5.921,5.9133,5.8263,5.5787,5.4166,5.3513,5.3396,5.3009,5.2332,5.2142,5.2078,5.7746,6.3051,6.8756,7.6159,7.9044,8.007,8.007,8.007,8.007,8.007,8.007,8.007,8.007,8.007,8.007,8.007,8.007,8.0069,8.003,8.0029,7.9942,7.9674,7.9623,7.9049,7.7533,7.7366,7.6775,7.536,7.4996,7.4842,7.4842,7.4518,7.4292,7.4292,7.403,7.388,7.388,7.388,7.317,7.1773,7.1665,7.0883,6.9542,6.9244,6.8998,6.8722,6.8151,6.7872,6.7763,6.734,6.6842,6.6353,6.6353,6.6089,6.5715,6.5715,6.5715,6.5715,6.5715,6.5715,6.5501,6.4191,6.3763,6.3514,6.2219,6.1827,6.1827,6.1827,6.1827,6.1827,6.1827,6.1827,6.1827,6.1827,6.1827,6.1708,6.1173,6.103,6.103,6.103,6.103,6.103,6.103,6.103,6.103,6.103,6.103,6.0566,5.9258,6.0245,6.0531,5.9258,6.0257,6.103,6.103,6.0909,6.0835,6.0835,6.0835,6.0181,5.872,5.8178,5.7554,5.6757,5.6273,5.5943,5.5789,5.5144,5.4776,5.461,5.3421,5.2861,5.6898,6.2027,6.7153,7.2231,7.6156,7.8779,7.8779,7.9462,7.9309,7.6601,7.6763,7.7184,7.6311,7.6842,7.745,7.745,7.745,7.745,7.745,7.745,7.7411,7.7283,7.728,7.6928,7.6052,7.5837,7.5411,7.4616,7.4372,7.4245,7.4245,7.3297,7.2759,7.2759,7.1844,7.1324,7.1324,7.1324,7.0913,7.0128,7.0128,6.9717,6.9006,6.9006,6.886,6.8596,6.8357,6.8066,6.7818,6.7537,6.728,6.6978,6.6978,6.6842,6.6587,6.6223,6.5598,6.4867,6.4568,6.3967,6.3147,6.2397,6.2148,6.2005,6.128,6.103,6.103,6.103,6.103,6.103,6.103,6.103,6.103,6.103,5.9793,5.8616,5.8616,5.8616,5.8616,5.8616,5.8616,5.8616,5.8616,5.8616,5.8616,5.8616,5.8616,5.833,5.7558,5.8152,5.833,5.7558,5.8164,5.8616,5.8616,5.8616,5.8616,5.8616,5.8616,5.8295,5.7523,5.7136,5.6758,5.6359,5.6381,5.6187,5.5754,5.5368,5.5042,5.4679,5.3571,5.3073,5.4282,5.9752,6.5381,6.8855,7.2822,7.6035,7.6718,7.7629,7.7207,7.3147,7.3708,7.4562,7.3274,7.4147,7.502,7.502,7.502,7.502,7.502,7.502,7.502,7.502,7.502,7.4906,7.4527,7.4317,7.4058,7.3679,7.3528,7.3431,7.3431,7.2054,7.122,7.122,6.9817,6.9048,6.9048,6.9009,6.9006,6.9006,6.9006,6.9006,6.9006,6.9006,6.878,6.8404,6.8404,6.8171,6.78,6.78,6.7524,6.708,6.708,6.6784,6.6298,6.5794,6.4822,6.3705,6.3284,6.2353,6.1241,6.0815,6.072,6.0625,6.0162,6.0007,6.0007,6.0007,6.0007,6.0007,6.0007,6.0007,6.0007,6.0007,5.8164,5.6381,5.6381,5.6381,5.6381,5.6381,5.6381,5.6381,5.6381,5.6381,5.6381,5.6381,5.6381,5.6381,5.6381,5.6381,5.6381,5.6381,5.6381,5.6381,5.6381,5.6381,5.6381,5.6381,5.6381,5.6381,5.6381,5.6381,5.6381,5.6381,5.6381,5.6059,5.5477,5.5477,5.5204,5.4687,5.388,5.3508,5.6237,6.0559,6.5353,6.8739,6.9962,7.1071,7.4063,7.3652,7.2592,7.2379,7.3565,7.4719,7.4792,7.4944,7.502,7.502,7.502,7.502,7.502,7.502,7.502,7.502,7.502,7.4413,7.2894,7.2704,7.2058,7.0539,7.0275,7.0228,7.0228,6.981,6.9608,6.9608,6.9317,6.9181,6.9181,6.9048,6.9006,6.9006,6.9006,6.9006,6.9006,6.9006,6.8993,6.8915,6.8915,6.8901,6.8874,6.8874,6.7666,6.5838,6.5838,6.4646,6.2836,6.278,6.2651,6.2541,6.2484,6.2411,6.1968,6.0183,5.9604,5.9267,5.7359,5.6809,5.6809,5.6809,5.6809,5.6809,5.6809,5.6809,5.6809,5.6809,5.6595,5.6381,5.6381,5.6381,5.6381,5.6381,5.6381,5.6381,5.6381,5.6381,5.6381,5.6381,5.6381,5.6381,5.6381,5.6381,5.6381,5.6381,5.6381,5.6381,5.6381,5.6381,5.6381,5.6381,5.6381,5.6381,5.6381,5.6381,5.6381,5.6381,5.6381,5.6336,5.6255,5.6255,5.6233,5.6164,5.5379,5.5007,5.0411,5.4498,5.8925,6.1372,6.4218,6.7073,6.9465,6.9299,6.8696,6.8871,7.0279,7.1228,7.0401,7.0299,7.0668,7.1692,7.1104,7.0806,7.1831,7.1983,7.1983,7.1983,7.1983,7.1717,7.1034,7.0996,7.0692,7.0047,6.9929,6.9884,6.9884,6.9708,6.954,6.9408,6.9277,6.9177,6.9097,6.9035,6.9006,6.9006,6.9006,6.9006,6.9006,6.9006,6.9006,6.9006,6.9006,6.8408,6.7412,6.6403,6.5452,6.466,6.466,6.4116,6.3295,6.2992,6.2266,6.1405,6.0819,6.0025,5.9074,5.7966,5.7629,5.7478,5.6627,5.6381,5.6381,5.6381,5.6381,5.6381,5.6381,5.6381,5.6381,5.6381,5.6381,5.6381,5.6381,5.6381,5.6381,5.6381,5.6381,5.6381,5.6381,5.6381,5.6381,5.6381,5.6381,5.6381,5.6381,5.6381,5.6381,5.6381,5.6381,5.6381,5.6381,5.6381,5.6381,5.6381,5.6381,5.6618,5.7181,5.6978,5.6829,5.6829,5.6523,5.6381,5.6381,5.6381,5.6381,5.6359,5.555,5.5219,4.6642,5.0111,5.3789,5.5053,5.8734,6.2616,6.4943,6.4467,6.412,6.6176,6.7649,6.8281,6.7271,6.6727,6.7015,6.8687,6.8061,6.7942,6.966,6.9927,6.9929,6.9971,6.9971,6.9971,6.9971,6.9971,6.9971,6.9971,6.9971,6.9971,6.9971,6.9919,6.9762,6.9579,6.9426,6.9279,6.9116,6.9097,6.9036,6.9006,6.9006,6.9006,6.9006,6.9006,6.9006,6.8969,6.8483,6.7599,6.6341,6.4645,6.3673,6.3262,6.3262,6.2963,6.2478,6.2106,6.1265,6.0244,5.9602,5.8644,5.7623,5.7123,5.6881,5.6751,5.6653,5.6479,5.6381,5.6381,5.6381,5.6381,5.6381,5.6381,5.6471,5.6709,5.6553,5.6426,5.6567,5.6493,5.639,5.6567,5.6457,5.6457,5.673,5.6682,5.6653,5.6751,5.6772,5.6772,5.6772,5.6772,5.6772,5.6772,5.6772,5.6772,5.6772,5.6772,5.6772,5.6772,5.6772,5.7081,5.7707,5.7462,5.7313,5.7313,5.6941,5.6772,5.6772,5.666,5.661,5.6589,5.5872,5.555,4.7269,4.9251,5.1746,5.1746,5.4224,5.7515,6.0918,5.9086,5.8525,6.5106,6.6589,6.6783,6.7006,6.5688,6.512,6.6817,6.7082,6.7696,6.9549,6.979,6.9857,6.997,6.9971,6.9971,6.9971,6.9971,6.9971,6.9971,6.9971,6.9971,6.9971,6.9971,6.9971,6.9971,6.9826,6.966,6.9402,6.9268,6.9149,6.9006,6.9006,6.9006,6.9006,6.9006,6.9006,6.8894,6.7225,6.649,6.6341,6.4645,6.3038,6.1654,6.1654,6.0596,5.9138,5.9138,5.9126,5.9126,5.9089,5.9089,5.8993,5.8462,5.8045,5.7639,5.7273,5.6766,5.6381,5.6381,5.6381,5.6381,5.6381,5.6381,5.6596,5.7497,5.7042,5.6501,5.7034,5.676,5.6523,5.7054,5.6703,5.6682,5.7569,5.7406,5.7256,5.7656,5.7724,5.7724,5.7724,5.7724,5.7724,5.7724,5.7724,5.7724,5.7724,5.7724,5.7724,5.7724,5.7724,5.7724,5.7741,5.7741,5.7724,5.7724,5.7724,5.7724,5.7724,5.7332,5.7153,5.7134,5.661,5.6359,4.1252,4.4484,4.8535,5.088,5.3211,5.5822,5.9138,6.1692,6.3311,6.3187,6.4019,6.4834,6.4932,6.5533,6.6574,6.825,6.7692,6.7643,6.9286,6.9519,6.9535,6.9579,6.9584,6.9584,6.9584,6.9584,6.9651,6.9822,6.9824,6.9878,6.9971,6.9971,6.9929,6.9826,6.9803,6.9664,6.9408,6.9346,6.9277,6.916,6.9204,6.9232,6.9123,6.7921,6.7358,6.7188,6.5468,6.4159,6.3112,6.2589,6.1392,5.9885,5.9885,5.9549,5.91,5.91,5.91,5.9028,5.8696,5.8567,5.8476,5.8045,5.7822,5.7707,5.7569,5.7443,5.7278,5.7278,5.7101,5.6993,5.7238,5.7278,5.737,5.7673,5.7515,5.7333,5.7516,5.7443,5.7333,5.7534,5.7425,5.7389,5.769,5.7621,5.7605,5.7724,5.7741,5.7741,5.7741,5.7741,5.7741,5.7741,5.7741,5.7741,5.7741,5.7741,5.7741,5.7741,5.8315,5.8681,5.8681,5.8321,5.8137,5.8137,5.7854,5.7741,5.7741,5.7623,5.7552,5.7552,5.7388,5.7179,4.0339,4.3114,4.6747,4.9555,5.1111,5.3265,5.8394,6.0046,6.0309,5.9515,6.0581,6.1724,6.193,6.448,6.6938,6.8012,6.796,6.8166,6.9164,6.9331,6.9324,6.9395,6.9408,6.9408,6.9408,6.9408,6.9446,6.9608,6.9731,6.9811,6.9884,6.9969,6.993,6.9869,6.9869,6.9759,6.953,6.9568,6.8835,6.7496,6.758,6.758,6.7374,6.6327,6.5833,6.564,6.3892,6.2611,6.1626,6.0953,6.0035,5.91,5.91,5.91,5.91,5.91,5.91,5.9066,5.8721,5.8606,5.8567,5.8344,5.8113,5.7951,5.7951,5.7838,5.7741,5.7741,5.757,5.7498,5.8119,5.7912,5.7569,5.7871,5.7567,5.7296,5.7656,5.7604,5.7586,5.7887,5.7822,5.7842,5.8174,5.8098,5.8035,5.8241,5.8219,5.8219,5.8219,5.8219,5.8219,5.8219,5.8219,5.8219,5.8219,5.8219,5.8219,5.8219,5.8759,5.91,5.91,5.8797,5.8606,5.8606,5.8387,5.8219,5.8219,5.803,5.7951,5.7935,5.7639,5.7388,4.2916,4.4148,4.6,4.8177,4.8615,5.0475,5.8038,5.5181,5.1655,5.4336,5.6126,5.7412,5.803,6.2189,6.5729,6.634,6.7821,6.9061,6.93,6.9342,6.9393,6.949,6.9519,6.9481,6.9368,6.9368,6.9375,6.9382,6.9594,6.9735,6.9787,6.9883,6.997,6.9971,6.9971,6.9851,6.9607,6.9607,6.7973,6.4743,6.4743,6.4691,6.4548,6.4435,6.4353,6.4258,6.2435,6.1636,6.1505,5.9799,5.913,5.9119,5.9108,5.9097,5.9134,5.9112,5.91,5.91,5.91,5.91,5.91,5.91,5.8747,5.8355,5.8355,5.8107,5.7842,5.7842,5.7842,5.802,5.8871,5.8218,5.748,5.8197,5.7443,5.6814,5.7656,5.7534,5.748,5.8226,5.8061,5.8082,5.892,5.8696,5.8516,5.9017,5.91,5.91,5.91,5.91,5.91,5.91,5.91,5.91,5.91,5.91,5.9074,5.9119,5.913,5.9119,5.9097,5.9097,5.9086,5.91,5.91,5.91,5.91,5.8606,5.8355,5.8341,5.764,5.7273,3.8877,4.109,4.4483,4.873,5.0639,5.2062,5.4274,5.3673,5.1813,4.8784,4.946,5.1034,5.2371,5.4591,5.833,6.4847,6.73,6.8968,7.062,7.0846,7.0847,7.0884,7.0896,7.0408,6.9208,6.9095,6.916,6.9261,6.9286,6.9488,6.978,6.9806,6.9875,6.9971,6.9971,6.9325,6.803,6.7992,6.6929,6.4879,6.4879,6.4819,6.4619,6.3346,6.2689,6.2532,6.0768,6.0037,5.9993,5.9575,5.9365,5.9388,5.9267,5.9242,5.9215,5.9152,5.91,5.91,5.91,5.91,5.91,5.91,5.9017,5.8908,5.8908,5.8821,5.8796,5.8796,5.8796,5.8834,5.9028,5.8859,5.8681,5.8871,5.8694,5.8522,5.872,5.8694,5.8694,5.8883,5.8846,5.8846,5.904,5.9005,5.8944,5.9089,5.91,5.91,5.91,5.91,5.91,5.91,5.91,5.91,5.91,5.91,5.9172,5.9388,5.9365,5.9336,5.9252,5.9242,5.9185,5.91,5.91,5.91,5.91,5.8993,5.8908,5.8908,5.872,5.8453,3.9759,4.2203,4.5365,4.8044,4.9342,5.0225,5.1156,4.9778,4.7529,4.484,4.4986,4.6399,4.8943,5.1841,5.5961,6.2248,6.4812,6.6362,6.7501,6.8514,6.9394,7.0165,7.0277,7.0203,7.0091,6.9418,6.9048,6.9119,6.915,6.9297,6.9522,6.9568,6.9348,6.8739,6.8741,6.7952,6.6288,6.5448,6.4233,6.2681,6.2681,6.264,6.2544,6.1638,6.1168,6.1048,6.0021,5.9588,5.9546,5.952,5.9487,5.9481,5.9393,5.9388,5.9374,5.9293,5.9215,5.9172,5.9108,5.91,5.91,5.91,5.91,5.91,5.91,5.91,5.91,5.91,5.91,5.91,5.91,5.892,5.8721,5.8721,5.8604,5.8485,5.8696,5.8721,5.8809,5.9066,5.91,5.91,5.91,5.91,5.91,5.91,5.91,5.91,5.91,5.91,5.91,5.91,5.9147,5.9192,5.9192,5.9224,5.9312,5.9475,5.9487,5.9451,5.9396,5.9388,5.9336,5.925,5.9287,5.9287,5.9287,5.9214,5.9192,5.9182,5.8869,5.8593,4.2364,4.4648,4.6985,4.6736,4.67,4.7021,4.836,4.5398,4.2364,4.2364,4.2364,4.3334,4.6431,5.0416,5.4532,5.8492,6.058,6.2055,6.3145,6.5218,6.7204,6.8701,6.9112,6.9699,7.0876,6.9791,6.9006,6.9006,6.9081,6.9171,6.9211,6.908,6.8456,6.7259,6.6959,6.5971,6.4118,6.2574,6.1212,6.0022,6.0061,6.0062,6.0062,6.0062,6.0062,6.0062,5.9815,5.9719,5.9752,5.9638,5.9594,5.9551,5.9531,5.9525,5.9482,5.9498,5.94,5.931,5.9203,5.9136,5.9119,5.9074,5.91,5.91,5.91,5.91,5.91,5.91,5.91,5.91,5.91,5.8747,5.8448,5.8448,5.8204,5.8035,5.8341,5.8448,5.858,5.9005,5.91,5.91,5.91,5.91,5.9074,5.913,5.913,5.9152,5.9158,5.9158,5.9158,5.9158,5.9252,5.9334,5.9334,5.9413,5.9509,5.9551,5.9594,5.9594,5.9594,5.9536,5.9515,5.9487,5.9487,5.9487,5.9487,5.9381,5.9334,5.9288,5.8764,5.8508,4.2364,4.4648,4.6736,4.5398,4.5041,4.5148,4.5362,4.3846,4.2364,4.2364,4.2364,4.2541,4.3105,4.4895,4.7742,5.2318,5.368,5.6194,6.2038,6.5424,6.7575,6.8277,6.9519,7.0076,6.9428,6.9156,6.9006,6.9006,6.9022,6.9097,6.9201,6.7867,6.7094,6.7106,6.5716,6.345,6.0356,6.0131,5.9937,5.9719,5.9982,6.0062,6.0062,6.0062,6.0062,6.0062,6.0023,6.0022,6.0022,5.9982,5.9981,5.9941,5.9747,5.9648,5.9638,5.9536,5.9475,5.9451,5.9419,5.9351,5.9233,5.9152,5.91,5.91,5.91,5.91,5.91,5.91,5.91,5.91,5.91,5.9028,5.8993,5.8993,5.8957,5.8896,5.8944,5.8993,5.9005,5.9089,5.91,5.91,5.91,5.91,5.9115,5.9242,5.9232,5.9301,5.9393,5.9413,5.9413,5.9413,5.9439,5.9451,5.9451,5.9475,5.9626,5.994,5.9981,5.9981,5.9981,5.9757,5.9609,5.9493,5.9487,5.9487,5.9487,5.9463,5.9451,5.9451,5.9362,5.9245,4.3881,4.5309,4.6878,4.6165,4.5986,4.5986,4.5986,4.4773,4.3632,4.3632,4.2971,4.2364,4.2364,4.3667,4.5683,4.8698,5.0809,5.3855,5.9029,6.3403,6.6509,6.7652,6.8445,6.9141,6.9794,6.908,6.8312,6.7698,6.7636,6.7251,6.6395,6.5618,6.4919,6.4233,6.3448,6.1856,5.9388,5.9439,5.952,5.9588,5.971,5.9788,5.9856,5.9856,5.9942,6.0062,6.0062,6.0062,6.0062,6.0062,6.0062,6.0062,5.9942,5.9898,5.9859,5.9797,5.9721,5.9563,5.9563,5.9515,5.9396,5.9334,5.9261,5.9185,5.9185,5.9242,5.9301,5.9301,5.9252,5.9224,5.9276,5.9185,5.9108,5.9192,5.9147,5.91,5.91,5.91,5.91,5.91,5.91,5.91,5.91,5.91,5.9108,5.9172,5.9242,5.9326,5.9381,5.9439,5.9487,5.9487,5.9523,5.9563,5.9563,5.957,5.9643,5.9859,5.9856,5.9856,5.9856,5.9871,5.9851,5.9785,5.9785,5.9785,5.9785,5.9665,5.9563,5.9563,5.9525,5.9451,4.6022,0.0,4.7682,4.8056,4.7842,4.7537,0.0,4.6156,4.4982,4.4815,4.3841,4.2798,4.2125,4.2922,4.4268,4.5845,4.7778,5.0752,5.5523,5.9294,6.2579,6.5248,6.5889,6.6801,6.853,6.7918,6.6941,6.5676,6.5698,6.5178,6.3896,6.3561,6.2919,6.1789,6.1376,6.0549,5.9242,5.9258,5.9328,5.9432,5.9469,5.9551,5.9638,5.9657,5.9806,5.9983,6.0061,6.0062,6.0062,6.0062,6.0062,6.0062,6.0062,6.0062,6.0062,6.0062,5.9942,5.9764,5.9764,5.9638,5.9503,5.9503,5.9439,5.9328,5.9328,5.9396,5.9432,5.9432,5.9336,5.9278,5.9366,5.9233,5.9119,5.9196,5.9152,5.91,5.91,5.91,5.91,5.91,5.91,5.91,5.91,5.91,5.9123,5.9126,5.9252,5.9344,5.9358,5.9504,5.9621,5.9621,5.9733,5.9764,5.9764,5.967,5.9635,5.9635,5.9635,5.9635,5.9635,5.9804,5.9935,5.9935,5.9935,5.9935,5.9935,5.9756,5.9666,5.9666,5.9635,5.957,0.0,4.911,4.9538,5.1017,5.0268,4.9063,4.8458,4.71,0.0,4.5186,4.497,4.4038,4.1263,4.0815,4.1422,4.2998,4.2238,4.4202,5.2238,5.2436,5.3791,5.9386,6.1317,6.245,6.3112,6.4379,6.4507,6.298,6.331,6.3547,6.3399,6.2389,6.1741,6.164,6.0107,5.9247,5.9097,5.9243,5.9293,5.9318,5.9419,5.9493,5.9509,5.9628,5.9707,5.9714,5.9982,6.0062,6.0062,6.0062,6.0062,6.0062,6.0062,6.0062,6.0062,6.0062,6.0062,6.0061,6.0061,5.9858,5.9657,5.9657,5.9588,5.9475,5.9475,5.9372,5.931,5.931,5.9204,5.9097,5.9119,5.9097,5.91,5.9123,5.9074,5.91,5.91,5.91,5.91,5.91,5.91,5.91,5.91,5.91,5.9126,5.927,5.9403,5.9525,5.9638,5.9855,6.0022,6.0022,6.0023,6.0061,6.0061,5.9679,5.9504,5.9504,5.9504,5.9504,5.9504,5.9515,5.952,5.952,5.952,5.952,5.952,5.9604,5.9681,5.9681,5.9908,5.9897,4.9217,5.0109,5.0981,5.1552,5.0905,4.9783,4.8659,4.757,4.6455,4.5328,4.5098,4.4456,4.2348,4.1221,4.1435,4.3915,4.302,4.4842,5.2786,5.3754,5.5563,6.0678,6.1317,6.1547,6.2049,6.1781,6.1423,6.1149,6.1322,6.1076,6.0269,5.9803,5.9549,5.9549,5.9256,5.91,5.91,5.9136,5.9162,5.9162,5.9214,5.9267,5.9366,5.9406,5.9493,5.9574,5.9654,5.9739,0.0,5.9813,5.9902,6.0062,6.0062,6.0062,6.0062,6.0062,6.0062,6.0062,6.0062,6.0022,5.9902,5.9902,5.9893,5.9795,5.9669,5.9669,5.9762,5.9762,5.9547,5.9351,5.9432,5.9258,5.9108,5.9185,5.9158,5.91,5.91,5.91,5.91,5.91,5.91,5.91,5.91,5.91,5.9097,5.9141,5.9336,5.9509,5.9527,5.9846,6.0022,5.9817,5.9813,5.98,5.971,5.9507,5.9366,5.9366,5.9366,5.9366,5.9366,5.9439,5.9487,5.9487,5.9487,5.9487,5.9487,5.9546,5.957,5.9574,5.9747,5.9783,5.0278,5.1281,5.2138,5.2433,5.1725,5.0541,4.8893,4.7735,4.6529,4.4883,4.4553,4.4088,4.2548,4.1452,4.1463,4.3524,4.3038,4.479,5.1668,5.3013,5.4732,5.8588,5.8945,5.9112,5.9675,5.9428,5.9176,5.9044,5.9177,5.8862,5.7993,5.8182,5.8327,5.8327,5.8821,5.91,5.91,5.91,5.91,5.91,5.91,5.9136,5.9215,5.925,5.9328,5.9413,5.9469,5.9546,5.9624,5.9624,5.9695,5.9887,5.9887,5.9896,5.9943,5.9943,5.9984,6.0062,6.0062,6.0062,6.0062,6.0062,6.0062,6.0023,5.9856,5.987,5.9945,5.9945,5.9724,5.9504,5.9523,5.9359,5.9162,5.9224,5.9141,5.91,5.91,5.91,5.91,5.91,5.91,5.91,5.91,5.91,5.9097,5.9158,5.9328,5.9509,5.9551,5.978,5.9859,5.9709,5.9641,5.9523,5.9381,5.9258,5.9139,5.9012,5.8974,5.8933,5.8798,5.8865,5.8997,5.9105,5.9105,5.9175,5.9359,5.9359,5.9388,5.9413,5.9531,5.9612,5.2227,5.287,5.3085,5.3978,5.3073,5.1347,4.9274,4.7577,4.5865,4.38,4.334,4.2907,4.1487,4.1224,4.1191,4.1224,4.1224,4.3022,4.8083,4.8799,4.9593,5.1668,5.3279,5.4466,5.5109,5.7313,5.8022,5.6488,5.685,5.7153,5.7153,5.7871,5.8313,5.8313,5.8809,5.9089,5.9089,5.9089,5.9089,5.9089,5.91,5.91,5.9112,5.9243,5.9284,5.9293,5.9413,5.9487,5.9487,5.9487,5.9487,5.9487,5.9487,5.9574,5.9666,5.9666,5.9815,6.0062,6.0062,6.0062,6.0062,6.0062,6.0062,6.0062,6.0062,5.9898,5.9692,5.9662,5.9563,5.9457,5.9312,5.9284,5.9261,5.913,5.91,5.91,5.91,5.91,5.91,5.91,5.91,5.91,5.91,5.91,5.9136,5.925,5.9386,5.9508,5.9657,5.968,5.9666,5.9663,5.957,5.9381,5.9108,5.9089,5.8846,5.8341,5.8313,5.8137,5.7758,5.7741,5.7903,5.8313,5.8313,5.858,5.9089,5.91,5.9141,5.9284,5.9284,5.9426,5.1501,5.2846,5.4473,5.4281,5.3465,5.2051,4.9401,4.7222,4.5298,4.3691,4.2546,4.202,4.2611,4.1882,4.1553,4.2546,4.271,4.3943,4.7464,4.9315,5.1332,5.4041,5.4297,5.431,5.4493,5.5564,5.6272,5.6372,5.6501,5.6745,5.7134,5.7369,5.7604,5.7887,5.8051,5.83,5.8553,5.8567,5.8567,5.8567,5.892,5.91,5.91,5.9115,5.9158,5.9168,5.9203,5.927,5.9344,5.9344,5.9424,5.9487,5.9487,5.9515,5.9556,5.9556,5.9628,5.9808,5.9808,5.9808,5.9808,5.9808,5.9736,5.9658,5.9757,5.9719,5.9721,5.9872,5.9937,5.9831,5.9493,5.9284,5.9136,5.9086,5.91,5.91,5.91,5.91,5.91,5.91,5.91,5.91,5.91,5.9162,5.9242,5.9276,5.9487,5.9581,5.9522,5.9633,5.9582,5.9419,5.9276,5.9013,5.8593,5.8567,5.8364,5.7919,5.7903,5.7838,5.7741,5.7741,5.7809,5.7887,5.8182,5.8383,5.8567,5.892,5.9108,5.9158,5.9158,5.9233,5.2386,5.3358,5.46,5.3571,5.2952,5.1846,4.9,4.6862,4.5077,4.3636,4.2184,4.1816,4.3828,4.3039,4.2513,4.3992,4.3729,4.4354,4.7211,4.8749,5.0708,5.3645,5.3612,5.346,5.375,5.4412,5.5119,5.586,5.621,5.6501,5.6808,5.7034,5.7254,5.7498,5.7639,5.7875,5.8092,5.8092,5.8167,5.8327,5.862,5.8896,5.91,5.91,5.91,5.91,5.91,5.9126,5.9214,5.9214,5.9261,5.9342,5.9342,5.9359,5.9393,5.9393,5.9498,5.9612,5.9612,5.9612,5.9612,5.9612,5.9487,5.9344,5.9498,5.9574,5.9631,5.9853,5.9983,6.0022,5.9777,5.9476,5.9224,5.9119,5.91,5.91,5.91,5.91,5.91,5.91,5.91,5.9097,5.9179,5.9224,5.9312,5.9426,5.9552,5.9599,5.9563,5.9524,5.9475,5.9318,5.9162,5.8944,5.8633,5.8448,5.8152,5.7758,5.7569,5.7407,5.72,5.72,5.7352,5.7724,5.7967,5.8241,5.862,5.8932,5.91,5.91,5.91,5.9126,5.4027,5.4125,5.3864,5.2302,5.1883,5.1159,4.8264,4.652,4.5077,4.3636,4.2184,4.2052,4.4828,4.4364,4.3997,4.5353,4.4626,4.4847,4.7442,4.7935,4.8988,5.1587,5.1883,5.2174,5.2891,5.3658,5.4358,5.4991,5.5813,5.6255,5.6255,5.6787,5.7114,5.7153,5.7443,5.7639,5.7673,5.7673,5.7838,5.8212,5.8255,5.8526,5.8981,5.9005,5.9005,5.8981,5.9005,5.9017,5.9017,5.9017,5.9017,5.9017,5.9017,5.9061,5.9158,5.9176,5.9291,5.9407,5.9426,5.9469,5.9469,5.9469,5.9293,5.9119,5.9252,5.9396,5.9482,5.9641,5.9858,6.0062,6.0023,5.9771,5.9406,5.9162,5.9086,5.91,5.91,5.91,5.91,5.91,5.9086,5.9158,5.925,5.9326,5.94,5.9645,5.956,5.9524,5.9628,5.9445,5.9276,5.9258,5.9189,5.9089,5.9017,5.8593,5.8152,5.7758,5.7406,5.6993,5.6457,5.6471,5.6814,5.7604,5.769,5.8128,5.8981,5.9066,5.91,5.91,5.91,5.91,5.2874,5.3306,5.3864,5.2302,5.1883,5.1159,4.8264,4.652,4.5077,4.3636,4.2184,4.1833,4.3884,4.4681,4.5208,4.5846,4.7316,4.8595,4.922,5.0272,5.1225,5.1818,5.1883,5.1981,5.211,5.2861,5.3367,5.3508,5.4723,5.5477,5.5477,5.6139,5.6703,5.7134,5.685,5.6855,5.7273,5.7256,5.7349,5.7406,5.7707,5.7887,5.8035,5.835,5.8321,5.8035,5.835,5.8476,5.8476,5.8476,5.8476,5.8476,5.8476,5.8313,5.8078,5.8415,5.8669,5.8922,5.9226,5.932,5.932,5.932,5.9233,5.9119,5.9252,5.9396,5.9482,5.9641,5.9858,6.0023,5.9812,5.9612,5.9439,5.9276,5.9162,5.91,5.91,5.91,5.91,5.91,5.9182,5.9261,5.9276,5.9469,5.9624,5.966,5.9644,5.9587,5.9556,5.9365,5.9252,5.9147,5.9097,5.892,5.8503,5.8369,5.8152,5.7758,5.7639,5.7407,5.7014,5.6973,5.6891,5.6682,5.7352,5.7825,5.802,5.8733,5.91,5.91,5.91,5.91,5.2879,5.305,5.3401,5.2206,5.1883,5.1324,4.9122,4.6984,4.5275,4.4551,4.2704,4.1913,4.4242,4.5088,4.5754,4.6672,4.7893,4.899,4.9649,5.0404,5.1127,5.1818,5.1883,5.1883,5.1883,5.2614,5.3073,5.3073,5.4076,5.4732,5.4732,5.5765,5.6479,5.6745,5.6501,5.6501,5.6802,5.6766,5.6891,5.7153,5.735,5.7552,5.7741,5.7935,5.7919,5.7758,5.7935,5.8045,5.8045,5.8045,5.8045,5.8045,5.8045,5.803,5.8045,5.8241,5.8558,5.891,5.9135,5.9175,5.9175,5.9175,5.9158,5.9119,5.9252,5.9396,5.9482,5.9641,5.9858,6.0023,5.9899,5.9701,5.9561,5.94,5.9267,5.9162,5.9097,5.91,5.91,5.91,5.9158,5.9224,5.9366,5.9504,5.9631,5.9813,5.9698,5.9574,5.9498,5.9381,5.9278,5.9175,5.9152,5.8956,5.8709,5.8462,5.8241,5.803,5.7822,5.7639,5.7462,5.7407,5.7332,5.7042,5.7497,5.7842,5.8014,5.8499,5.8834,5.91,5.91,5.91,5.3185,5.3073,5.2891,5.2078,5.1883,5.1522,5.0108,4.7938,4.6133,4.5692,4.3843,4.2963,4.5083,4.572,4.6552,4.8291,4.8744,4.9327,5.0701,5.093,5.116,5.1818,5.1883,5.1883,5.1883,5.2458,5.2861,5.2861,5.3571,5.4089,5.4228,5.5463,5.6233,5.6381,5.6381,5.6381,5.6381,5.6381,5.6589,5.7014,5.7014,5.7179,5.7497,5.7586,5.7569,5.7497,5.7586,5.7621,5.7621,5.7621,5.7621,5.7621,5.7621,5.7805,5.8122,5.8197,5.854,5.8993,5.904,5.91,5.91,5.91,5.91,5.9119,5.9252,5.9396,5.9482,5.9641,5.9858,6.0062,6.0062,5.9853,5.9624,5.952,5.9374,5.9243,5.9119,5.91,5.91,5.91,5.9108,5.9175,5.94,5.9493,5.96,5.9942,5.9704,5.9531,5.9531,5.9382,5.9268,5.9312,5.9195,5.9141,5.9141,5.8697,5.8462,5.8462,5.8159,5.794,5.7822,5.7822,5.7825,5.7741,5.7772,5.7951,5.8226,5.8355,5.862,5.8944,5.904,5.91,5.2733,5.3073,5.2891,5.2078,5.1883,5.1522,5.0108,4.9483,4.8576,4.6428,4.6408,4.6482,4.5483,4.6721,4.8854,5.201,5.3281,5.4254,5.5364,5.5502,5.4614,5.2212,5.1883,5.1883,5.1883,5.2014,5.2078,5.2078,5.2769,5.3513,5.42,5.494,5.5682,5.6359,5.6381,5.6381,5.6381,5.6381,5.6426,5.6457,5.6457,5.6501,5.6553,5.7018,5.6978,5.6574,5.7018,5.7215,5.7215,5.7215,5.7215,5.7215,5.7215,5.7273,5.7332,5.769,5.8061,5.8476,5.8932,5.91,5.91,5.91,5.91,5.9119,5.9252,5.9396,5.9482,5.9641,5.9858,6.0062,6.0062,5.9785,5.9515,5.9493,5.9293,5.9108,5.9112,5.91,5.91,5.91,5.9192,5.9258,5.9318,5.952,5.9657,5.9714,5.9678,5.9651,5.9651,5.9449,5.9331,5.9438,5.9336,5.9278,5.9278,5.9099,5.9005,5.9005,5.892,5.8696,5.8255,5.8241,5.8076,5.7741,5.8061,5.8107,5.7789,5.8604,5.8797,5.8448,5.8896,5.91,5.1797,5.2395,5.2333,5.1981,5.1883,5.1719,5.1094,5.0338,4.9456,4.8359,4.7389,4.6557,4.5866,4.7101,4.8689,5.018,5.1991,5.3347,5.3789,5.389,5.3397,5.2048,5.1883,5.1883,5.1883,5.1883,5.1883,5.1883,5.3043,5.3858,5.4228,5.5254,5.6036,5.6359,5.6381,5.6381,5.6381,5.6381,5.6381,5.6381,5.6381,5.6381,5.6381,5.661,5.6589,5.6381,5.661,5.6718,5.6718,5.6718,5.6718,5.6718,5.6718,5.7038,5.7498,5.7673,5.8159,5.8797,5.9017,5.91,5.91,5.91,5.91,5.9152,5.932,5.9432,5.9536,5.9804,5.9983,6.0062,6.0062,5.9844,5.9588,5.9509,5.9328,5.9192,5.9097,5.91,5.91,5.91,5.9136,5.9195,5.9267,5.9365,5.9498,5.9574,5.9498,5.9407,5.9266,5.9282,5.9339,5.9454,5.9369,5.9336,5.9393,5.9267,5.9195,5.9195,5.9115,5.9005,5.8784,5.8734,5.854,5.8076,5.8241,5.8241,5.8061,5.8485,5.8696,5.8784,5.8993,5.8932,5.0041,5.083,5.0995,5.1752,5.1883,5.1883,5.1883,5.1061,5.0242,5.0018,4.8686,4.7425,4.6898,4.7924,4.9052,4.9788,5.144,5.2733,5.3034,5.3068,5.2738,5.1982,5.1883,5.1883,5.1883,5.1883,5.1883,5.1883,5.3371,5.4145,5.3949,5.5463,5.6278,5.6082,5.6255,5.6381,5.6381,5.6381,5.6381,5.6381,5.6381,5.6381,5.6381,5.6381,5.6381,5.6381,5.6381,5.6381,5.6381,5.6381,5.6381,5.6381,5.6537,5.7061,5.7758,5.7858,5.8401,5.91,5.91,5.91,5.91,5.91,5.91,5.9136,5.9386,5.9487,5.9551,5.994,6.0062,6.0062,6.0062,5.985,5.9612,5.9515,5.9359,5.9214,5.9108,5.8993,5.8908,5.8908,5.8834,5.8784,5.8879,5.8899,5.898,5.907,5.9141,5.9093,5.8873,5.9099,5.9328,5.9473,5.9378,5.9346,5.9449,5.9356,5.9291,5.9293,5.9185,5.9141,5.91,5.91,5.8908,5.854,5.8503,5.8448,5.8327,5.8327,5.8448,5.8733,5.8733,5.8526,4.708,4.7836,4.8494,5.1225,5.1883,5.1883,5.1883,5.1818,5.1555,5.068,5.109,5.1026,4.9176,4.9705,5.1335,5.4034,5.459,5.5022,5.6021,5.6127,5.5107,5.2212,5.1883,5.1883,5.1883,5.1883,5.1883,5.1883,5.3371,5.3886,5.316,5.5179,5.6036,5.5294,5.5977,5.6381,5.6381,5.6381,5.6381,5.6381,5.6381,5.6381,5.6381,5.6381,5.6381,5.6381,5.6381,5.6381,5.6381,5.6381,5.6381,5.6426,5.6912,5.7369,5.7792,5.8152,5.862,5.91,5.91,5.91,5.91,5.91,5.91,5.9136,5.9386,5.9487,5.9551,5.994,6.0062,6.0062,6.0062,5.978,5.9498,5.9493,5.9276,5.9086,5.91,5.8709,5.8355,5.8355,5.8045,5.7809,5.7805,5.7894,5.8003,5.8016,5.8521,5.8856,5.873,5.9055,5.9366,5.946,5.9359,5.9358,5.9454,5.9351,5.9305,5.928,5.9276,5.9233,5.9112,5.91,5.9089,5.904,5.904,5.8809,5.8327,5.8327,5.8137,5.7809,5.7809,5.7792,4.7445,4.833,4.8297,5.1192,5.1883,5.1883,5.1883,5.1883,5.1818,5.1454,5.1219,5.0811,5.0113,5.0287,5.0886,5.188,5.2571,5.3089,5.3428,5.3495,5.3133,5.2015,5.1883,5.1883,5.1883,5.1883,5.1883,5.1883,5.2891,5.3571,5.3801,5.4966,5.573,5.5931,5.6233,5.6381,5.6381,5.6381,5.6381,5.6381,5.6381,5.6381,5.6381,5.6381,5.6381,5.6381,5.6381,5.6381,5.6381,5.6381,5.6381,5.6404,5.6567,5.7101,5.7758,5.7871,5.843,5.91,5.91,5.91,5.91,5.91,5.91,5.9136,5.9386,5.9487,5.9551,5.994,6.0062,6.0023,5.9856,5.9658,5.9463,5.9388,5.8954,5.8593,5.8593,5.8263,5.7935,5.7935,5.7842,5.7741,5.7741,5.7765,5.7804,5.7804,5.7372,5.7022,5.6933,5.7746,5.8448,5.8951,5.8928,5.907,5.9457,5.945,5.9399,5.9392,5.9407,5.9351,5.9243,5.9196,5.9182,5.91,5.91,5.9005,5.8809,5.8809,5.8567,5.8107,5.8107,5.7822,4.4918,4.6491,4.7475,4.9876,5.1192,5.1883,5.1883,5.1883,5.1883,5.1883,5.1421,5.1015,5.1015,5.1015,5.1015,5.1015,5.152,5.1883,5.1883,5.1883,5.1883,5.1883,5.1883,5.1883,5.1883,5.1883,5.1883,5.1883,5.2891,5.3571,5.3801,5.494,5.5706,5.5954,5.6233,5.6381,5.6381,5.6381,5.6381,5.6381,5.6381,5.6381,5.6381,5.6381,5.6381,5.6381,5.6381,5.6381,5.6381,5.6381,5.6381,5.6426,5.6709,5.72,5.7775,5.8067,5.8563,5.91,5.91,5.91,5.91,5.91,5.913,5.9185,5.9406,5.9525,5.9605,5.9981,6.0022,5.9899,5.9717,5.9527,5.9417,5.9326,5.8801,5.8327,5.8327,5.7715,5.7242,5.7479,5.7204,5.6975,5.7221,5.7034,5.688,5.688,5.6034,5.5459,5.5564,5.66,5.7625,5.8303,5.837,5.8606,5.9162,5.9223,5.9278,5.9408,5.9462,5.9418,5.9268,5.9291,5.9252,5.9141,5.9119,5.91,5.91,5.892,5.8633,5.8313,5.8182,5.7775,3.9496,4.2157,4.5735,4.7277,4.9778,5.1818,5.1818,5.185,5.1883,5.1883,5.1883,5.1883,5.1883,5.1883,5.1883,5.1883,5.1883,5.1883,5.1883,5.1883,5.1883,5.1883,5.1883,5.1883,5.1883,5.1883,5.1916,5.1916,5.3338,5.3892,5.316,5.5179,5.6013,5.5269,5.5989,5.6381,5.6381,5.6381,5.6381,5.6381,5.6381,5.6381,5.6381,5.6381,5.6381,5.6381,5.6381,5.6381,5.6381,5.6381,5.6381,5.6457,5.7352,5.7724,5.7842,5.8746,5.91,5.91,5.91,5.91,5.91,5.9112,5.9192,5.9288,5.9445,5.9592,5.9719,5.9984,5.9859,5.9666,5.966,5.9449,5.9276,5.9267,5.8767,5.8284,5.827,5.7042,5.6179,5.6921,5.6055,5.5428,5.6187,5.5682,5.5159,5.5159,5.46,5.4281,5.4658,5.5734,5.6763,5.7602,5.7654,5.7956,5.8631,5.87,5.8856,5.9259,5.9406,5.9413,5.9295,5.9294,5.9272,5.9301,5.9152,5.9112,5.91,5.8593,5.8327,5.8313,5.7919,5.7552,4.4697,4.3823,4.3494,4.8037,4.9779,5.0371,5.0371,5.116,5.1883,5.1883,5.1883,5.1883,5.1883,5.1883,5.1883,5.1883,5.1883,5.1883,5.1883,5.1883,5.1883,5.1883,5.1883,5.1883,5.1883,5.1883,5.211,5.2707,5.313,5.3773,5.4557,5.5194,5.5706,5.6059,5.6255,5.6381,5.6381,5.6381,5.6381,5.6381,5.6381,5.6381,5.6381,5.6381,5.6381,5.6381,5.6381,5.6381,5.6381,5.6381,5.6381,5.6413,5.7078,5.748,5.7842,5.8746,5.91,5.91,5.91,5.91,5.9097,5.9195,5.9232,5.932,5.9574,5.9648,5.969,5.975,5.9719,5.9638,5.9451,5.9146,5.8815,5.861,5.8008,5.7333,5.6752,5.6011,5.5347,5.5084,5.4723,5.4546,5.4793,5.4661,5.4493,5.4493,5.3396,5.2514,5.2428,5.3374,5.4652,5.628,5.6464,5.6869,5.7925,5.8435,5.8735,5.8838,5.9243,5.9417,5.929,5.937,5.9359,5.9161,5.9188,5.9203,5.91,5.8969,5.8696,5.8313,5.8212,5.7935,4.2323,4.0923,4.0277,4.4227,4.5213,4.6002,4.9058,4.9483,4.9713,5.1522,5.1883,5.1883,5.1883,5.1883,5.1883,5.1883,5.1883,5.1883,5.1883,5.1883,5.1883,5.1883,5.2491,5.2891,5.2891,5.2891,5.3073,5.3513,5.3795,5.435,5.5169,5.5526,5.5907,5.6359,5.6381,5.6381,5.6381,5.6381,5.6381,5.6381,5.6381,5.6381,5.6381,5.6381,5.6381,5.6381,5.6381,5.6381,5.6381,5.6381,5.6515,5.6724,5.7198,5.7621,5.8061,5.8834,5.91,5.91,5.91,5.9141,5.9203,5.9278,5.9374,5.9493,5.9638,5.9662,5.9682,5.9688,5.9612,5.9493,5.932,5.8906,5.8522,5.8332,5.7459,5.6545,5.6078,5.5094,5.4296,5.4255,5.3943,5.371,5.3608,5.3676,5.3363,5.2227,5.1621,5.1288,5.1125,5.2264,5.3503,5.4653,5.5044,5.574,5.6903,5.7344,5.7759,5.8263,5.8845,5.9133,5.9055,5.9278,5.934,5.9266,5.9266,5.9252,5.9252,5.9252,5.9102,5.8799,5.8799,5.8665,3.5386,3.5485,3.7055,3.8313,3.8519,4.012,0.0,4.6228,4.5636,4.9615,5.07,5.0963,5.116,5.1456,5.1653,5.1653,5.1785,5.1883,5.1883,5.1981,5.2014,5.1916,5.31,5.3999,5.4117,5.4033,5.4089,5.4338,5.481,5.5169,5.5319,5.6013,5.6381,5.6381,5.6381,5.6381,5.6381,5.6381,5.6381,5.6381,5.6381,5.6381,5.6381,5.6381,5.6381,5.6381,5.6381,5.6381,5.6381,5.6413,5.6739,5.7176,5.7658,5.8045,5.8462,5.892,5.91,5.91,5.9097,5.9175,5.9293,5.9312,5.9466,5.9669,5.9684,5.9682,5.9663,5.9645,5.9426,5.9203,5.9176,5.8671,5.8197,5.8197,5.7022,5.5877,5.5809,5.4347,5.3219,5.3716,5.3279,5.2699,5.2308,5.2476,5.1719,4.9069,4.9646,5.0323,5.0216,5.1719,5.2766,5.2766,5.3571,5.453,5.5565,5.5841,5.6443,5.7497,5.8207,5.8608,5.8608,5.8991,5.9284,5.9333,5.9294,5.9348,5.946,5.946,5.946,5.946,5.9445,5.9381,0.0,0.0,0.0,0.0,0.0,0.0,0.0,3.8008,3.8995,4.1007,4.334,4.5373,4.6524,4.8628,5.0174,5.0174,5.1127,5.1883,5.1883,5.246,5.2614,5.1981,5.2174,5.2583,5.3253,5.2738,5.3066,5.4879,5.4653,5.4923,5.6082,5.6278,5.6381,5.6381,5.6381,5.6381,5.6381,5.6381,5.6381,5.6381,5.6381,5.6381,5.6381,5.6381,5.6381,5.6381,5.6381,5.6381,5.6404,5.6808,5.7054,5.7215,5.7919,5.8513,5.8944,5.904,5.91,5.9097,5.9224,5.9287,5.9312,5.9551,5.9641,5.9686,5.9678,5.9686,5.9638,5.9419,5.911,5.8771,5.8572,5.7967,5.7388,5.7388,5.6338,5.5199,5.4662,5.3795,5.2704,5.1489,5.112,5.0747,4.9848,4.9736,4.9006,4.6837,4.8114,4.8988,4.8153,4.98,5.1018,5.1018,5.2391,5.3363,5.3585,5.5048,5.6064,5.6316,5.7315,5.793,5.793,5.8496,5.8723,5.8549,5.9028,5.926,5.9179,5.9179,5.9179,5.9179,5.9254,5.9188,0.0,0.0,0.0,0.0,0.0,0.0,0.0,0.0,0.0,0.0,0.0,4.0777,4.2131,0.0,4.8078,4.8624,5.0501,5.1883,5.1883,5.2238,5.2735,5.3479,5.3909,5.4296,5.4679,5.435,5.4592,5.5706,5.5488,5.5621,5.6336,5.6381,5.6381,5.6381,5.6381,5.6381,5.6381,5.6381,5.6381,5.6381,5.6381,5.6381,5.6381,5.6381,5.6381,5.6381,5.6381,5.6381,5.6426,5.6932,5.7388,5.7809,5.8458,5.8846,5.9086,5.9152,5.9213,5.9204,5.9328,5.9426,5.9493,5.9567,5.9602,5.9642,5.96,5.9551,5.9407,5.9101,5.8749,5.8445,5.81,5.7605,5.7153,5.7153,5.5917,5.4626,5.431,5.3342,5.2109,5.0777,5.0565,5.0042,4.8498,4.7764,4.708,4.6032,4.721,4.8006,4.7488,4.877,4.9396,4.8411,4.9693,5.0529,5.0361,5.2265,5.375,5.4489,5.5984,5.6864,5.6864,5.7719,5.8336,5.8527,5.8815,5.9077,5.9281,5.9281,5.9186,5.8982,5.8731,5.8544,0.0,0.0,0.0,0.0,0.0,0.0,0.0,0.0,0.0,0.0,0.0,0.0,0.0,0.0,0.0,4.6886,4.9781,5.2002,5.2332,5.2365,5.3006,5.4802,5.5585,5.6013,5.6164,5.6036,5.6095,5.6359,5.6233,5.621,5.6359,5.6381,5.6381,5.6381,5.6381,5.6381,5.6381,5.6381,5.6381,5.6381,5.6381,0.0,5.6381,5.6457,5.6523,5.6523,5.6596,5.6639,5.6682,5.7098,5.7673,5.8355,5.8896,5.9097,5.9147,5.9267,5.9312,5.9344,5.9439,5.9555,5.962,5.9529,5.9574,5.9624,5.9493,5.9381,0.0,5.876,5.8431,5.8122,5.7724,5.7313,5.6937,5.6835,5.548,5.42,5.4061,5.2888,5.1554,5.0463,5.0252,4.9542,4.7488,4.6252,4.5416,4.4917,4.5732,4.6342,4.6144,4.738,4.7712,4.612,4.7401,4.822,4.7937,4.8932,5.05,5.2629,5.3629,5.4219,5.4368,5.5414,5.6164,5.645,5.6634,5.7349,5.8687,5.8687,5.8674,5.86,5.557,5.4523,0.0,0.0,0.0,0.0,0.0,0.0,0.0,0.0,0.0,0.0,0.0,0.0,0.0,0.0,0.0,0.0,4.8985,5.2388,5.3772,5.3943,5.4055,5.431,5.4419,5.4679,5.5269,5.481,5.5035,5.6255,5.573,5.5622,5.6336,5.6381,0.0,0.0,0.0,5.6381,5.6381,5.6381,5.6381,5.6381,5.6381,5.6381,5.6404,5.685,5.7074,5.7058,5.7425,5.7586,5.7586,5.7639,5.7919,5.8355,5.8896,5.9189,5.9276,5.94,5.9463,5.9466,5.9466,0.0,0.0,5.9499,5.9488,5.9487,5.9351,5.931,5.9158,5.8547,5.807,5.7707,5.7349,5.685,5.6288,5.5587,5.4836,5.4061,5.3338,5.2523,5.1355,4.9505,4.9174,4.8505,4.6417,4.5115,4.3616,4.1552,4.2089,4.2432,4.1514,4.406,4.5807,4.5586,4.7562,0.0,4.8815,4.6294,4.671,5.1388,4.9178,4.7974,4.8534,4.948,4.945,4.8371,4.9147,5.1646,5.5862,5.5862,5.6555,5.7588,4.5945,4.2286,0.0,0.0,0.0,0.0,0.0,0.0,0.0,0.0,0.0,0.0,0.0,0.0,0.0,0.0,0.0,0.0,4.5528,4.9407,5.0343,5.1919,5.3334,5.4345,5.5058,5.5561,5.586,5.5645,5.5717,5.6336,5.6059,5.6036,5.6359,5.6381,5.6381,5.6381,5.6381,5.6381,5.6381,5.6675,5.6808,5.6808,5.7061,5.7162,5.7181,5.7388,5.748,5.7498,5.7656,5.7741,5.7758,5.7983,5.8167,5.836,0.0,0.0,0.0,0.0,5.9474,5.9468,5.9464,5.949,5.9469,5.9388,5.9381,5.9283,5.8879,5.8732,5.856,5.7854,5.7516,5.7294,5.6829,5.6207,5.5598,5.5294,5.3883,5.272,5.3009,5.1555,4.9975,4.9137,4.8498,0.0,4.6128,4.4883,4.3776,4.2814,4.3026,4.318,4.273,4.4455,4.5311,4.4255,4.5739,4.6722,4.6533,4.5987,0.0,0.0,0.0,4.9174,4.9871,5.0849,0.0,0.0,0.0,4.823,5.0417,4.7099,0.0,0.0,4.0512,3.8762,0.0,0.0,0.0,0.0,0.0,0.0,0.0,0.0,0.0,0.0,0.0,0.0,0.0,0.0,0.0,0.0,4.1541,4.553,4.641,4.9087,5.1742,5.3861,5.5277,5.6083,5.6083,5.6479,5.6751,5.6751,5.6751,5.6751,5.6751,5.6751,5.6751,5.6751,5.6751,5.6751,5.6751,5.7137,5.7294,5.7294,5.7586,5.7741,5.7741,5.7858,5.7887,5.7887,5.8051,5.8098,5.8128,5.8442,5.8585,5.8635,5.9228,5.9456,5.9487,5.9438,5.9443,5.9462,5.9445,5.9426,5.9386,5.9111,5.9005,5.8912,5.8332,5.8167,5.8014,5.7332,5.6982,5.67,5.6184,5.5477,5.4828,5.4328,5.3042,5.1941,5.1945,5.0613,4.9248,4.8688,4.716,4.5644,4.4585,4.3697,4.2885,4.2218,4.2645,4.2977,4.2689,4.4272,4.4876,4.3576,4.4648,4.5355,4.5033,4.5149,4.617,4.842,4.84,4.9185,5.1161,5.0788,5.1139,5.239,4.811,4.578,0.0,0.0,0.0,0.0,0.0,0.0,0.0,0.0,0.0,0.0,0.0,0.0,0.0,0.0,0.0,0.0,0.0,0.0,0.0,0.0,0.0,0.0,0.0,0.0,4.3046,4.5991,4.9195,5.252,5.4288,5.5256,5.5256,5.6738,5.769,5.769,5.769,5.769,5.769,5.769,5.769,5.769,5.769,5.769,5.769,5.7707,5.7724,5.7724,5.7724,5.7741,5.7758,5.8137,5.8299,5.8327,5.8821,5.9066,5.9052,5.9196,5.9267,5.9272,5.928,5.9356,5.9454,5.9354,5.9351,5.9481,5.9336,5.9301,5.9185,5.856,5.8355,5.8284,5.7854,5.7758,5.7656,5.7273,5.6607,5.5899,5.5382,5.4758,5.3824,5.2066,5.2354,5.2295,4.966,4.9863,4.9899,4.7881,4.47,4.1962,4.0796,4.0591,3.9747,3.7478,3.9015,0.0,3.8961,4.1967,4.416,4.4113,4.515,4.5848,4.5832,4.2989,4.3014,4.7208,4.4415,4.5022,5.0373,4.6461,4.4891,4.6304,4.5285,4.4102,4.2723,0.0,0.0,0.0,0.0,0.0,0.0,0.0,0.0,0.0,0.0,0.0,0.0,0.0,0.0,0.0,0.0,0.0,0.0,0.0,0.0,0.0,0.0,0.0,0.0,4.1742,4.623,4.9634,5.1187,5.1971,5.1971,5.3519,5.4487,5.4487,5.6515,5.7741,5.7741,5.7741,5.7741,5.7741,5.7741,5.7741,5.7741,5.7983,5.8122,5.8122,5.8458,5.8672,5.8775,5.8912,5.9007,5.9088,5.9275,5.9344,5.9351,5.9417,5.8084,5.6062,5.614,5.6074,5.5869,5.5824,5.562,5.5354,5.5298,5.5231,5.5204,5.5517,5.6308,5.7006,5.608,5.5797,5.5699,5.5336,5.5023,5.4619,5.3752,5.2978,5.2096,5.0929,4.9965,4.9024,4.7908,4.695,4.6035,4.5138,4.3466,4.1629,3.9835,4.0045,3.9682,3.7383,3.8973,4.026,3.9893,4.1621,4.3181,4.4002,4.4499,4.5057,4.5822,4.4835,4.4862,4.6288,4.5989,4.6565,4.8398,4.7722,4.7502,4.7984,4.771,4.3755,3.598,0.0,0.0,0.0,0.0,0.0,0.0,0.0,0.0,0.0,0.0,0.0,0.0,0.0,0.0,0.0,0.0,0.0,0.0,0.0,0.0,0.0,0.0,0.0,0.0,0.0,0.0,4.8465,4.9603,0.0,4.8384,4.9804,5.0545,4.9928,5.2411,5.4724,5.651,5.6621,5.713,5.8335,5.8372,5.8372,5.8372,5.862,5.8723,5.876,5.909,5.9258,5.9359,5.9359,5.9388,5.9376,5.8794,5.8476,5.8407,5.7619,5.6056,5.4043,5.3515,5.3149,5.2897,5.2609,5.2322,5.2039,5.2392,5.2447,5.2453,5.2955,5.321,5.2979,5.1312,5.0781,5.075,5.0491,5.0876,5.1327,5.1129,5.0835,5.0381,4.943,4.8199,4.706,4.6193,4.4928,4.3593,4.2151,4.1306,4.0014,3.7251,3.7507,3.7555,3.5821,3.7395,3.9166,4.0273,4.1485,4.2523,4.3347,4.3436,4.3954,4.5157,4.5271,4.5442,4.5852,4.647,4.705,4.7409,4.8045,4.8186,4.7629,4.6702,4.2083,0.0,0.0,0.0,0.0,0.0,0.0,0.0,0.0,0.0,0.0,0.0,0.0,0.0,0.0,0.0,0.0,0.0,0.0,0.0,0.0,0.0,0.0,0.0,0.0,0.0,0.0,0.0,4.8736,4.9158,0.0,0.0,0.0,0.0,4.4123,4.573,4.8896,5.3744,5.4128,5.5694,5.8855,5.905,5.9126,5.9201,5.9201,5.9201,5.9201,5.9201,5.9212,5.9185,5.9185,5.9146,5.8889,5.7279,5.651,5.6225,5.387,5.2835,5.2601,5.0897,5.0154,4.9913,4.9308,4.9034,4.9169,5.0167,5.0568,5.0604,5.0552,4.8916,4.65,4.3961,4.3126,0.0,0.0,4.4368,4.6043,4.7487,4.8263,4.8427,4.7468,4.71,4.6378,4.4337,4.3742,4.2496,3.8759,3.7994,3.6755,3.2728,0.0,3.3212,3.2334,3.4125,3.6673,3.9723,4.1218,4.2036,4.2083,4.2083,4.2614,4.3937,4.4026,4.4509,4.5612,4.5738,4.6211,4.721,4.717,4.6315,4.4755,4.2114,0.0,0.0,0.0,0.0,0.0,0.0,0.0,0.0,0.0,0.0,0.0,0.0,0.0,0.0,0.0,0.0,0.0,0.0,0.0,0.0,0.0,0.0,0.0,0.0,0.0,0.0,3.7047,4.1523,4.5242,4.352,4.1223,0.0,0.0,0.0,0.0,0.0,0.0,4.4994,4.7462,4.9731,5.1755,5.3058,5.4285,5.5548,5.5586,5.5586,5.5586,5.5586,5.5463,5.5294,5.5294,5.5155,5.4944,5.4497,5.4283,5.3773,4.7511,4.4287,4.316,4.1584,3.934,3.724,3.888,3.9197,3.9077,4.1236,4.2654,4.3323,4.2548,4.1474,4.0251,3.8897,0.0,0.0,0.0,0.0,3.9006,4.1964,4.3385,4.4241,4.481,4.49,4.4193,4.1885,4.1297,3.9388,3.2931,3.169,3.0055,2.4845,2.5555,0.0,2.597,2.9725,3.3326,3.5404,3.7848,3.9792,4.0781,4.0876,4.137,4.2568,4.2659,4.2796,4.3112,4.4014,4.4683,4.4957,4.3377,4.1581,3.9626,0.0,0.0,0.0,0.0,0.0,0.0,0.0,0.0,0.0,0.0,0.0,0.0,0.0,0.0,0.0,0.0,0.0,0.0,0.0,0.0,0.0,0.0,0.0,0.0,0.0,0.0,0.0,3.3727,3.8421,4.1629,3.9141,3.6232,0.0,0.0,0.0,0.0,0.0,0.0,0.0,0.0,0.0,4.5892,4.8192,5.0185,5.1836,5.2507,5.3215,5.3886,5.3886,5.3821,5.366,5.366,5.3408,5.2864,5.1494,4.9754,4.7567,4.2581,3.961,3.787,0.0,0.0,0.0,0.0,3.217,3.212,3.4018,3.5568,3.6478,3.5291,0.0,0.0,0.0,0.0,0.0,0.0,0.0,3.4287,3.6835,3.9884,4.2463,4.3122,4.285,4.1931,3.9912,3.6331,3.2255,2.7965,2.698,2.5353,2.0704,2.1228,0.0,0.0,0.0,2.9483,3.2172,3.5468,3.7833,3.8561,3.918,4.006,4.1297,4.1391,4.1646,4.2129,4.2868,4.2879,4.1946,3.9761,3.7107,0.0,0.0,0.0,0.0,0.0,0.0,0.0,0.0,0.0,0.0,0.0,0.0,0.0,0.0,0.0,0.0,0.0,0.0,0.0,0.0,0.0,0.0,0.0,0.0,0.0,0.0,0.0,0.0,0.0,3.4555,3.7677,0.0,0.0,0.0,0.0,0.0,0.0,0.0,0.0,0.0,0.0,0.0,0.0,0.0,4.5365,4.7124,4.8448,4.9773,5.1122,5.128,5.1325,5.1295,5.1295,5.1013,5.0291,4.7059,0.0,4.0154,3.8012,0.0,0.0,0.0,0.0,0.0,0.0,0.0,0.0,0.0,0.0,0.0,0.0,0.0,0.0,0.0,0.0,0.0,0.0,0.0,0.0,0.0,0.0,4.0609,4.0562,4.0101,3.898,3.6513,2.9749,2.3897,2.3046,2.2547,2.12,0.0,0.0,0.0,0.0,0.0,0.0,2.9451,3.3661,3.6327,3.6327,3.7655,3.8933,4.0085,4.0182,4.0637,4.1646,4.1338,4.0288,3.8473,3.6274,0.0,0.0,0.0,0.0,0.0,0.0,0.0,0.0,0.0,0.0,0.0,0.0,0.0,0.0,0.0,0.0,0.0,0.0,0.0,0.0,0.0,0.0,0.0,0.0,0.0,0.0,0.0,0.0,0.0,0.0,0.0,0.0,0.0,0.0,0.0,0.0,0.0,0.0,0.0,0.0,0.0,0.0,0.0,0.0,0.0,0.0,0.0,0.0,0.0,0.0,3.9814,4.0188,3.9957,3.9957,4.0389,4.0832,3.6951,3.6156,3.7155,3.1285,0.0,0.0,0.0,0.0,0.0,0.0,0.0,0.0,0.0,0.0,0.0,0.0,0.0,0.0,0.0,0.0,0.0,0.0,0.0,0.0,0.0,0.0,3.2228,3.2106,3.3852,3.3416,2.542,0.0,0.0,0.0,0.0,0.0,0.0,0.0,0.0,0.0,0.0,0.0,2.6322,3.2339,3.6327,3.6327,3.7655,3.8585,3.8784,3.8834,3.8909,3.9082,3.6847,3.5278,0.0,0.0,0.0,0.0,0.0,0.0,0.0,0.0,0.0,0.0,0.0,0.0,0.0,0.0,0.0,0.0,0.0,0.0,0.0,0.0,0.0,0.0,0.0,0.0,0.0,0.0,0.0,0.0,0.0,0.0,0.0,0.0,0.0,0.0,0.0,0.0,0.0,0.0,0.0,0.0,0.0,0.0,0.0,0.0,0.0,0.0,0.0,0.0,0.0,0.0,0.0,0.0,0.0,0.0,0.0,0.0,0.0,0.0,3.2277,2.9516,0.0,0.0,0.0,0.0,0.0,0.0,0.0,0.0,0.0,0.0,0.0,0.0,0.0,0.0,0.0,0.0,0.0,0.0,0.0,0.0,0.0,0.0,0.0,0.0,0.0,0.0,0.0,0.0,0.0,0.0,0.0,0.0,0.0,0.0,0.0,0.0,0.0,0.0,0.0,0.0,2.3869,2.9987,3.4414,3.5178,3.6533,3.7681,3.8435,3.8485,3.763,3.5599,3.3729,0.0,0.0,0.0,0.0,0.0,0.0,0.0,0.0,0.0,0.0,0.0,0.0,0.0,0.0,0.0,0.0,0.0,0.0,0.0,0.0,0.0,0.0,0.0,0.0,0.0,0.0,0.0,0.0,0.0,0.0,0.0,0.0,0.0,0.0,0.0,0.0,0.0,0.0,0.0,0.0,0.0,0.0,0.0,0.0,0.0,0.0,0.0,0.0,0.0,0.0,0.0,0.0,0.0,0.0,0.0,0.0,0.0,0.0,0.0,2.8477,2.4069,0.0,0.0,0.0,0.0,0.0,0.0,0.0,0.0,0.0,0.0,0.0,0.0,0.0,0.0,0.0,0.0,0.0,0.0,0.0,0.0,0.0,0.0,0.0,0.0,0.0,0.0,0.0,0.0,0.0,0.0,0.0,0.0,0.0,0.0,0.0,0.0,0.0,0.0,0.0,0.0,2.2556,2.8219,3.2478,3.3632,3.5072,3.6327,3.7478,3.758,3.6048,3.2443,3.0607,0.0,0.0,0.0,0.0,0.0,0.0,0.0,0.0,0.0,0.0,0.0,0.0,0.0,0.0,0.0,0.0,0.0,0.0,0.0,0.0,0.0,0.0,0.0,0.0,0.0,0.0,0.0,0.0,0.0,0.0,0.0,0.0,0.0,0.0,0.0,0.0,0.0,0.0,0.0,0.0,0.0,0.0,0.0,0.0,0.0,0.0,0.0,0.0,0.0,0.0,0.0,0.0,0.0,0.0,0.0,0.0,0.0,0.0,0.0,0.0,0.0,0.0,0.0,0.0,0.0,0.0,0.0,0.0,0.0,0.0,0.0,0.0,0.0,0.0,0.0,0.0,0.0,0.0,0.0,0.0,0.0,0.0,0.0,0.0,0.0,0.0,0.0,0.0,0.0,0.0,0.0,0.0,0.0,0.0,0.0,0.0,0.0,0.0,0.0,0.0,0.0,2.3286,2.8545,3.2114,3.2259,3.3524,3.4489,3.4595,3.4573,3.3496,3.0907,0.0,0.0,0.0,0.0,0.0,0.0,0.0,0.0,0.0,0.0,0.0,0.0,0.0,0.0,0.0,0.0,0.0,0.0,0.0,0.0,0.0,0.0,0.0,0.0,0.0,0.0,0.0,0.0,0.0,0.0,0.0,0.0,0.0,0.0,0.0,0.0,0.0,0.0,0.0,0.0,0.0,0.0,0.0,0.0,0.0,0.0,0.0,0.0,0.0,0.0,0.0,0.0,0.0,0.0,0.0,0.0,0.0,0.0,0.0,0.0,0.0,0.0,0.0,0.0,0.0,0.0,0.0,0.0,0.0,0.0,0.0,0.0,0.0,0.0,0.0,0.0,0.0,0.0,0.0,0.0,0.0,0.0,0.0,0.0,0.0,0.0,0.0,0.0,0.0,0.0,0.0,0.0,0.0,0.0,0.0,0.0,0.0,0.0,0.0,0.0,0.0,0.0,2.3412,2.7857,3.1116,3.2004,3.2588,3.3275,3.4115,3.4222,3.2165,2.7331,0.0,0.0,0.0,0.0,0.0,0.0,0.0,0.0,0.0,0.0,0.0,0.0,0.0,0.0,0.0,0.0,0.0,0.0,0.0,0.0,0.0,0.0,0.0,0.0,0.0,0.0,0.0,0.0,0.0,0.0,0.0,0.0,0.0,0.0,0.0,0.0,0.0,0.0,0.0,0.0,0.0,0.0,0.0,0.0,0.0,0.0,0.0,0.0,0.0,0.0,0.0,0.0,0.0,0.0,0.0,0.0,0.0,0.0,0.0,0.0,0.0,0.0,0.0,0.0,0.0,0.0,0.0,0.0,0.0,0.0,0.0,0.0,0.0,0.0,0.0,0.0,0.0,0.0,0.0,0.0,0.0,0.0,0.0,0.0,0.0,0.0,0.0,0.0,0.0,0.0,0.0,0.0,0.0,0.0,0.0,0.0,0.0,0.0,0.0,0.0,0.0,0.0,2.3745,2.7544,3.035,3.1339,3.145,3.1873,3.2874,3.2731,3.0267,2.4761,0.0,0.0,0.0,0.0,0.0,0.0,0.0,0.0,0.0,0.0,0.0,0.0,0.0,0.0,0.0,0.0,0.0,0.0,0.0,0.0,0.0,0.0,0.0,0.0,0.0,0.0,0.0,0.0,0.0,0.0,0.0,0.0,0.0,0.0,0.0,0.0,0.0,0.0,0.0,0.0,0.0,0.0,0.0,0.0,0.0,0.0,0.0,0.0,0.0,0.0,0.0,0.0,0.0,0.0,0.0,0.0,0.0,0.0,0.0,0.0,0.0,0.0,0.0,0.0,0.0,0.0,0.0,0.0,0.0,0.0,0.0,0.0,0.0,0.0,0.0,0.0,0.0,0.0,0.0,0.0,0.0,0.0,0.0,0.0,0.0,0.0,0.0,0.0,0.0,0.0,0.0,0.0,0.0,0.0,0.0,0.0,0.0,0.0,0.0,0.0,0.0,0.0,2.465,2.7905,2.9955,2.9955,2.9955,2.9955,2.9955,2.927,2.7368,0.0,0.0,0.0,0.0,0.0,0.0,0.0,0.0,0.0,0.0,0.0,0.0,0.0,0.0,0.0,0.0,0.0,0.0,0.0,0.0,0.0,0.0,0.0,0.0,0.0,0.0,0.0,0.0,0.0,0.0,0.0,0.0,0.0,0.0,0.0,0.0,0.0,0.0,0.0,0.0,0.0,0.0,0.0,0.0,0.0,0.0,0.0,0.0,0.0,0.0,0.0,0.0,0.0,0.0,0.0,0.0,0.0,0.0,0.0,0.0,0.0,0.0,0.0,0.0,0.0,0.0,0.0,0.0,0.0,0.0,0.0,0.0,0.0,0.0,0.0,0.0,0.0,0.0,0.0,0.0,0.0,0.0,0.0,0.0,0.0,0.0,0.0,0.0,0.0,0.0,0.0,0.0,0.0,0.0,0.0,0.0,0.0,0.0,0.0,0.0,0.0,0.0,0.0,2.4388,2.6305,2.7866,2.9728,2.9955,2.9955,2.9955,2.9727,2.7924,2.3968,0.0,0.0,0.0,0.0,0.0,0.0,0.0,0.0,0.0,0.0,0.0,0.0,0.0,0.0,0.0,0.0,0.0,0.0,0.0,0.0,0.0,0.0,0.0,0.0,0.0,0.0,0.0,0.0,0.0,0.0,0.0,0.0,0.0,0.0,0.0,0.0,0.0,0.0,0.0,0.0,0.0,0.0,0.0,0.0,0.0,0.0,0.0,0.0,0.0,0.0,0.0,0.0,0.0,0.0,0.0,0.0,0.0,0.0,0.0,0.0,0.0,0.0,0.0,0.0,0.0,0.0,0.0,0.0,0.0,0.0,0.0,0.0,0.0,0.0,0.0,0.0,0.0,0.0,0.0,0.0,0.0,0.0,0.0,0.0,0.0,0.0,0.0,0.0,0.0,0.0,0.0,0.0,0.0,0.0,0.0,0.0,0.0,0.0,0.0,0.0,0.0,0.0,0.0,2.6306,2.8032,0.0,2.9955,2.9955,2.9955,2.967,2.8,2.4469,0.0,0.0,0.0,0.0,0.0,0.0,0.0,0.0,0.0,0.0,0.0,0.0,0.0,0.0,0.0,0.0,0.0,0.0,0.0,0.0,0.0,0.0,0.0,0.0,0.0,0.0,0.0,0.0,0.0,0.0,0.0,0.0,0.0,0.0,0.0,0.0,0.0,0.0,0.0,0.0,0.0,0.0,0.0,0.0,0.0,0.0,0.0,0.0,0.0,0.0,0.0,0.0,0.0,0.0,0.0,0.0,0.0,0.0,0.0,0.0,0.0,0.0,0.0,0.0,0.0,0.0,0.0,0.0,0.0,0.0,0.0,0.0,0.0,0.0,0.0,0.0,0.0,0.0,0.0,0.0,0.0,0.0,0.0,0.0,0.0,0.0,0.0,0.0,0.0,0.0,0.0,0.0,0.0,0.0,0.0,0.0,0.0,0.0,0.0,0.0,0.0,0.0,0.0,2.7425,2.9709,2.9879,2.9955,2.9955,2.9955,2.9253,2.7786,2.5238,2.1967,0.0,0.0,0.0,0.0,0.0,0.0,0.0,0.0,0.0,0.0,0.0,0.0,0.0,0.0,0.0,0.0,0.0,0.0,0.0,0.0,0.0,0.0,0.0,0.0,0.0,0.0,0.0,0.0,0.0,0.0,0.0,0.0,0.0,0.0,0.0,0.0,0.0,0.0,0.0,0.0,0.0,0.0,0.0,0.0,0.0,0.0,0.0,0.0,0.0,0.0,0.0,0.0,0.0,0.0,0.0,0.0,0.0,0.0,0.0,0.0,0.0,0.0,0.0,0.0,0.0,0.0,0.0,0.0,0.0,0.0,0.0,0.0,0.0,0.0,0.0,0.0,0.0,0.0,0.0,0.0,0.0,0.0,0.0,0.0,0.0,0.0,0.0,0.0,0.0,0.0,0.0,0.0,0.0,0.0,0.0,0.0,0.0,0.0,0.0,0.0,0.0,0.0,2.577,2.761,2.9709,2.9955,2.9955,2.9955,2.9784,2.8341,2.5295,2.2438,0.0,0.0,0.0,0.0,0.0,0.0,0.0,0.0,0.0,0.0,0.0,0.0,0.0,0.0,0.0,0.0,0.0,0.0,0.0,0.0,0.0,0.0,0.0,0.0,0.0,0.0,0.0,0.0,0.0,0.0,0.0,0.0,0.0,0.0,0.0,0.0,0.0,0.0,0.0,0.0,0.0,0.0,0.0,0.0,0.0,0.0,0.0,0.0,0.0,0.0,0.0,0.0,0.0,0.0,0.0,0.0,0.0,0.0,0.0,0.0,0.0,0.0,0.0,0.0,0.0,0.0,0.0,0.0,0.0,0.0,0.0,0.0,0.0,0.0,0.0,0.0,0.0,0.0,0.0,0.0,0.0,0.0,0.0,0.0,0.0,0.0,0.0,0.0,0.0,0.0,0.0,0.0,0.0,0.0,0.0,0.0,0.0,0.0,0.0,0.0,0.0,0.0,2.2969,2.5827,2.9558,2.9955,2.9955,2.9955,2.9955,2.855,2.5295,2.2665,0.0,0.0,0.0,0.0,0.0,0.0,0.0,0.0,0.0,0.0,0.0,0.0,0.0,0.0,0.0,0.0,0.0,0.0,0.0,0.0,0.0,0.0,0.0,0.0,0.0,0.0,0.0,0.0,0.0,0.0,0.0,0.0,0.0,0.0,0.0,0.0,0.0,0.0,0.0,0.0,0.0,0.0,0.0,0.0,0.0,0.0,0.0,0.0,0.0,0.0,0.0,0.0,0.0,0.0,0.0,0.0,0.0,0.0,0.0,0.0,0.0,0.0,0.0,0.0,0.0,0.0,0.0,0.0,0.0,0.0,0.0,0.0,0.0,0.0,0.0,0.0,0.0,0.0,0.0,0.0,0.0,0.0,0.0,0.0,0.0,0.0,0.0,0.0,0.0,0.0,0.0,0.0,0.0,0.0,0.0,0.0,0.0,0.0,0.0,0.0,0.0,0.0,0.0,2.414,2.8659,2.918,2.9312,2.9558,2.9615,2.8207,2.4989,0.0,0.0,0.0,0.0,0.0,0.0,0.0,0.0,0.0,0.0,0.0,0.0,0.0,0.0,0.0,0.0,0.0,0.0,0.0,0.0,0.0,0.0,0.0,0.0,0.0,0.0,0.0,0.0,0.0,0.0,0.0,0.0,0.0,0.0,0.0,0.0,0.0,0.0,0.0,0.0,0.0,0.0,0.0,0.0,0.0,0.0,0.0,0.0,0.0,0.0,0.0,0.0,0.0,0.0,0.0,0.0,0.0,0.0,0.0,0.0,0.0,0.0,0.0,0.0,0.0,0.0,0.0,0.0,0.0,0.0,0.0,0.0,0.0,0.0,0.0,0.0,0.0,0.0,0.0,0.0,0.0,0.0,0.0,0.0,0.0,0.0,0.0,0.0,0.0,0.0,0.0,0.0,0.0,0.0,0.0,0.0,0.0,0.0,0.0,0.0,0.0,0.0,0.0,0.0,2.1957,2.4979,2.5748,2.6522,2.7859,2.7975,2.6699,2.378,0.0,0.0,0.0,0.0,0.0,0.0,0.0,0.0,0.0,0.0,0.0,0.0,0.0,0.0]}]]]